GFSMA_sfc_dewp_000.txt.gz
Dewpoint
59 57 55 53 53 54 54 55 54 50 44 42 44 45 43 44 45 41 42 48 50 50 52 52 54 54 56 58 60 62 63 64 64 64 65 64 64 64 65 65 65 65 65
57 53 51 48 48 49 51 52 51 47 43 42 43 45 42 41 42 43 38 42 48 52 53 53 55 56 56 57 58 59 60 62 63 63 64 64 64 64 64 64 64 65 65
54 54 49 49 48 50 53 54 53 49 45 41 41 42 42 43 40 41 39 38 43 52 52 52 53 53 52 52 53 54 57 59 60 62 63 64 64 64 63 63 64 64 65
55 54 50 49 50 51 50 50 50 47 45 41 39 39 39 39 40 41 39 38 36 35 48 52 50 50 50 50 50 50 52 54 56 58 62 63 63 64 64 63 63 64 64
52 52 49 49 52 50 49 49 48 48 46 41 38 39 40 39 39 35 37 40 41 38 36 49 50 49 48 46 45 46 50 54 55 56 58 61 62 63 63 64 64 64 63
48 49 48 51 52 50 49 48 50 48 45 44 35 34 38 40 39 38 38 36 36 41 40 41 42 42 47 42 41 41 46 48 50 55 54 58 59 62 63 63 63 64 63
46 47 46 47 49 48 49 51 50 50 48 46 43 40 39 42 43 39 38 36 36 39 41 42 37 35 37 42 38 43 44 47 48 48 52 53 53 56 58 62 62 63 63
42 41 45 45 45 45 47 49 50 48 48 48 44 41 37 36 38 40 39 37 40 37 39 41 37 36 34 32 39 42 43 45 47 50 49 52 48 52 53 56 60 61 62
40 41 43 44 45 44 42 45 46 47 44 46 48 43 39 36 36 36 41 38 40 40 39 37 34 32 33 35 37 42 45 47 47 48 47 51 49 49 50 53 57 59 60
39 39 41 43 44 43 43 42 39 43 44 42 43 43 47 44 39 36 37 40 39 39 41 35 33 34 34 32 36 43 46 47 48 50 46 46 48 49 49 52 54 55 58
38 38 41 43 43 42 43 45 45 45 44 43 42 42 44 43 42 39 36 36 36 36 33 35 36 35 36 34 32 41 45 47 46 48 49 48 49 50 50 50 52 52 54
36 38 39 42 43 42 42 41 43 43 43 43 41 41 39 37 37 36 35 35 36 33 33 35 35 35 36 34 35 40 44 44 43 45 47 48 49 50 49 48 48 51 51
35 38 41 41 39 40 40 41 42 42 40 39 39 39 39 39 38 38 38 36 35 34 34 34 34 34 32 35 33 39 43 39 41 44 45 48 47 49 50 49 49 49 50
38 41 40 39 40 40 40 41 40 38 39 39 39 39 39 39 39 38 37 37 36 38 36 36 34 33 33 32 37 40 33 37 39 44 43 45 45 43 44 44 46 46 44
37 39 40 38 35 36 36 37 37 38 37 37 37 37 37 38 38 37 37 34 34 32 28 30 30 32 31 31 34 32 34 39 39 42 42 43 42 40 39 40 43 45 46
39 37 35 34 34 36 38 38 37 36 36 35 32 31 29 28 30 31 29 29 28 25 22 21 21 24 26 21 30 29 30 38 40 41 41 40 41 40 40 40 41 42 45
35 34 34 34 35 37 38 38 36 34 30 30 29 28 27 27 26 25 25 25 23 23 21 21 20 23 26 27 27 29 29 29 30 39 40 38 38 39 39 39 40 42 43
37 36 37 38 37 37 34 32 31 29 27 25 26 26 25 17 24 24 23 25 24 24 23 23 23 22 25 26 28 29 25 22 26 32 40 39 38 37 37 37 39 41 42
38 39 37 36 36 34 33 29 26 25 26 26 25 24 23 24 24 23 24 23 23 19 22 21 21 22 23 23 24 26 27 28 24 31 37 38 39 39 39 38 39 40 42
33 32 30 30 30 27 25 24 23 24 24 23 24 25 23 23 23 23 21 22 20 20 20 19 18 19 20 22 22 22 23 25 25 21 26 28 32 36 37 38 38 40 41
24 23 23 23 24 22 18 26 22 23 24 24 24 23 24 25 26 26 22 21 21 20 19 19 19 20 20 21 21 22 22 24 25 26 26 27 27 27 28 34 32 38 38
21 22 22 22 23 18 29 28 28 24 23 21 21 21 21 25 24 26 26 25 26 23 22 21 20 21 21 21 22 22 24 23 22 29 27 28 30 28 28 28 31 35 38
23 23 23 23 24 24 25 25 25 22 21 21 21 21 18 15 22 20 24 27 26 26 25 24 23 23 23 24 24 25 25 25 23 24 27 29 31 33 35 28 34 36 37
22 22 23 23 22 19 24 23 23 22 23 23 21 21 19 19 21 23 22 22 22 23 24 24 24 22 23 23 24 24 25 26 28 25 27 28 32 33 34 34 34 35 37
22 22 22 22 21 21 24 22 22 24 23 22 20 20 21 23 24 25 25 27 24 24 25 28 28 27 28 29 28 27 29 27 28 24 25 25 30 31 32 34 37 34 35
21 22 24 24 24 24 23 22 22 23 25 24 24 23 25 24 26 25 28 28 25 22 23 26 26 30 30 27 29 29 28 26 26 25 24 24 23 24 28 35 34 37 38

GFSMA_sfc_dewp_003.txt.gz
Dewpoint
57 54 52 49 48 48 49 50 50 49 47 44 42 44 43 43 44 41 40 51 49 50 50 51 52 53 54 55 57 59 61 62 63 64 64 65 65 64 64 64 64 64 65
56 52 50 48 47 47 47 48 49 49 46 43 42 43 44 41 41 44 39 44 50 52 52 52 54 55 54 54 55 57 58 59 61 62 64 64 64 64 64 64 64 64 64
53 54 50 49 48 50 52 50 50 49 48 45 42 42 43 44 42 42 41 38 43 52 53 52 53 52 50 50 50 50 52 55 58 60 63 63 64 64 64 63 63 64 64
52 53 50 50 50 52 49 49 47 47 46 45 46 41 40 41 42 42 41 40 37 38 50 53 51 50 50 48 46 46 49 52 54 56 59 63 63 63 64 64 63 63 64
49 50 49 51 56 51 53 52 50 51 48 47 45 44 43 41 43 37 40 43 45 39 39 53 53 52 50 47 43 42 45 47 52 55 57 60 63 63 63 63 64 64 63
49 50 49 53 53 51 51 52 55 51 52 50 44 43 47 44 43 44 41 39 40 44 42 43 44 43 51 47 44 41 42 46 48 49 54 55 58 59 63 63 63 64 64
46 47 45 47 49 48 51 53 52 52 51 51 50 49 48 48 47 43 44 42 41 42 45 44 43 39 42 49 43 40 42 44 47 49 50 52 55 55 57 59 63 63 63
44 43 45 44 46 44 50 51 52 49 49 50 48 47 44 45 45 45 44 44 46 41 41 44 45 43 39 37 42 45 40 42 44 47 50 50 55 53 54 54 55 60 63
41 41 42 43 47 46 44 49 48 48 44 46 50 46 42 40 43 43 47 45 46 44 42 42 45 40 39 37 41 42 47 45 44 47 50 49 51 51 52 52 53 57 59
38 36 38 41 45 45 46 45 40 47 46 43 44 40 45 44 43 42 44 45 44 43 47 44 42 38 36 36 43 44 44 45 47 50 48 48 48 51 50 51 53 55 56
38 36 38 41 44 41 44 46 46 43 41 42 40 41 43 42 43 42 41 43 43 42 44 47 41 37 37 37 37 41 45 47 46 48 49 47 47 48 50 51 52 54 54
36 38 36 40 43 43 41 42 42 43 43 41 40 40 39 39 38 38 37 39 40 45 46 42 41 39 39 38 39 45 44 45 42 45 45 45 47 49 52 52 51 50 51
35 38 40 41 38 39 39 41 44 42 41 40 40 39 38 38 38 38 37 37 38 40 44 45 44 42 37 40 39 41 44 40 41 45 45 46 46 48 50 51 51 50 51
37 38 39 39 39 38 41 42 39 40 39 39 38 37 38 38 39 38 38 37 36 37 39 38 40 42 41 38 42 39 39 40 41 44 43 46 42 39 41 43 45 46 46
34 37 38 37 39 39 40 40 39 39 40 39 39 38 37 38 39 36 35 36 35 33 30 34 36 39 40 38 37 36 35 41 41 41 42 41 41 38 38 38 39 42 43
36 37 39 38 38 39 38 38 37 38 37 37 35 33 32 31 30 31 31 34 34 33 29 28 27 30 31 25 34 35 34 41 40 39 39 39 39 40 41 40 41 42 42
37 39 39 39 38 38 38 38 36 35 35 36 34 32 31 30 28 26 28 28 26 25 24 24 23 27 30 31 28 33 33 34 33 38 37 38 39 39 39 39 39 40 42
38 38 38 37 38 39 37 36 35 31 30 29 29 29 29 25 28 26 24 24 24 24 22 23 24 25 28 30 32 33 26 23 28 32 39 38 38 37 37 37 38 39 40
33 33 32 33 31 30 28 27 26 28 28 27 26 26 24 24 24 25 24 24 22 19 23 22 21 23 25 26 26 28 29 32 24 34 39 39 39 39 38 37 38 39 40
26 23 23 23 23 21 21 21 21 23 22 21 23 23 23 23 23 24 23 23 21 21 21 21 20 21 22 23 24 24 26 28 27 19 26 28 34 37 37 37 38 38 39
21 20 21 22 22 21 20 26 24 24 23 22 25 21 24 25 27 27 21 22 22 22 21 20 21 21 22 23 22 24 25 27 29 29 29 30 31 31 31 36 35 38 38
20 21 21 21 22 17 28 26 25 23 20 19 20 21 21 25 26 30 30 30 26 20 19 21 21 21 22 23 23 24 25 25 23 30 28 30 31 30 30 32 35 33 33
22 22 22 21 22 23 25 25 25 22 20 20 20 21 19 16 24 19 23 27 27 28 26 23 21 21 21 23 24 25 26 26 26 26 28 30 34 34 34 27 34 35 35
22 21 22 23 23 21 27 25 23 21 20 20 20 20 21 20 21 22 23 23 22 22 23 23 24 23 24 24 24 24 25 27 28 28 29 28 34 34 35 35 34 34 36
22 21 22 23 24 24 26 25 22 22 21 21 20 20 22 22 23 24 24 25 23 23 24 28 28 28 28 28 28 28 29 29 28 24 26 28 31 32 33 35 36 33 34
21 23 25 25 25 25 27 23 23 24 24 23 24 21 24 24 26 27 27 27 26 23 23 26 27 28 33 32 29 28 26 25 26 26 25 27 26 26 28 34 33 35 36

GFSMA_sfc_dewp_006.txt.gz
Dewpoint
59 58 56 55 54 53 53 53 52 52 52 49 47 45 46 46 46 46 48 51 52 50 50 52 54 56 56 57 59 60 62 62 63 64 64 64 64 65 65 64 63 63 64
58 57 55 55 54 53 53 52 51 52 52 50 47 46 45 45 45 45 45 48 52 52 53 53 54 55 56 57 58 59 59 61 62 63 64 64 64 64 64 64 64 64 64
56 56 56 55 55 55 54 53 53 52 52 51 49 48 47 47 46 45 46 45 46 53 55 56 55 56 55 54 54 54 55 57 59 61 63 64 64 64 64 64 64 64 64
54 55 55 56 56 57 54 54 53 51 51 50 50 49 46 45 45 45 45 44 43 41 52 56 57 56 54 53 52 51 51 53 55 57 60 63 63 63 64 63 63 63 63
55 54 54 55 56 55 54 54 52 52 51 51 49 47 48 46 44 42 43 44 45 43 44 52 55 55 55 54 51 50 50 50 52 54 57 60 62 63 63 63 63 63 63
52 53 52 54 56 53 52 52 53 51 51 50 47 47 48 47 47 46 44 44 43 43 42 43 50 50 54 54 50 48 48 48 49 50 52 56 59 62 62 62 63 63 63
50 50 49 50 49 49 49 49 48 47 47 49 48 47 46 47 49 47 45 44 43 42 42 41 47 44 46 53 52 48 46 47 47 48 50 51 54 59 59 59 62 63 63
48 44 48 47 47 47 47 48 49 46 45 46 45 43 40 40 43 44 45 45 43 43 41 42 43 42 42 45 47 50 47 47 47 48 48 51 54 57 56 56 57 59 62
45 46 46 47 48 46 45 45 46 45 43 43 44 42 38 37 39 41 43 43 46 49 51 49 43 42 44 41 45 47 50 49 47 46 46 49 51 52 55 54 53 54 57
46 43 43 46 46 46 45 45 42 45 44 41 43 43 42 40 39 38 41 42 43 45 49 51 49 47 43 42 46 46 47 47 48 46 46 47 49 50 54 52 52 53 56
44 43 42 43 45 44 44 45 43 44 44 43 41 39 39 37 38 37 35 37 39 42 46 50 49 49 48 41 41 44 45 45 47 48 49 47 47 48 50 52 52 52 54
41 42 42 43 44 44 42 44 44 43 41 41 41 40 38 37 35 35 34 34 35 38 41 44 48 48 48 47 43 46 46 45 45 46 47 49 49 48 48 49 50 52 52
40 40 42 42 42 42 43 43 43 43 41 40 39 39 39 37 37 36 34 34 34 35 38 41 45 46 46 48 46 45 45 43 41 44 46 47 47 49 51 52 52 52 51
40 40 41 41 41 41 41 41 40 41 40 41 39 39 38 38 38 38 36 35 32 34 36 37 42 44 45 47 46 44 41 40 41 43 43 44 46 41 43 46 48 49 49
38 39 41 40 40 40 40 39 39 38 38 39 39 39 38 38 39 38 37 37 35 31 29 29 39 42 44 44 45 42 40 40 40 42 42 40 43 42 41 40 40 42 43
38 39 39 39 39 39 38 38 38 38 37 38 38 38 38 36 36 36 36 37 36 34 31 32 29 30 31 31 40 41 37 43 41 40 40 38 38 39 40 41 41 41 42
37 36 36 37 37 37 39 39 38 36 34 33 34 34 34 33 33 33 31 29 28 30 28 26 28 27 29 32 29 30 33 36 38 39 38 38 38 39 40 39 38 38 38
36 35 35 34 35 34 36 36 36 35 33 32 31 30 30 27 28 28 27 27 27 27 26 23 25 25 25 27 28 31 29 25 31 38 39 38 38 38 38 38 37 37 38
33 32 29 28 26 27 26 26 26 27 26 25 24 25 25 26 26 26 26 26 26 23 25 24 23 25 25 26 25 27 27 30 29 34 39 38 38 38 39 38 37 37 37
29 27 27 27 28 25 23 25 24 25 25 23 24 23 23 24 25 26 26 26 24 23 22 22 21 22 23 24 25 23 24 26 27 23 28 31 37 38 38 37 37 37 38
26 26 25 26 27 24 23 26 24 23 23 22 22 21 22 25 29 28 22 23 23 22 22 21 21 21 22 23 24 27 27 28 29 31 30 29 30 33 35 38 36 37 38
26 26 26 26 26 20 28 27 25 23 22 21 21 20 21 25 25 29 30 29 27 22 20 20 19 20 20 22 24 25 26 25 24 29 28 28 31 30 32 32 36 34 35
27 27 27 26 26 26 29 27 25 22 21 20 19 20 20 19 25 23 27 28 27 30 28 25 22 22 21 21 22 23 23 24 25 27 27 25 27 29 32 30 36 34 34
27 26 27 27 26 24 29 28 26 23 21 20 20 19 20 20 24 24 24 25 24 24 25 25 25 26 25 24 25 26 27 27 27 27 28 26 25 27 28 30 34 35 34
26 27 27 27 27 25 29 30 28 23 23 21 21 22 23 22 23 25 23 24 24 24 25 28 29 30 30 30 29 27 25 26 25 26 26 26 24 25 27 28 30 34 34
25 29 28 28 28 26 29 27 25 24 21 22 23 22 23 24 27 27 27 27 25 26 25 26 25 24 25 29 32 31 28 24 22 21 24 25 25 26 25 27 29 31 28

GFSMA_sfc_dewp_009.txt.gz
Dewpoint
54 54 54 52 51 51 50 50 49 50 51 50 48 45 43 45 45 45 45 54 53 53 51 51 53 55 57 59 61 61 62 63 64 65 64 65 65 65 65 65 64 64 64
54 54 52 53 51 52 52 50 49 49 50 51 49 47 43 43 44 45 45 47 54 54 54 51 52 54 56 57 60 60 60 62 63 63 64 64 64 64 64 64 64 64 63
51 52 52 53 54 53 53 51 52 52 50 50 50 49 47 45 45 44 44 45 48 54 54 55 55 55 55 56 58 59 59 61 61 62 64 64 64 64 63 64 64 64 64
53 52 51 51 53 54 53 52 52 51 51 50 50 49 49 47 45 45 44 44 45 43 51 55 57 57 58 57 55 55 56 56 57 59 61 64 63 64 64 63 64 64 64
51 50 50 50 51 52 52 52 52 52 51 50 48 46 47 47 47 45 45 44 44 44 43 50 54 55 58 58 54 54 53 53 55 56 58 60 62 63 63 63 63 63 64
48 47 46 47 48 48 48 47 47 47 47 47 45 45 48 48 49 48 46 45 44 44 43 43 48 50 55 56 55 53 52 52 52 53 56 57 60 61 63 63 63 63 63
45 45 45 47 46 46 45 45 46 44 44 46 45 42 44 45 44 44 45 47 46 44 44 43 43 46 48 55 55 53 52 51 51 51 52 54 56 61 61 62 63 63 63
45 44 44 45 45 44 43 42 43 44 43 44 41 41 39 39 41 42 43 44 45 48 48 48 45 46 45 45 49 54 52 51 50 50 52 54 55 56 59 58 59 60 62
44 41 42 43 44 44 42 41 43 42 42 42 42 41 39 38 38 40 38 40 40 42 45 48 49 49 46 43 46 49 51 51 52 50 50 52 52 54 56 57 56 55 56
41 41 41 41 43 42 41 43 43 43 43 41 42 40 40 38 36 32 36 35 36 37 41 45 47 49 50 49 48 48 48 48 50 50 47 47 48 51 52 55 55 54 54
40 40 41 41 41 43 41 43 42 41 41 40 40 39 38 36 37 35 31 33 35 36 40 41 44 47 48 48 49 49 48 47 47 48 46 47 47 48 49 53 53 53 53
40 39 40 40 41 41 42 42 42 40 40 41 41 40 39 36 35 33 32 32 32 34 36 39 42 45 46 49 48 48 47 46 46 48 49 49 49 48 48 48 51 52 52
38 40 40 40 40 40 41 40 40 40 40 39 37 37 38 37 37 36 34 32 32 32 35 38 41 42 44 47 48 47 47 46 45 45 47 48 48 48 50 52 52 50 50
39 39 40 40 40 40 40 39 38 38 39 39 39 39 38 38 38 37 35 34 32 32 33 33 38 41 41 44 45 45 46 45 44 43 43 45 45 41 42 42 45 48 50
37 39 39 38 38 39 39 39 38 38 38 37 37 38 39 39 38 39 38 38 36 30 28 31 32 36 40 43 43 45 46 45 43 42 43 42 45 41 39 39 40 41 42
37 36 36 36 36 37 38 38 37 37 36 36 36 36 36 37 38 39 38 37 36 34 31 30 30 32 31 30 41 42 43 43 43 41 42 40 39 39 39 39 40 39 38
34 35 36 35 35 35 35 36 36 36 36 35 34 33 30 29 32 36 36 34 32 32 31 28 27 27 26 27 28 35 39 39 39 41 39 38 38 39 39 39 39 38 36
34 34 32 29 28 27 28 28 31 31 28 26 26 26 26 23 25 27 28 27 27 27 26 24 25 25 24 26 27 26 26 22 34 39 40 38 39 39 39 38 38 38 37
28 27 26 27 27 28 27 26 27 27 26 25 25 25 23 22 22 24 26 27 27 25 24 23 23 24 24 25 24 26 25 27 26 34 39 39 38 39 38 38 38 37 37
25 25 25 26 27 27 26 26 25 25 24 23 25 24 23 22 22 23 23 25 25 25 23 22 22 22 23 24 25 25 26 27 26 25 29 33 37 39 39 39 38 38 38
26 24 24 26 26 25 24 26 25 23 23 23 23 22 21 22 25 26 25 25 25 24 22 21 21 21 21 22 22 26 25 26 27 29 28 28 29 31 33 36 38 38 38
24 24 25 26 26 23 28 27 25 23 22 22 20 19 20 22 23 24 27 29 28 25 22 21 20 19 19 21 22 22 23 23 23 28 27 26 28 28 30 31 35 37 35
24 25 26 26 25 25 30 28 26 24 22 21 20 19 19 17 22 23 25 27 26 27 28 27 25 23 22 23 22 21 22 23 23 26 26 24 24 26 29 30 35 34 33
24 25 25 27 26 25 29 31 30 25 23 22 22 20 20 21 23 23 22 22 24 25 24 24 27 26 26 25 25 24 26 28 26 27 27 23 23 23 26 28 34 35 35
25 27 27 27 26 26 29 28 27 24 23 23 22 22 21 20 23 26 25 25 25 24 25 26 28 30 30 32 31 30 27 25 22 23 25 23 22 22 23 25 28 33 34
27 28 27 27 28 25 26 25 27 25 21 22 22 21 22 23 28 28 25 23 22 21 24 24 24 23 24 25 26 28 27 26 25 19 22 24 22 23 20 23 26 27 27

GFSMA_sfc_dewp_012.txt.gz
Dewpoint
52 53 52 52 51 51 50 50 49 48 49 50 50 48 46 43 44 45 45 54 57 56 55 53 53 53 54 59 61 61 61 63 63 64 65 65 64 64 64 65 65 65 64
53 52 52 52 52 52 53 51 50 50 51 51 51 51 48 45 43 44 45 46 55 57 57 54 54 54 54 56 59 61 60 60 62 63 65 64 63 63 63 64 64 64 64
52 52 51 50 51 52 51 52 51 52 51 50 49 50 50 49 47 45 44 44 46 55 56 57 57 56 55 55 58 59 61 61 61 61 64 64 63 63 63 63 64 64 64
51 49 47 46 49 49 50 49 50 49 48 48 48 48 48 48 47 46 46 45 44 44 51 55 56 57 57 57 54 55 57 58 58 59 61 63 63 62 63 63 63 63 63
48 46 45 45 47 47 47 47 46 47 46 44 43 43 45 47 47 48 47 46 45 45 44 48 54 55 56 57 55 54 54 54 55 55 57 61 62 62 63 63 63 63 63
47 45 45 46 46 45 44 44 43 43 44 44 40 43 43 45 45 45 45 45 46 47 47 45 44 48 54 56 57 55 54 54 54 54 54 56 59 61 62 63 63 62 63
47 45 45 45 46 43 42 42 42 42 42 43 41 39 41 41 41 41 43 44 43 46 44 43 45 47 45 54 56 55 54 53 53 53 55 56 57 59 61 62 63 63 62
43 41 43 42 44 42 40 40 42 42 42 42 40 41 36 37 40 38 38 40 39 42 39 41 46 46 50 48 48 54 55 53 53 54 55 55 56 56 57 61 61 61 62
41 41 41 42 41 41 41 41 42 41 41 42 41 40 37 35 37 38 35 35 37 36 39 41 42 43 47 49 49 47 51 53 55 54 55 54 55 54 56 57 58 58 58
40 40 41 41 41 42 41 42 43 42 41 40 41 40 39 38 34 32 34 34 35 35 38 41 39 41 47 48 50 49 48 48 51 52 53 54 52 51 51 54 57 56 55
41 40 41 40 40 41 40 40 41 40 40 39 39 39 37 37 36 34 31 32 33 35 35 38 38 41 45 46 47 47 48 47 48 49 49 49 48 49 49 51 53 54 54
40 40 40 40 40 40 39 39 39 39 39 39 39 38 38 36 35 34 33 33 32 32 34 36 38 40 42 44 46 48 48 47 47 47 47 46 48 49 49 49 50 53 53
39 40 39 39 39 39 39 38 38 37 38 38 38 39 39 39 37 37 36 36 33 32 33 36 37 38 41 42 44 44 45 45 46 47 46 46 49 50 51 52 52 51 50
38 39 39 37 37 38 38 38 37 37 36 36 36 36 37 38 38 38 37 34 32 32 32 31 34 36 39 39 43 43 44 44 44 45 46 46 46 43 44 44 45 47 48
37 36 36 36 35 36 37 37 36 35 35 34 35 35 36 36 38 37 37 36 33 28 30 33 31 34 36 37 40 41 40 42 43 42 44 44 46 44 40 42 42 41 43
35 34 33 34 35 35 36 36 35 35 34 34 35 33 31 30 32 33 35 36 35 33 29 30 29 29 29 25 31 37 40 39 41 41 42 43 42 44 42 40 39 40 38
33 33 34 34 30 30 30 30 31 33 29 27 27 26 26 26 26 27 27 28 30 32 29 27 29 26 24 25 25 27 30 40 41 39 40 42 42 41 41 40 39 38 36
33 32 32 27 27 26 27 26 27 27 26 25 25 25 24 21 23 23 24 24 26 26 26 24 25 24 23 24 25 25 25 24 33 36 38 41 42 41 39 39 39 39 37
32 34 27 25 25 27 26 26 26 25 24 24 24 24 23 23 21 21 22 23 23 23 26 24 23 24 24 24 24 26 26 28 26 32 34 33 40 41 39 39 39 38 38
37 34 27 26 28 26 26 25 24 23 23 23 25 24 23 21 20 21 21 23 23 24 25 23 22 22 22 23 25 25 24 26 25 24 31 32 35 37 38 39 39 39 39
37 28 26 26 27 26 24 25 24 23 23 23 23 22 21 21 22 21 21 23 28 26 25 23 22 21 20 20 21 24 23 23 23 28 29 28 29 30 32 34 36 38 38
27 28 26 26 25 24 29 28 27 24 23 22 21 20 20 21 21 23 24 25 24 27 25 26 23 20 19 20 21 21 21 21 20 26 26 25 27 27 29 32 36 36 36
32 25 25 26 26 25 30 30 29 25 24 22 21 21 20 18 22 22 24 25 24 25 25 25 25 24 22 22 22 21 21 21 22 24 25 23 25 25 27 28 33 34 34
26 25 27 26 25 25 29 29 28 25 23 23 22 22 20 20 21 21 23 26 24 25 24 23 23 25 25 25 24 24 23 23 27 27 27 21 22 22 24 26 31 35 35
26 27 26 26 26 25 24 26 26 23 22 21 21 20 20 22 24 26 24 24 23 22 22 25 28 27 29 29 29 29 26 25 23 23 25 23 22 21 22 23 26 31 33
27 26 25 24 23 22 22 22 21 22 17 20 20 19 21 21 25 27 26 25 22 21 21 22 24 23 23 23 24 25 23 23 22 20 23 22 22 21 17 21 23 24 25

GFSMA_sfc_dewp_015.txt.gz
Dewpoint
52 52 51 52 51 52 52 51 50 50 50 51 50 50 49 48 45 44 45 52 54 55 56 55 56 55 57 58 59 61 60 60 60 62 64 64 64 64 64 63 63 64 64
52 51 51 50 50 50 50 50 50 50 49 49 48 48 48 49 47 45 44 45 52 54 56 56 56 55 56 58 59 60 61 61 59 60 62 64 64 64 63 63 63 62 65
52 51 48 46 48 49 48 48 47 47 45 46 45 47 47 46 48 47 46 45 46 50 53 54 55 56 57 57 58 59 60 61 60 59 60 62 63 64 63 63 62 62 62
48 46 44 45 47 47 47 46 46 43 43 43 43 43 43 46 45 47 47 46 46 46 47 50 51 52 54 55 56 57 58 58 60 58 60 61 62 63 63 63 61 62 62
47 45 45 46 47 45 45 44 43 43 43 42 41 40 42 42 44 45 44 45 46 46 45 45 46 49 51 53 54 55 55 57 58 58 58 59 59 61 61 62 62 62 62
47 45 46 46 45 43 42 41 40 41 42 42 41 39 40 41 42 42 42 42 43 44 41 40 42 43 48 51 52 54 55 55 56 57 58 57 58 59 60 61 61 61 61
43 42 43 44 43 41 40 40 41 41 41 42 40 38 40 39 39 39 39 41 39 41 39 40 41 43 41 47 49 53 54 56 55 57 57 57 57 57 59 59 60 62 61
41 40 41 41 41 41 41 40 41 41 41 42 40 39 36 36 38 38 36 37 37 38 37 36 41 37 37 43 48 50 52 53 54 55 56 56 57 57 57 57 57 60 61
41 41 41 41 42 42 41 41 41 41 40 41 40 39 36 34 36 36 35 35 35 35 37 38 40 37 38 44 47 48 49 49 50 51 53 55 56 56 57 56 55 56 58
41 41 41 41 41 41 40 40 40 39 39 38 39 40 38 38 35 33 34 34 35 33 35 36 38 38 40 44 45 47 48 47 48 50 51 51 53 55 55 53 52 53 56
41 41 41 40 40 40 39 38 38 38 38 37 39 38 38 38 36 35 33 31 34 34 35 36 36 37 39 42 43 46 47 47 47 48 49 50 51 53 52 50 50 52 54
41 42 40 39 39 39 38 37 37 36 36 37 38 38 37 36 36 35 35 33 32 33 34 35 36 37 38 40 41 43 45 45 45 46 48 48 50 49 48 49 50 51 53
41 38 38 37 36 38 38 37 36 35 35 34 35 35 36 36 35 36 35 33 34 32 35 34 36 36 36 38 39 40 44 44 43 44 45 48 47 49 50 50 51 50 50
38 38 37 36 35 36 36 36 36 35 34 34 32 33 33 34 35 36 33 32 29 29 33 35 36 37 36 36 37 40 41 41 41 41 41 44 47 45 43 45 49 51 51
37 37 37 36 36 35 36 36 35 34 34 33 33 33 32 32 31 32 32 34 33 26 25 29 30 32 34 34 33 33 39 40 40 40 39 40 43 46 45 41 43 47 48
37 35 35 35 35 35 34 34 33 32 33 33 32 27 25 27 27 28 28 29 30 31 25 30 29 30 29 25 28 30 30 34 40 39 39 39 41 43 45 44 43 42 43
34 35 36 35 33 29 28 28 29 30 29 26 25 25 25 25 25 25 25 25 25 26 25 25 29 29 25 24 25 27 28 29 37 38 38 38 39 41 43 44 43 42 41
35 32 34 34 29 28 27 27 26 27 25 24 24 24 24 21 22 23 23 21 22 23 24 21 25 25 23 24 24 24 25 25 28 33 38 36 38 38 41 41 41 41 40
32 35 35 33 28 27 27 26 25 24 23 24 24 23 23 23 21 20 20 20 22 22 23 23 23 24 24 24 23 24 25 26 23 27 32 38 38 38 38 40 41 40 39
36 35 36 31 28 28 26 24 23 24 24 23 24 24 23 22 20 19 19 20 23 25 25 27 25 23 23 23 23 23 23 24 22 19 27 31 36 36 38 40 40 39 39
36 38 29 29 28 26 24 24 24 24 23 23 24 23 22 22 23 21 19 20 21 22 25 25 25 25 24 20 20 22 22 21 22 23 27 28 29 30 33 34 35 39 39
35 30 31 26 25 24 29 29 30 26 25 24 23 22 22 22 21 22 23 23 23 23 23 24 22 24 24 20 20 21 20 20 19 24 25 24 27 26 27 29 34 36 37
36 29 25 26 25 25 30 29 29 27 25 24 22 21 20 18 21 21 22 23 24 25 25 25 23 22 23 24 22 21 21 21 21 22 25 23 24 26 27 25 31 33 35
30 26 26 25 25 25 25 26 26 23 21 21 19 19 19 20 22 21 24 23 23 23 23 24 26 24 23 24 24 23 22 23 23 25 26 24 20 22 23 26 29 32 34
26 26 26 25 22 20 22 22 22 22 21 20 20 18 19 20 22 26 25 24 24 23 22 23 23 25 29 30 30 27 25 24 22 21 24 22 21 20 21 22 26 30 33
26 25 22 23 21 20 21 20 20 20 15 20 20 19 20 21 24 24 25 24 22 21 22 22 22 24 24 23 23 24 22 21 21 18 23 22 22 20 16 19 21 23 25

GFSMA_sfc_dewp_018.txt.gz
Dewpoint
53 52 51 51 51 51 50 50 50 49 48 48 47 48 48 49 49 48 47 51 53 54 55 56 57 57 57 59 61 61 61 59 59 59 61 62 64 64 64 63 63 64 64
52 52 49 48 48 49 48 49 48 47 45 45 44 45 46 46 47 47 47 47 51 52 53 54 56 56 57 57 58 59 60 61 61 59 60 61 63 64 64 63 63 63 63
50 47 45 45 47 47 46 46 46 43 42 43 42 43 43 44 44 46 47 47 47 49 50 50 50 52 54 56 56 56 57 59 61 60 61 61 61 62 63 63 63 63 63
46 45 45 46 47 46 45 44 44 41 41 42 42 41 41 42 42 45 45 46 46 44 44 45 46 46 48 51 55 56 56 56 58 60 61 60 61 61 62 62 62 62 62
47 46 46 46 46 43 42 41 41 41 41 40 41 40 40 40 42 42 44 43 44 43 40 41 43 44 45 46 49 52 55 56 56 57 59 60 60 60 60 61 61 62 62
46 45 45 44 42 40 41 40 40 41 41 41 41 40 40 40 42 41 42 40 41 41 40 40 40 43 41 42 44 49 51 55 56 56 57 58 58 59 59 60 61 61 61
41 41 42 41 42 41 41 41 41 41 41 42 40 39 40 39 39 39 39 40 38 39 39 38 37 41 36 41 45 48 50 52 53 55 55 57 57 58 59 59 59 59 61
41 40 41 41 41 40 40 41 41 40 41 41 40 39 35 35 38 38 38 37 37 37 37 37 38 39 37 39 43 46 48 50 51 52 53 53 53 57 57 58 59 57 58
41 41 40 40 40 39 40 41 40 39 38 39 39 39 35 32 36 36 36 36 35 35 37 37 37 38 37 39 43 45 46 47 48 50 51 52 53 53 55 57 57 57 55
40 39 40 40 41 40 39 39 39 38 37 36 38 39 38 38 32 30 34 35 35 35 36 37 37 37 38 40 42 43 45 47 46 47 48 50 51 52 52 54 56 55 53
41 41 41 39 39 39 38 37 36 35 36 35 36 37 36 36 36 35 30 31 35 35 36 37 37 37 38 39 40 43 41 46 45 45 46 47 49 51 52 53 54 53 53
40 41 39 38 38 38 37 36 35 34 34 34 35 35 35 34 33 32 31 30 33 35 33 36 36 37 38 38 37 38 40 44 43 42 44 46 47 48 50 52 51 51 51
40 39 37 36 35 37 36 36 35 34 33 33 33 33 34 34 34 34 33 30 30 30 34 35 36 37 34 37 36 37 38 43 41 41 42 43 45 47 48 48 51 50 51
39 38 37 35 34 35 35 36 36 35 34 34 32 32 32 33 34 34 32 30 26 28 28 30 34 36 37 37 35 34 34 40 40 40 40 41 42 44 46 45 46 51 52
37 37 36 34 35 35 35 36 35 35 34 34 33 32 32 31 28 29 28 29 28 21 19 22 29 33 34 35 34 34 33 33 39 39 39 40 41 43 44 45 44 46 50
36 35 35 35 35 35 35 34 34 32 32 32 32 28 25 26 27 27 26 27 27 24 20 22 23 30 31 30 31 33 30 32 33 39 38 39 39 40 40 42 45 43 44
35 34 34 34 35 33 30 29 28 28 30 27 26 25 25 25 25 25 24 23 22 23 20 19 22 25 27 27 28 28 28 31 33 35 39 38 38 38 38 39 43 44 41
35 35 33 35 35 32 28 26 27 27 26 24 24 24 24 22 23 22 22 20 20 20 20 20 22 23 24 26 26 25 23 24 26 27 33 37 36 37 38 38 39 42 41
33 33 35 35 34 31 27 28 26 25 23 24 24 24 23 23 22 21 19 19 20 19 21 24 24 24 25 25 24 24 24 27 23 24 27 33 37 38 38 38 39 41 41
33 35 35 35 30 28 26 24 23 24 24 24 25 24 24 23 22 21 20 21 19 21 21 20 21 26 25 25 24 23 22 24 22 19 21 30 33 37 37 38 39 40 41
35 37 35 31 28 26 23 24 25 26 25 25 25 25 24 24 25 22 19 20 22 24 23 22 21 21 22 24 25 25 22 22 22 23 24 28 28 31 34 37 37 38 40
34 34 28 26 25 24 30 30 30 27 26 24 22 21 20 20 21 22 22 23 23 24 23 22 21 20 20 22 25 24 22 20 18 23 25 23 27 26 28 31 33 37 38
32 29 25 24 25 27 27 26 28 23 21 20 19 18 17 16 20 20 23 23 23 24 25 26 23 22 22 22 23 24 24 21 21 22 24 24 26 27 27 25 29 32 37
30 26 25 25 25 21 23 23 23 23 21 20 19 19 18 19 21 20 24 24 22 22 23 23 23 23 25 26 24 23 23 23 23 24 26 23 25 26 27 28 29 31 34
26 25 25 23 19 19 21 21 21 21 21 19 19 19 18 19 21 25 24 24 22 22 22 23 25 25 24 25 27 27 24 24 22 19 25 25 25 24 25 27 29 29 32
26 24 23 22 21 19 19 20 20 20 16 19 20 19 20 19 22 23 24 22 21 20 22 24 25 24 24 24 24 23 23 23 22 21 24 25 23 23 21 24 25 27 28

GFSMA_sfc_dewp_021.txt.gz
Dewpoint
57 55 55 52 52 51 51 50 50 48 47 46 45 44 42 44 44 41 43 52 53 55 56 57 57 57 58 58 58 58 58 59 59 59 60 61 62 64 64 64 63 63 64
57 54 51 50 50 49 49 48 47 44 43 43 42 43 42 41 41 44 40 44 50 50 50 51 51 52 53 54 56 57 57 57 58 59 61 61 62 63 63 63 63 63 63
53 51 50 50 49 49 48 47 45 44 41 40 40 39 39 41 39 43 44 45 44 45 45 46 47 47 48 49 50 52 55 57 57 57 60 61 61 62 62 63 63 63 62
51 51 49 49 48 46 44 45 42 40 39 39 39 37 39 37 40 43 45 43 42 38 41 44 44 44 45 45 46 47 50 52 56 57 58 59 61 61 61 62 62 62 62
50 49 47 47 46 43 43 41 41 41 39 38 36 35 38 33 38 40 43 41 42 40 38 40 41 41 43 43 44 46 48 49 52 55 56 58 60 60 60 60 62 62 61
47 45 44 45 43 42 42 42 42 41 40 40 34 34 36 34 41 41 40 38 39 40 39 39 37 35 40 41 43 45 47 49 50 51 53 55 56 58 59 60 60 61 60
44 44 42 43 43 42 43 43 42 41 36 40 32 32 31 39 42 38 39 36 38 37 38 38 36 35 34 38 40 45 47 48 48 50 51 51 53 54 56 58 59 60 59
43 42 43 43 43 41 43 42 42 37 37 40 34 30 26 27 37 36 36 37 37 37 36 37 38 37 36 35 37 43 46 45 47 47 48 50 51 52 54 55 58 59 59
41 42 43 43 42 42 41 41 40 38 32 35 37 33 28 24 30 30 33 33 37 35 36 36 36 36 37 37 37 39 41 43 45 46 46 47 49 50 52 54 55 57 58
42 41 42 43 43 41 40 39 36 36 33 28 30 33 34 33 27 25 27 30 32 32 35 34 34 36 38 37 38 38 40 41 43 44 44 45 46 48 50 52 53 55 56
42 42 42 42 41 39 39 38 37 35 34 30 28 28 29 29 30 30 25 24 26 27 31 28 33 32 36 38 36 34 38 40 43 43 41 42 45 46 48 50 52 54 55
42 43 42 41 40 38 38 37 37 35 33 32 30 29 28 28 26 28 27 25 23 24 24 28 31 31 32 35 33 36 37 38 44 42 41 40 42 44 47 48 50 53 53
42 42 42 40 36 37 37 37 36 35 33 31 33 30 33 32 31 30 28 24 27 23 24 26 27 28 24 29 32 34 34 36 37 41 40 39 40 42 44 47 48 49 52
41 42 42 38 37 37 37 37 37 36 36 35 34 32 30 31 34 33 29 29 26 23 23 24 23 25 26 27 31 35 32 36 35 37 40 39 39 41 42 45 46 46 49
38 40 41 38 37 37 36 36 35 36 36 34 33 34 32 31 31 29 29 28 27 24 21 20 21 23 23 25 28 30 32 34 35 35 40 39 38 37 40 41 44 44 45
37 39 40 38 37 37 36 35 34 34 33 32 31 32 29 28 28 29 28 28 26 24 21 18 16 18 20 17 24 27 27 33 33 35 38 39 38 37 38 40 41 44 43
35 37 37 37 36 35 35 36 33 30 29 30 30 28 27 27 25 24 24 22 20 19 17 17 17 18 20 22 22 24 24 28 30 33 34 35 38 37 38 39 39 42 43
36 36 36 36 35 35 37 33 29 28 28 28 26 26 26 23 24 24 22 21 20 19 18 15 16 17 21 22 23 25 23 24 24 29 29 30 34 37 38 38 39 39 41
37 37 35 35 37 37 30 29 28 27 25 26 26 26 25 25 23 21 21 19 19 18 19 17 17 18 18 19 25 24 24 26 23 26 28 29 32 36 38 38 38 39 40
37 37 37 38 35 30 28 26 25 26 27 27 27 26 24 22 20 19 19 20 18 21 20 19 18 17 18 19 21 23 23 23 23 20 23 25 29 34 37 37 38 38 40
37 37 35 33 30 28 24 28 28 27 26 24 22 19 18 20 22 21 19 19 19 19 19 20 17 15 15 16 16 19 22 24 28 24 22 22 24 29 34 35 37 37 39
35 36 32 28 27 25 30 29 28 23 20 17 16 16 16 18 18 21 21 22 22 23 24 20 18 21 20 19 19 18 24 22 20 25 23 22 24 24 28 30 31 34 38
35 34 29 26 26 25 24 25 24 22 19 17 16 15 15 14 18 17 19 22 24 23 23 24 23 19 17 17 19 23 23 24 22 26 23 21 26 25 26 24 29 31 36
33 32 27 26 24 19 22 22 22 19 18 17 16 16 16 16 17 19 24 21 19 17 19 21 24 23 21 21 21 24 25 23 23 23 23 23 25 27 28 28 28 30 33
30 28 26 24 20 19 20 21 21 21 20 19 18 17 17 16 20 24 21 21 17 16 19 21 24 25 26 26 26 24 24 23 23 17 19 22 24 26 28 29 31 28 32
27 26 23 22 21 21 19 20 21 23 23 21 19 16 17 18 21 20 20 21 19 18 17 19 20 22 24 24 26 24 21 24 22 25 21 23 21 22 24 30 29 30 31

GFSMA_sfc_dewp_024.txt.gz
Dewpoint
61 57 57 54 53 52 50 50 49 47 46 45 45 44 42 42 42 37 37 53 52 52 53 54 54 53 53 53 54 57 58 58 58 59 61 61 62 62 63 63 63 63 63
59 57 55 52 52 50 49 48 47 44 43 43 42 43 43 41 42 42 38 40 49 47 48 48 49 50 49 49 49 50 52 55 57 58 59 62 62 62 62 62 63 63 63
57 55 53 52 51 50 49 46 46 43 42 40 40 40 39 41 39 41 41 40 42 47 45 45 45 45 46 46 46 47 48 49 52 56 57 59 61 62 62 62 62 62 61
55 53 51 50 49 47 45 43 43 41 40 40 41 39 39 40 40 39 40 43 40 38 42 43 42 42 42 43 44 45 46 48 48 51 54 57 58 60 61 61 62 62 61
51 49 48 48 47 44 44 42 42 43 42 41 39 37 37 36 35 27 37 42 42 40 38 44 43 42 40 41 43 44 45 46 48 49 51 52 55 57 58 61 61 61 61
48 47 46 46 44 43 44 45 45 43 41 39 34 28 32 32 32 34 38 37 35 38 38 39 37 35 42 39 41 42 46 46 47 48 49 50 51 53 55 57 59 61 61
45 45 43 45 46 43 45 44 40 39 36 38 37 31 30 31 37 37 36 35 37 36 37 35 35 34 34 40 38 40 44 46 46 46 47 48 49 50 52 54 56 58 60
43 43 44 42 43 39 42 43 42 38 35 35 35 31 26 26 26 33 31 33 34 34 33 34 35 35 35 34 37 41 41 44 45 45 45 46 46 48 49 51 54 56 58
42 42 42 41 40 39 36 41 40 38 34 31 32 30 28 24 26 26 29 27 33 30 32 31 33 32 34 34 35 37 39 39 42 43 44 44 45 46 47 48 51 53 56
40 38 40 42 42 40 40 39 34 36 34 29 29 26 31 30 25 25 25 27 27 26 30 27 29 29 30 30 36 40 37 38 37 41 43 43 43 44 46 46 48 52 53
41 41 41 43 43 42 40 38 36 35 32 31 29 27 28 26 27 24 21 22 22 22 24 25 25 26 27 28 29 34 37 37 36 40 43 42 41 42 44 45 48 48 52
37 39 40 43 43 41 39 37 38 36 35 32 28 28 26 25 23 23 22 21 21 20 22 23 25 25 25 26 26 35 37 38 37 35 38 42 41 40 41 43 46 47 48
32 34 37 37 38 40 38 39 37 37 35 31 30 28 28 26 25 24 23 21 21 20 20 22 22 22 20 25 25 33 33 35 36 36 34 35 40 40 39 41 44 47 48
30 32 34 36 39 39 39 37 36 36 36 34 32 30 27 26 25 24 23 25 24 20 20 22 20 21 21 21 26 31 25 32 36 38 35 34 38 39 38 38 40 43 46
27 31 34 35 37 38 39 37 35 36 36 35 32 30 28 26 26 25 25 24 27 27 21 20 19 21 20 21 23 24 25 29 33 35 35 34 37 39 38 38 39 40 43
31 31 32 33 35 36 37 36 34 35 34 32 27 29 29 26 25 25 23 23 23 24 23 18 17 19 20 16 21 23 23 29 29 31 35 35 39 39 38 37 38 39 42
32 31 32 33 33 33 34 35 36 35 32 29 29 30 29 28 25 24 24 22 21 19 18 18 17 19 21 21 20 24 24 24 24 30 35 33 34 34 37 37 37 39 40
32 32 33 33 32 33 37 38 34 29 28 28 28 28 28 23 25 24 22 21 19 19 18 18 18 18 19 21 21 23 18 20 22 25 33 30 29 32 38 38 38 39 39
31 32 32 33 32 35 35 33 31 29 28 28 28 28 26 25 23 21 20 19 18 18 20 20 18 19 19 20 19 22 22 25 20 28 31 30 30 30 34 38 38 38 39
32 32 33 33 34 32 32 30 27 30 29 27 27 26 23 20 20 20 18 19 18 20 20 19 18 17 19 18 18 19 20 22 23 23 26 26 28 29 31 38 39 38 38
32 32 32 33 33 31 28 30 28 28 26 24 22 19 19 20 20 20 18 19 19 19 19 19 19 19 17 18 19 20 19 18 21 24 29 26 22 22 28 36 35 37 36
31 31 31 32 31 25 28 27 26 24 23 19 18 17 18 19 19 20 21 21 21 21 22 21 21 19 19 17 17 18 20 20 20 24 33 26 27 21 21 25 31 30 33
32 31 32 31 29 29 23 23 23 21 20 19 18 17 16 14 19 17 19 21 24 24 26 25 21 22 23 21 22 20 21 20 23 23 27 25 26 26 24 19 29 29 31
30 30 31 29 29 24 22 21 22 22 21 20 19 19 18 17 17 19 20 20 18 18 15 17 20 20 20 22 22 23 23 21 22 20 21 23 25 26 27 27 30 28 31
29 29 29 29 28 25 21 20 21 23 23 21 19 19 17 16 19 21 19 18 16 15 19 20 21 22 23 26 25 25 23 20 23 21 19 22 24 24 25 29 31 30 31
27 26 27 28 24 25 21 19 21 25 27 23 21 18 16 18 19 19 20 20 20 18 16 17 18 19 21 22 26 26 23 21 20 22 23 21 20 21 24 28 28 31 31

GFSMA_sfc_dewp_027.txt.gz
Dewpoint
62 57 57 53 53 51 51 51 50 49 48 47 46 45 44 45 44 41 41 53 52 50 49 50 51 51 51 50 50 51 53 55 57 58 58 60 62 62 62 62 62 63 63
62 59 58 56 55 52 52 50 49 47 47 46 44 45 43 42 42 43 40 42 51 49 48 47 47 48 49 48 47 48 49 50 52 54 56 58 60 61 62 62 62 62 62
59 57 56 56 54 51 53 51 50 46 43 42 42 42 41 41 39 42 40 38 42 50 47 45 44 44 44 45 46 46 46 47 49 50 52 54 57 58 60 61 62 62 62
56 56 54 51 51 49 46 45 44 43 43 43 42 41 39 36 37 38 34 35 39 39 45 43 41 41 41 42 43 45 46 46 46 48 50 51 53 54 56 58 59 61 61
53 51 49 49 49 46 46 46 46 46 44 42 37 35 37 31 33 28 33 35 41 39 37 43 46 45 39 40 41 43 44 46 47 47 48 49 51 52 53 54 57 58 61
49 49 48 48 48 46 46 46 46 43 40 37 30 33 37 32 33 33 37 35 37 37 37 39 36 35 45 40 40 42 43 45 46 46 46 47 48 49 51 51 53 55 58
46 47 45 46 46 45 44 45 43 41 36 36 33 33 32 35 36 30 31 34 33 33 34 34 34 33 33 42 38 39 43 43 45 45 45 45 45 46 47 49 50 52 55
45 43 46 44 43 40 40 39 41 38 36 35 32 30 28 27 27 31 30 30 33 28 31 30 32 32 32 31 35 39 42 43 43 42 42 44 44 44 45 46 48 49 51
42 42 42 41 41 39 37 39 39 39 34 34 35 30 27 24 26 26 29 27 34 30 31 28 29 28 31 30 32 34 39 38 39 40 40 42 43 42 43 44 46 47 49
41 38 37 40 42 40 40 39 35 37 37 33 33 30 32 29 24 23 24 27 28 26 31 27 26 26 26 27 33 37 37 37 35 37 39 42 42 42 42 42 44 46 47
38 37 39 40 41 40 40 40 39 38 37 35 33 30 28 26 26 24 24 23 22 23 24 26 26 25 25 26 28 32 37 38 34 34 36 38 41 43 41 41 42 44 45
34 34 33 37 37 37 39 38 39 39 39 36 34 29 27 26 24 25 24 23 23 22 22 25 28 27 27 27 27 35 36 38 33 32 33 34 37 38 41 41 40 41 44
29 31 33 34 33 35 37 38 40 41 37 36 35 31 30 29 28 25 24 22 24 22 23 26 26 26 20 28 27 35 31 34 34 33 31 33 35 36 37 39 39 39 40
29 31 32 32 33 35 36 40 39 37 39 39 38 36 33 31 29 28 24 27 25 22 22 23 25 26 25 25 28 33 24 32 32 33 34 33 35 35 35 37 38 38 38
27 30 32 32 32 33 35 38 37 37 37 38 39 38 33 31 32 30 27 26 27 27 23 22 23 24 24 25 27 28 28 29 31 32 32 31 31 33 33 37 38 37 38
31 32 32 31 32 33 33 34 34 35 36 37 35 33 31 32 31 30 26 26 22 24 22 20 19 22 23 18 24 27 26 31 30 32 33 32 33 33 34 37 38 37 38
31 31 30 30 30 30 31 34 37 37 36 36 32 30 32 31 29 28 28 23 23 22 20 20 19 22 22 23 22 24 25 26 26 30 31 33 34 36 35 33 36 37 38
32 31 29 29 29 29 31 35 33 36 34 32 31 30 29 25 28 24 22 21 21 20 20 18 19 21 22 22 23 24 20 18 23 27 32 31 34 34 34 33 37 39 39
31 31 29 30 29 30 29 31 33 31 30 30 30 29 27 25 22 21 21 20 19 16 20 21 20 22 21 20 21 22 22 22 19 27 30 32 34 33 33 33 35 37 39
31 30 30 30 31 30 29 29 28 30 31 29 28 26 23 21 21 21 18 19 18 18 18 19 18 20 19 22 23 22 23 24 21 15 22 28 33 33 33 33 34 36 39
30 30 29 29 31 30 27 30 28 27 27 25 24 20 21 20 19 21 18 18 19 18 18 18 19 20 21 19 19 21 22 21 20 23 25 28 31 32 29 32 30 36 36
28 29 29 29 31 26 28 27 25 25 24 21 20 20 19 22 22 23 22 21 21 20 22 23 20 17 16 19 24 25 23 21 17 25 28 31 31 34 27 28 34 32 30
30 30 29 30 31 30 26 24 23 22 23 22 21 20 18 14 21 19 21 21 21 24 24 23 22 22 24 20 20 22 22 23 22 23 25 27 30 30 26 21 30 30 31
30 29 29 30 30 27 25 23 23 23 23 23 22 21 20 19 19 20 19 18 16 15 16 14 19 19 19 19 19 21 22 20 22 22 22 24 27 28 30 28 30 32 31
29 29 28 29 30 28 25 22 21 24 24 23 22 21 19 17 20 20 18 18 16 15 17 21 19 22 24 25 25 25 26 23 24 20 24 28 27 27 29 30 31 30 32
27 26 26 29 27 28 24 23 21 26 26 25 23 20 20 17 19 18 19 19 18 16 13 14 18 20 21 22 26 25 27 26 24 22 25 28 22 22 24 30 31 33 34

GFSMA_sfc_dewp_033.txt.gz
Dewpoint
59 58 56 55 53 52 51 49 48 45 45 46 46 46 45 45 41 41 43 54 54 50 49 50 49 47 47 46 46 47 48 49 49 51 51 52 53 54 55 56 58 60 61
57 56 54 52 51 49 48 47 47 46 47 46 45 45 43 41 35 35 39 41 54 53 50 48 46 45 45 44 44 44 45 46 47 48 49 49 51 51 53 53 54 56 58
55 54 52 51 49 49 48 47 48 47 46 46 45 41 40 36 36 37 35 36 48 53 52 46 42 42 43 42 43 43 43 44 45 45 48 49 48 49 49 50 51 53 54
52 52 51 50 50 51 47 48 47 46 44 42 40 37 38 36 36 33 33 35 39 45 51 48 43 42 42 42 43 42 42 43 43 48 48 48 47 47 47 48 49 49 51
53 51 50 48 49 49 48 46 46 45 41 39 36 34 37 36 33 34 32 33 36 37 44 49 43 43 39 40 41 42 43 42 45 45 45 45 44 44 44 45 46 47 48
51 50 48 48 47 46 44 43 42 42 40 39 36 36 34 34 34 34 31 31 33 34 36 34 36 35 42 37 38 39 41 42 43 43 42 42 43 42 43 44 44 45 46
48 48 47 45 43 42 40 41 40 39 39 39 36 35 34 34 31 30 31 31 32 31 31 31 32 33 33 38 35 35 37 37 38 38 39 39 40 40 41 43 45 44 44
47 45 44 42 42 41 41 41 39 39 38 37 33 35 31 32 32 29 30 30 30 30 30 27 30 30 31 31 30 30 32 35 35 35 36 35 36 37 38 40 43 45 44
44 44 43 42 42 42 41 40 40 37 35 36 36 34 31 29 29 28 27 29 28 28 28 29 29 28 29 30 31 32 37 37 36 34 34 34 34 35 36 37 39 43 45
42 39 41 42 42 42 40 41 40 38 36 35 36 35 34 33 27 26 27 27 27 26 27 28 29 28 28 30 33 36 40 39 31 32 33 34 34 35 35 36 36 40 42
42 38 38 36 36 38 37 37 38 39 38 36 35 35 33 32 29 26 25 25 27 27 27 27 27 28 28 29 28 30 39 38 35 31 30 32 33 33 34 34 36 37 40
38 36 35 35 35 35 36 37 37 39 37 36 37 37 34 32 29 27 26 26 26 27 27 27 27 28 29 28 28 36 37 37 36 30 30 31 32 33 33 34 34 37 38
35 33 34 35 34 34 35 36 37 38 38 37 37 36 36 35 33 32 33 33 27 27 27 27 27 28 27 27 29 33 32 35 34 31 30 31 32 32 33 33 33 35 38
35 34 35 33 33 34 34 35 36 37 38 38 36 36 37 37 36 35 36 33 29 27 27 25 27 28 28 28 28 31 27 33 34 34 30 30 30 31 31 31 32 33 34
33 34 33 32 32 33 33 33 36 36 36 36 36 37 37 38 38 38 35 33 31 28 26 24 23 24 25 25 26 26 26 28 33 32 31 29 28 29 29 30 31 32 33
33 33 33 33 32 32 33 34 35 34 35 36 36 35 35 36 37 37 34 31 29 27 23 22 21 21 23 22 24 25 25 28 29 31 31 32 32 30 28 30 31 31 32
33 32 33 32 30 31 32 32 32 32 33 34 34 34 34 34 33 31 28 25 23 22 19 20 21 22 21 22 22 24 25 24 24 29 31 31 32 32 33 33 33 32 33
34 33 34 31 31 31 32 33 32 32 32 32 32 31 31 27 25 24 23 20 20 20 19 18 19 20 20 22 22 22 22 21 23 26 31 31 31 31 31 32 34 35 35
34 34 32 31 31 32 31 32 31 31 32 31 31 30 29 26 21 21 19 19 19 18 20 19 18 20 20 21 20 22 23 24 23 27 27 29 29 31 32 33 33 35 35
33 32 31 32 33 33 31 31 31 30 29 28 28 28 27 22 20 18 17 17 18 19 19 19 18 18 19 20 22 20 23 24 24 21 24 27 29 30 29 31 33 33 34
32 32 32 32 34 33 30 30 28 27 26 25 26 25 23 23 25 21 17 18 20 19 20 19 18 18 19 20 20 25 21 19 19 21 22 24 25 26 28 30 32 33 36
33 33 32 33 32 28 33 31 27 24 24 24 23 23 22 24 26 26 24 23 21 20 19 18 19 18 19 23 23 20 18 17 16 21 23 22 24 24 26 30 32 32 36
30 31 32 32 32 30 31 30 28 23 23 23 24 23 21 22 23 20 20 20 19 19 22 20 18 19 17 17 18 19 19 20 20 20 22 22 24 23 25 25 29 33 33
32 32 32 32 33 29 32 31 27 22 22 24 24 23 22 21 21 20 20 18 18 18 18 17 18 17 17 19 20 21 22 22 23 23 24 23 24 23 26 27 30 31 33
30 31 32 31 31 29 31 30 25 23 24 24 25 24 24 20 21 20 19 18 18 18 18 20 20 22 23 24 24 26 25 24 22 22 24 25 23 24 24 24 27 31 33
28 30 29 30 31 29 31 29 26 25 25 26 25 23 23 20 20 19 20 18 17 16 18 17 18 20 22 23 26 24 24 23 22 22 23 27 24 23 20 24 27 29 30

GFSMA_sfc_dewp_036.txt.gz
Dewpoint
57 56 55 52 51 50 48 47 46 46 47 45 45 43 42 37 35 36 40 49 52 49 48 50 48 47 46 46 46 46 47 47 47 48 49 50 50 50 50 51 52 54 55
55 54 51 50 48 47 47 47 47 46 46 44 43 41 37 36 36 35 35 36 49 52 50 48 45 45 43 43 44 44 43 45 44 47 49 49 48 48 48 48 49 50 51
54 52 50 49 49 48 47 47 47 45 43 40 38 38 38 36 35 33 35 36 42 53 52 44 43 43 41 41 42 42 42 43 43 49 48 47 47 45 46 46 47 48 48
52 51 49 49 50 49 48 47 45 43 40 39 36 34 37 34 33 32 32 34 38 47 49 45 43 42 41 43 42 42 42 42 42 43 44 42 44 44 44 44 45 46 47
52 50 48 49 48 47 46 45 45 42 39 38 37 36 34 34 34 31 30 32 34 39 37 42 40 40 36 36 37 38 39 39 41 41 43 42 42 41 42 43 43 45 45
51 49 48 47 45 42 41 40 39 39 39 38 35 33 34 33 32 31 31 32 30 31 32 31 32 34 42 36 36 35 36 38 37 37 38 37 37 39 40 40 41 42 45
50 47 44 43 42 40 41 40 39 38 38 36 34 34 35 33 31 29 31 30 29 29 29 29 30 32 32 38 35 34 35 36 37 36 35 35 35 35 37 38 38 40 41
46 45 43 41 41 41 40 40 38 38 38 36 33 34 30 32 32 29 29 30 27 28 28 28 28 27 29 30 34 36 36 35 33 34 35 34 33 34 35 36 37 38 39
45 43 42 42 42 41 40 40 38 36 35 36 36 33 30 28 30 29 27 27 27 27 27 28 27 27 27 28 31 33 34 36 35 33 33 33 34 34 35 36 36 36 37
43 42 42 43 42 40 38 39 39 38 36 34 36 35 33 33 29 27 27 27 27 26 27 27 27 27 27 28 30 32 37 38 33 31 30 32 33 34 34 35 35 36 36
40 39 38 36 37 37 36 35 36 36 38 36 35 34 34 33 30 28 26 25 27 28 27 27 27 28 27 28 28 29 37 39 38 31 32 32 32 34 34 35 35 35 35
38 36 35 35 35 35 35 36 36 38 37 36 36 36 35 33 31 29 27 27 27 29 27 28 27 28 29 29 30 34 37 35 31 29 31 32 32 33 34 34 35 35 36
36 35 35 35 35 35 34 34 34 35 36 36 36 36 36 36 34 32 31 33 30 28 28 27 27 28 27 29 29 31 30 33 30 29 30 31 31 32 32 33 34 34 35
35 35 35 35 34 34 33 33 35 37 36 36 34 35 36 36 36 35 36 35 31 27 27 27 27 27 26 27 28 29 27 28 28 29 29 29 29 29 30 30 31 32 33
35 36 34 33 34 33 32 33 36 35 34 35 35 34 35 36 37 37 38 38 34 27 25 25 22 23 24 24 25 26 24 27 28 28 28 28 28 29 29 30 31 31 32
36 34 34 33 33 31 32 34 35 33 34 34 35 33 33 35 37 37 36 34 31 28 22 21 20 21 22 20 22 23 24 26 27 28 29 29 29 29 29 30 30 30 31
35 34 35 33 31 30 31 34 33 33 32 33 33 34 33 34 33 31 27 25 22 21 18 19 20 21 20 21 21 23 24 23 25 27 28 28 31 30 31 30 29 29 30
36 35 35 33 31 31 31 32 33 32 31 32 31 30 30 28 26 24 22 20 19 20 19 17 18 18 19 20 21 22 21 21 24 25 26 27 26 27 31 31 32 32 32
34 34 34 31 31 32 32 33 32 32 32 33 31 29 29 29 22 23 20 19 19 18 19 19 18 19 19 20 20 22 22 22 24 24 22 23 23 26 28 28 29 30 32
34 34 32 32 33 33 33 32 31 32 31 29 27 26 25 24 22 20 18 17 18 18 19 19 19 18 18 19 21 21 22 22 20 17 20 22 25 27 27 27 27 28 31
33 33 32 33 33 33 32 32 31 29 27 26 26 24 23 23 25 22 18 18 19 19 19 19 18 18 18 18 20 22 22 18 18 20 19 22 25 23 25 27 27 28 31
32 32 32 33 33 31 32 34 30 27 25 24 22 24 23 24 26 27 25 24 21 19 18 17 18 17 17 18 21 18 18 18 17 20 22 22 23 23 25 27 28 29 31
33 33 32 33 33 33 33 33 31 25 24 23 23 24 22 22 24 21 22 20 19 19 21 20 18 18 16 16 16 18 20 20 21 22 22 22 23 23 25 24 28 29 31
33 32 32 31 32 32 33 33 30 23 22 23 24 24 22 22 22 20 19 18 18 17 18 17 18 18 17 20 21 23 25 26 24 23 24 22 23 23 25 25 29 31 32
33 31 30 31 31 31 32 32 28 23 23 24 25 25 24 22 23 23 20 19 18 17 16 19 20 22 22 22 24 25 22 22 19 20 22 24 23 23 25 25 26 31 31
29 29 30 30 31 29 32 32 29 26 25 26 25 25 25 22 24 22 21 19 17 15 16 18 19 19 21 21 23 23 23 21 21 19 23 23 23 25 22 22 25 25 26

GFSMA_sfc_dewp_039.txt.gz
Dewpoint
55 56 53 51 50 48 47 47 47 46 45 42 41 37 36 36 35 35 37 46 50 49 45 50 48 47 46 46 46 45 45 46 46 49 48 48 48 47 48 48 48 49 50
55 51 50 48 47 48 48 47 46 43 41 39 39 38 36 35 33 33 35 39 50 53 51 48 45 44 43 43 43 43 43 43 47 48 48 47 46 45 45 46 46 47 48
53 50 49 48 48 48 47 46 44 41 39 37 35 37 35 33 32 32 34 36 48 53 50 45 44 44 44 43 42 42 42 43 42 43 43 43 42 43 43 44 45 45 46
51 50 49 49 49 48 46 45 43 40 39 38 35 35 36 33 32 31 32 36 43 43 44 41 39 37 36 38 39 40 41 41 43 43 43 42 41 41 41 42 42 43 44
51 49 49 48 46 45 44 44 42 40 37 37 35 34 34 32 31 30 30 30 33 32 31 37 40 41 39 35 36 37 38 39 39 40 39 39 39 38 38 39 40 40 42
50 49 47 45 42 41 40 39 37 39 39 37 34 33 34 33 31 30 30 29 28 28 29 29 32 34 38 35 32 34 36 37 38 38 38 37 36 36 36 37 38 39 39
49 46 44 42 41 40 39 38 39 37 37 36 33 34 34 33 30 29 30 28 27 27 28 28 28 28 30 35 35 33 34 35 36 36 35 35 35 35 35 35 36 37 38
46 43 42 41 41 41 40 39 38 38 37 36 33 33 29 31 32 30 29 29 26 27 27 28 27 26 27 28 33 32 31 33 34 35 35 35 34 35 35 35 36 36 37
45 43 42 41 41 41 40 39 37 36 35 36 36 33 30 28 30 31 28 28 27 27 27 27 26 26 26 26 29 31 33 33 31 32 33 33 33 34 35 35 36 36 37
44 42 42 42 41 39 38 39 38 37 36 35 36 35 33 32 30 28 28 28 28 27 27 27 27 27 27 27 30 32 34 38 33 31 32 33 34 35 35 35 35 36 37
42 42 39 37 37 38 37 36 35 36 37 36 35 34 33 33 31 30 29 28 27 29 29 28 28 28 27 27 28 30 35 37 34 33 34 34 34 34 35 35 34 35 36
38 37 35 37 37 37 36 35 36 37 37 36 36 35 34 33 32 31 28 28 27 29 30 29 28 28 29 29 29 34 33 32 31 30 31 32 33 34 35 35 35 35 35
36 35 36 37 37 36 35 35 34 34 36 36 36 36 36 35 35 33 31 30 31 32 30 29 29 28 25 27 28 30 30 30 29 30 30 32 32 33 33 33 33 34 35
36 36 37 37 37 35 34 34 35 37 36 35 35 35 35 35 35 35 34 34 31 31 29 28 29 25 25 25 26 28 26 27 27 28 29 29 29 29 30 31 32 32 33
35 36 37 36 35 35 33 34 37 35 35 35 34 34 35 36 37 38 38 38 34 30 28 26 22 22 23 23 23 23 23 25 26 26 28 28 29 29 29 30 31 31 32
36 37 35 35 35 34 34 34 35 34 35 35 35 34 34 35 35 36 35 34 35 31 24 23 20 21 21 19 21 22 23 26 26 27 27 27 28 29 30 30 30 30 30
35 34 35 34 35 33 32 33 34 33 33 33 34 34 33 33 34 34 30 27 23 21 19 19 20 20 19 19 20 22 23 23 24 26 27 27 27 28 27 28 29 30 30
35 35 37 36 34 32 31 33 33 32 32 31 31 32 32 31 31 27 24 22 20 20 19 16 18 19 19 19 20 21 21 21 23 25 25 24 24 24 25 25 28 30 30
37 36 35 34 33 32 31 32 32 32 32 31 32 31 30 29 28 24 22 20 20 18 19 18 18 19 19 19 19 21 22 22 23 23 22 23 24 25 27 27 29 29 28
36 35 35 34 34 32 32 33 32 32 31 32 31 28 26 26 24 22 21 19 18 18 19 19 18 17 18 19 20 20 19 21 18 17 21 23 24 26 27 27 28 29 29
35 35 34 33 33 33 32 33 32 32 31 28 28 26 25 24 25 22 19 18 18 19 19 18 17 16 17 17 19 18 18 17 18 20 20 20 23 23 24 26 27 29 29
33 35 37 35 33 32 33 35 33 30 28 27 25 23 23 26 27 30 27 24 22 19 18 16 16 16 16 18 18 17 17 18 17 21 22 22 24 23 25 26 28 29 30
37 38 36 33 31 32 34 34 34 28 26 25 23 22 23 21 25 25 28 25 22 21 22 18 17 17 17 16 17 19 20 21 21 22 23 21 22 22 23 23 28 29 30
38 33 32 30 31 30 33 34 33 25 24 24 23 24 23 22 24 21 20 19 18 18 17 15 17 18 18 19 20 21 24 24 22 22 22 20 22 23 24 25 28 29 30
32 31 30 29 29 29 32 33 31 24 24 23 24 25 24 23 25 26 21 20 19 19 17 19 21 21 22 21 21 20 20 20 17 17 21 22 21 21 23 25 26 28 30
32 29 28 29 30 29 31 33 32 25 24 25 24 25 28 25 25 26 23 20 19 18 15 16 19 19 19 20 21 21 21 19 18 17 22 20 20 24 22 23 23 24 25

GFSMA_sfc_dewp_042.txt.gz
Dewpoint
56 55 53 50 48 47 47 47 46 42 41 40 39 37 36 36 36 36 38 48 51 49 46 51 48 47 46 45 45 45 45 45 48 48 47 46 46 46 45 46 46 47 47
55 51 49 48 47 48 47 45 43 41 39 38 38 36 35 33 33 35 38 46 55 54 51 48 45 45 44 43 41 42 42 44 45 45 45 45 43 43 43 44 44 45 46
51 49 48 47 48 47 45 44 41 40 38 36 37 36 34 33 33 36 39 45 46 49 48 46 46 45 44 45 44 43 43 41 42 42 43 43 42 40 40 41 42 42 43
50 48 48 48 48 47 45 43 41 39 38 36 36 35 34 33 32 33 35 38 39 34 39 41 41 40 37 37 37 38 39 39 40 39 40 40 40 39 38 39 40 40 41
50 49 49 48 47 45 44 43 41 39 37 37 34 34 34 32 32 30 30 32 33 32 31 37 40 42 37 35 35 35 36 38 38 39 39 39 37 37 36 36 37 38 39
49 49 47 46 43 41 41 39 38 39 38 37 33 34 35 33 32 32 30 29 30 30 31 32 33 35 38 38 36 36 36 37 38 37 37 37 36 36 35 35 35 36 37
49 47 45 42 41 39 38 38 39 37 36 36 34 34 34 34 32 31 31 29 30 29 31 30 30 29 29 34 34 33 34 34 35 36 36 37 37 37 36 36 36 36 36
48 45 42 41 41 40 39 38 38 38 37 36 34 33 30 31 33 32 30 30 29 29 29 30 30 30 29 28 33 32 31 32 34 34 34 35 35 35 36 36 36 36 36
45 43 42 41 41 40 39 38 37 36 35 36 36 33 29 28 30 32 30 30 29 29 29 29 29 29 30 29 30 32 35 34 33 34 34 34 35 35 35 36 37 37 36
44 42 42 41 41 40 39 38 38 37 36 34 36 35 34 33 31 30 30 29 30 30 30 29 30 29 29 30 31 33 34 37 36 33 34 34 34 35 35 35 36 36 36
43 42 42 38 37 37 36 36 36 38 37 36 35 34 34 33 32 30 29 30 29 30 30 30 30 30 29 29 30 33 34 33 32 33 33 34 34 34 35 35 36 36 36
41 39 37 37 36 37 36 36 39 37 37 36 36 36 35 33 32 32 30 30 28 29 31 32 31 30 29 28 28 32 32 31 31 32 33 34 35 35 36 36 36 37 37
37 36 36 36 36 37 37 38 35 34 35 36 36 36 36 36 36 34 32 32 30 32 32 32 30 27 24 27 27 28 28 28 29 30 31 32 32 33 34 34 34 34 35
36 36 36 38 38 40 39 35 35 37 37 36 35 35 35 35 35 35 34 34 30 30 31 30 30 25 25 25 24 25 24 26 26 27 28 29 30 30 31 31 32 33 34
37 37 38 40 42 39 36 35 36 37 36 35 35 34 34 34 36 37 37 37 33 28 28 29 28 24 23 23 23 24 23 25 27 27 27 28 29 29 30 31 31 32 33
37 37 38 41 37 36 35 35 35 35 34 35 35 34 34 35 35 35 35 35 34 31 27 27 23 22 21 19 22 22 22 26 26 27 27 27 28 28 28 29 30 29 30
36 37 39 36 36 35 34 34 34 34 34 34 34 33 33 33 33 34 33 32 30 29 25 20 21 20 19 19 20 21 23 22 23 26 26 26 26 26 26 26 27 28 28
37 36 36 36 35 34 34 33 33 34 33 32 32 33 33 33 32 32 30 26 23 21 19 17 18 19 19 19 20 20 19 20 22 24 26 25 24 25 26 26 26 27 28
38 39 37 37 37 37 33 32 34 33 33 32 31 31 31 30 28 27 24 23 21 19 19 18 18 19 20 19 18 20 20 21 21 23 22 23 25 26 27 27 28 29 29
37 37 38 37 36 33 34 33 32 32 32 32 32 32 31 29 27 26 23 22 20 18 18 18 19 18 18 18 19 19 18 17 17 18 21 23 25 26 27 27 28 29 29
36 35 37 39 40 37 33 34 33 32 31 31 31 30 28 27 28 26 21 20 18 18 19 19 17 16 14 15 14 18 17 18 19 20 20 20 23 23 24 26 27 28 29
39 40 40 39 39 38 36 35 34 32 31 30 29 27 25 28 30 31 30 26 21 20 20 17 16 15 13 15 19 17 17 18 15 21 22 22 23 23 24 26 26 27 28
40 40 39 39 37 33 33 34 35 32 30 28 27 25 23 22 27 23 28 29 27 25 22 20 17 15 16 17 17 18 19 20 20 21 22 20 21 22 22 22 26 28 29
39 38 36 33 31 30 33 34 34 31 28 27 25 24 23 23 24 24 24 24 21 19 20 19 17 16 18 19 19 19 21 21 20 20 20 18 21 22 23 23 26 28 29
37 34 32 30 29 29 32 32 32 29 26 25 24 24 24 24 27 28 23 21 19 18 21 23 21 22 22 22 22 21 18 18 17 15 18 20 22 21 22 24 27 28 29
32 32 29 29 30 30 31 32 33 28 26 26 25 25 28 26 27 28 26 22 20 19 19 15 16 18 21 20 22 20 19 18 17 15 21 19 18 21 20 25 26 28 29

GFSMA_sfc_dewp_045.txt.gz
Dewpoint
59 57 55 52 50 50 49 47 46 43 43 42 40 39 38 38 38 37 41 53 51 49 50 51 49 48 46 45 44 43 44 46 43 45 45 45 43 43 43 44 44 44 45
59 56 52 50 50 49 48 46 44 43 41 40 39 38 37 36 38 43 46 49 54 54 52 48 47 45 44 43 41 44 43 43 42 43 43 44 42 41 41 41 41 43 43
58 55 51 50 50 49 48 46 44 42 39 37 38 36 35 37 38 44 46 46 45 49 48 47 47 45 44 44 41 40 41 41 41 40 41 42 42 41 40 39 39 40 41
55 53 50 50 50 49 47 45 43 41 39 39 38 37 36 34 38 42 44 42 38 37 41 42 41 39 37 36 36 37 38 39 39 40 40 40 39 39 38 37 37 38 39
53 52 50 51 51 48 47 44 43 42 40 38 36 37 37 34 34 31 35 36 36 34 32 37 39 39 37 35 34 35 36 37 38 39 39 39 39 38 37 37 36 36 36
53 52 51 51 48 46 44 42 43 42 40 40 32 36 39 34 33 34 32 29 33 34 33 34 32 31 36 35 35 34 34 36 37 37 37 37 38 38 38 37 37 37 37
52 52 50 48 46 45 43 44 43 42 39 41 37 37 37 36 35 33 32 32 32 31 33 31 29 28 27 31 32 32 33 34 34 36 36 36 36 37 37 37 37 37 38
52 50 48 46 45 43 45 44 44 41 41 41 36 35 31 32 34 35 32 32 36 30 30 31 32 31 30 28 30 34 34 35 36 36 36 36 36 36 37 37 36 37 38
50 48 47 46 45 44 43 44 43 40 36 40 41 35 28 25 33 35 36 34 35 32 33 34 33 30 31 30 30 31 34 36 37 37 36 36 36 37 37 36 37 37 37
48 45 45 46 45 44 44 43 40 40 39 35 39 37 39 36 29 28 34 34 35 34 35 35 32 32 32 31 31 32 35 36 35 35 36 35 36 36 36 36 36 37 37
47 45 45 45 45 43 42 41 41 40 40 39 36 38 38 37 37 32 26 29 30 30 32 34 35 34 33 30 31 32 33 33 32 34 35 36 36 36 36 36 36 36 37
46 45 44 44 43 40 40 39 41 41 41 39 38 38 35 32 31 32 29 27 27 29 32 33 35 34 32 29 24 28 29 29 29 30 32 33 34 35 36 36 36 37 37
46 45 43 42 39 39 39 40 42 41 39 40 39 37 38 37 35 32 30 28 28 28 30 33 34 32 29 32 27 26 26 26 27 28 29 30 31 32 33 34 34 35 35
47 45 41 39 39 41 41 43 41 38 39 39 40 39 38 36 35 33 31 31 29 25 26 31 32 32 29 27 24 26 22 24 25 26 28 29 30 30 31 31 32 33 34
44 43 40 41 42 41 44 40 38 38 39 40 41 41 39 36 36 35 34 35 34 29 23 24 27 31 28 26 23 25 23 22 25 27 27 28 29 29 30 30 30 31 32
43 42 40 41 42 44 40 39 37 38 39 39 38 38 37 36 36 37 36 35 33 32 26 23 24 26 25 18 21 24 21 23 23 25 27 27 28 29 29 29 29 30 30
42 39 40 43 43 39 38 37 38 38 37 37 37 37 36 36 35 35 35 34 32 31 29 25 23 23 23 22 21 21 18 18 19 23 25 26 26 27 26 26 27 28 28
42 41 42 41 39 38 36 39 38 35 35 36 36 36 35 33 36 35 34 33 31 30 27 23 21 20 21 22 22 20 14 14 19 20 23 25 25 25 26 27 28 28 29
41 40 39 38 38 38 39 38 39 36 35 35 36 35 35 35 34 33 33 31 29 25 25 22 20 20 20 20 18 16 14 19 14 20 21 22 23 26 27 27 27 28 29
39 39 40 40 39 37 39 38 35 34 34 34 35 35 34 34 33 33 31 29 27 24 22 20 19 18 19 18 17 12 13 14 14 14 19 21 24 25 25 25 27 28 29
38 38 39 40 41 41 39 38 38 37 37 35 35 34 35 35 35 33 27 27 25 23 21 20 18 18 17 16 12 12 14 14 16 17 18 18 18 19 21 23 24 26 27
39 40 40 40 41 40 39 38 38 37 33 32 33 34 34 33 33 32 32 30 25 24 24 21 20 18 17 17 14 14 15 15 13 17 18 18 17 18 20 23 24 26 27
41 41 41 41 40 40 37 36 35 32 33 33 33 32 31 27 29 27 29 31 30 27 25 24 23 20 21 16 13 15 16 16 16 16 17 17 18 19 21 18 24 26 28
40 40 40 40 39 36 34 34 34 33 32 32 32 32 32 30 27 26 25 30 26 25 25 22 21 21 20 15 17 18 20 19 16 15 16 18 19 21 21 22 25 26 29
40 39 38 36 34 33 33 32 32 32 31 31 30 30 29 28 28 29 32 29 24 23 24 25 24 24 23 22 23 21 21 18 19 14 16 19 19 19 20 23 25 26 26
34 33 32 33 33 32 33 33 32 33 33 32 31 29 29 28 29 30 32 30 27 23 21 20 20 21 21 21 23 21 19 20 18 17 15 18 16 17 18 21 24 25 27

GFSMA_sfc_dewp_048.txt.gz
Dewpoint
56 55 56 53 53 52 51 50 49 47 47 45 43 41 38 38 37 35 39 55 51 50 54 52 49 48 46 44 43 42 44 44 44 44 43 44 42 42 42 42 42 43 43
57 55 55 54 53 52 50 49 48 47 45 43 42 39 37 35 37 41 38 47 53 53 52 48 47 45 45 43 42 44 43 41 42 42 42 42 43 41 41 39 39 40 41
59 57 55 54 53 52 52 50 48 46 43 39 38 37 35 38 37 40 41 41 45 49 48 48 48 45 44 44 42 41 41 41 42 42 42 41 42 40 39 38 37 37 38
61 59 55 54 53 52 50 48 47 45 43 39 39 36 36 35 37 39 41 39 40 39 44 43 41 40 38 37 38 39 40 40 40 41 41 41 41 41 39 38 38 38 38
60 58 55 54 54 51 50 48 47 45 41 38 35 37 38 35 36 30 38 39 40 37 31 39 38 37 36 35 35 37 38 39 39 40 40 39 39 39 39 39 39 38 38
58 56 54 54 53 51 50 47 47 43 41 39 28 34 39 35 34 34 33 30 33 35 33 32 32 32 34 33 34 35 36 37 38 38 38 38 38 38 39 39 39 39 39
56 56 54 54 53 50 49 49 45 44 40 41 38 37 38 38 37 33 33 32 33 33 34 31 31 28 30 33 32 32 35 37 38 38 38 38 38 38 38 38 39 38 38
56 55 55 53 51 49 49 48 46 42 41 41 39 37 35 35 35 35 34 33 36 34 30 32 34 35 33 29 33 32 34 37 38 39 38 38 38 38 39 39 39 39 38
55 55 54 51 51 49 47 48 46 44 40 40 38 37 35 34 33 33 38 35 36 34 34 33 34 33 33 32 34 33 35 34 37 38 38 38 38 38 38 38 38 39 38
55 53 52 50 51 48 48 47 44 43 41 40 39 37 39 35 31 30 34 35 36 35 35 33 32 33 34 33 33 32 35 35 34 35 37 37 38 38 38 38 38 38 38
54 51 50 50 50 48 48 46 44 43 42 41 37 38 38 37 37 30 25 26 30 29 30 30 31 32 33 34 33 35 31 31 32 32 33 34 35 36 37 37 37 37 38
53 51 48 50 49 48 48 44 44 45 43 41 37 37 35 32 29 31 29 29 28 27 27 31 33 32 33 32 28 28 27 28 29 29 30 30 32 33 34 35 36 36 37
51 51 50 50 48 48 45 44 46 45 42 40 40 36 34 32 32 31 30 28 27 25 26 30 30 31 29 32 32 26 28 28 26 28 28 29 30 32 33 34 35 35 35
51 51 50 49 48 45 44 44 43 44 41 41 38 37 34 35 34 32 29 29 29 27 25 26 28 30 30 28 29 27 26 31 26 25 27 28 29 30 31 32 33 33 34
52 51 49 48 45 42 42 44 44 42 40 41 43 41 38 35 35 33 32 31 33 32 26 24 23 27 28 28 29 26 26 28 26 26 25 27 28 29 30 30 31 31 32
52 50 47 45 43 43 43 44 40 41 42 42 41 41 38 35 34 34 33 33 31 29 27 25 23 26 27 23 26 24 25 26 27 26 24 25 27 28 28 29 29 29 30
52 48 47 45 43 43 42 40 42 41 39 41 41 39 37 36 33 33 34 33 31 29 26 25 24 25 27 26 25 24 24 22 18 26 24 24 25 26 27 27 27 28 29
49 47 44 42 44 41 41 41 41 40 40 39 39 37 35 30 34 35 33 33 32 31 28 26 25 23 24 25 25 24 19 13 16 22 23 23 24 24 26 27 28 28 28
46 43 43 44 41 41 40 41 41 42 41 40 38 36 34 34 34 34 34 34 32 28 27 25 23 23 23 22 22 22 20 18 13 20 24 26 22 24 25 26 27 28 28
43 43 42 41 41 41 41 41 42 41 41 39 37 36 35 35 34 34 32 34 32 29 27 25 23 22 21 22 20 18 16 13 14 10 19 24 24 24 26 26 26 26 27
41 41 41 41 42 41 41 42 40 40 40 40 39 37 36 36 37 35 31 32 31 29 27 24 22 21 20 19 17 17 14 13 16 17 16 17 18 18 20 24 25 25 26
40 40 40 41 41 41 39 39 39 40 40 38 34 33 33 35 36 36 35 34 32 31 29 26 25 23 22 20 18 18 13 13 14 18 17 18 17 17 18 21 27 25 25
43 42 42 42 42 42 39 39 38 37 34 33 33 32 29 26 33 34 34 33 32 30 27 28 28 26 24 21 20 18 15 16 16 17 17 16 19 19 19 16 27 26 27
42 41 41 41 41 39 37 35 34 33 33 32 32 31 30 30 31 32 32 30 29 29 30 28 27 25 23 22 22 18 19 20 19 18 18 18 19 20 21 21 25 26 26
40 40 38 37 36 35 34 34 33 33 32 32 30 30 30 30 31 33 31 30 28 29 31 29 30 29 25 23 22 21 21 20 22 16 18 17 19 19 19 21 23 26 27
35 33 32 33 33 33 33 34 33 33 32 32 32 30 31 30 31 31 30 30 30 28 28 28 25 25 26 25 26 23 20 21 20 19 17 18 15 16 18 21 22 23 24

GFSMA_sfc_dewp_051.txt.gz
Dewpoint
60 56 56 54 54 53 53 52 52 50 49 47 44 41 38 38 38 35 46 55 49 48 55 53 51 49 47 45 42 42 44 44 44 44 44 44 45 43 43 42 41 41 42
60 55 56 54 54 53 53 52 50 50 48 46 43 39 38 36 38 40 37 48 55 54 54 50 49 47 46 44 43 44 43 43 43 43 43 43 43 43 42 40 40 39 40
59 58 57 55 54 54 54 53 52 49 47 42 40 38 36 38 37 39 38 43 47 52 51 49 49 46 44 44 42 42 41 41 41 42 42 42 42 42 42 41 40 39 39
58 58 56 56 55 55 53 52 50 49 46 42 40 37 37 36 37 38 39 38 38 42 48 47 44 40 38 36 38 40 40 39 39 40 41 42 42 41 41 41 41 40 40
61 62 57 56 57 54 53 52 51 50 46 41 38 38 40 37 36 29 38 39 39 35 33 46 42 37 34 32 33 36 38 39 40 40 40 40 39 39 40 40 41 41 40
61 60 57 57 57 53 53 52 51 48 45 42 30 34 41 40 36 36 35 33 32 34 34 34 34 35 40 36 33 34 36 38 39 39 39 39 39 39 39 40 40 40 40
60 59 56 57 56 54 54 53 51 48 43 43 41 41 41 42 39 36 36 35 34 34 36 34 33 31 33 37 37 33 32 37 39 40 40 40 39 39 39 39 40 40 40
58 58 57 56 56 53 54 53 51 46 45 45 42 41 40 40 38 38 37 36 38 35 35 33 34 35 36 33 36 36 34 34 35 38 39 39 40 39 40 40 40 40 40
58 57 57 56 56 55 53 52 50 48 44 44 44 42 40 38 39 40 40 38 39 37 36 35 35 35 35 33 36 38 36 36 36 37 38 38 39 39 39 39 40 40 40
59 56 56 56 55 54 54 53 49 50 47 43 43 42 43 43 36 35 36 38 38 37 39 36 35 33 33 33 38 36 37 35 34 35 36 37 37 38 38 38 39 39 39
58 56 56 56 54 53 53 53 52 50 45 44 43 45 43 40 41 38 34 31 35 33 32 32 33 33 33 34 34 37 33 30 29 32 33 35 35 35 35 35 36 37 37
57 57 55 56 55 53 52 51 52 49 46 46 42 42 42 40 39 38 33 34 32 31 30 30 32 34 33 33 32 34 30 27 29 31 31 32 32 33 33 35 36 36 36
56 56 55 54 53 53 51 51 50 49 46 45 45 43 43 38 37 33 32 31 30 30 29 30 30 31 29 31 31 31 31 33 32 30 29 29 30 31 32 33 34 35 35
58 56 54 52 52 51 51 49 46 47 46 45 43 42 43 41 39 37 33 32 31 29 30 31 28 28 29 30 32 31 29 34 34 29 28 29 29 30 30 31 32 33 34
55 54 53 52 51 51 48 47 47 45 42 45 44 44 42 41 42 39 35 33 34 33 29 29 27 29 27 28 31 30 29 32 34 31 30 27 27 28 30 30 31 31 32
55 53 53 52 51 46 47 46 44 43 42 44 44 42 42 42 41 37 35 34 34 33 30 27 26 28 29 22 29 28 28 33 32 32 33 29 25 27 28 29 29 30 30
55 53 53 51 47 47 45 43 43 43 42 43 43 42 41 42 38 38 37 35 34 33 29 29 28 30 30 30 27 28 28 27 26 31 32 29 28 26 26 27 27 28 29
54 51 49 48 46 44 44 42 42 42 41 42 42 41 42 40 40 39 37 37 35 34 31 31 30 29 29 29 30 29 23 19 22 25 30 30 28 27 26 25 27 28 28
50 49 46 46 45 44 42 42 42 42 42 42 41 41 42 40 40 39 37 36 35 31 34 33 31 29 28 27 26 28 26 26 18 26 30 29 29 28 26 27 27 28 28
45 44 45 43 42 41 41 41 42 42 42 42 42 42 41 40 39 38 37 37 35 35 34 32 30 29 28 27 26 23 23 24 19 11 20 25 28 27 29 29 30 28 29
44 42 42 42 42 42 42 42 42 42 41 41 42 41 41 40 38 37 33 37 36 34 34 33 29 28 26 24 24 23 23 20 21 20 19 19 20 20 22 26 26 31 28
43 42 42 42 42 40 39 39 40 41 40 40 40 40 39 35 35 35 35 36 35 36 35 33 30 30 28 26 28 26 22 20 17 20 20 21 20 19 20 23 28 26 26
43 43 42 42 42 42 39 39 38 40 38 36 34 33 31 27 31 29 33 35 35 34 31 32 31 31 30 29 30 27 22 22 19 18 21 20 24 23 20 16 28 29 29
42 43 42 41 41 39 39 39 36 34 32 32 32 31 32 32 33 32 32 33 33 34 33 29 29 29 30 31 31 24 24 21 20 21 22 22 23 22 24 23 26 29 29
41 41 40 38 37 35 37 34 32 33 31 31 30 30 30 31 32 33 32 33 32 32 30 33 33 33 28 24 23 25 24 22 25 18 22 22 21 21 22 23 25 25 28
36 34 32 32 32 31 34 34 32 33 33 33 32 31 31 31 31 31 33 33 31 30 30 29 31 31 29 28 27 24 24 24 23 22 21 22 18 18 19 22 22 26 27

GFSMA_sfc_dewp_054.txt.gz
Dewpoint
59 58 58 55 55 56 54 55 54 52 51 48 46 42 41 39 40 46 49 53 52 51 55 54 51 49 48 45 44 45 45 44 43 44 43 44 44 44 43 42 41 41 42
61 60 60 58 57 57 56 55 53 52 51 48 44 40 40 40 40 42 46 53 56 57 56 53 52 50 48 45 43 44 42 42 42 42 43 43 43 43 43 42 41 40 41
59 59 59 58 58 58 57 55 53 53 50 48 43 41 40 38 39 39 44 47 51 54 54 51 49 48 46 45 43 41 41 41 41 41 41 42 42 42 42 42 42 42 41
60 60 59 59 59 59 56 55 53 51 51 47 43 41 39 38 37 38 41 43 47 47 52 52 48 45 41 37 37 38 39 39 39 40 41 41 42 41 41 41 41 42 42
61 60 60 59 59 58 56 54 54 53 50 46 42 42 41 40 38 34 40 39 38 40 45 51 50 46 42 38 34 33 35 38 39 40 40 41 40 40 40 40 41 41 41
62 61 61 60 58 57 56 55 53 53 50 46 38 38 44 42 40 39 38 37 38 35 35 39 42 40 45 38 36 35 34 36 38 39 41 40 40 40 40 40 40 40 40
61 61 61 60 58 57 55 55 53 51 47 45 43 43 45 44 42 40 40 39 36 36 36 36 36 35 39 42 39 36 34 35 36 38 40 41 40 40 40 40 41 41 41
61 61 60 58 58 56 56 55 53 50 48 48 44 44 41 43 42 42 41 40 38 37 38 37 35 34 36 37 39 38 36 35 35 36 38 39 39 40 40 40 40 40 38
59 60 60 58 58 57 55 55 54 51 47 49 45 44 42 41 40 42 41 41 41 39 38 38 37 36 38 36 39 39 39 37 36 35 36 38 39 39 39 39 40 40 40
60 59 58 59 58 57 55 55 53 51 50 47 46 44 44 42 38 38 40 41 42 39 40 39 38 35 34 35 41 41 40 37 34 33 34 36 38 38 38 38 38 37 38
60 60 58 58 57 56 55 54 52 51 51 48 46 45 42 41 42 40 37 38 39 38 39 42 36 35 34 35 38 39 38 35 32 31 33 33 34 35 35 35 35 36 36
59 59 57 58 57 56 56 55 54 52 50 48 43 41 42 42 41 41 38 37 36 36 35 35 35 35 37 36 35 39 36 34 32 31 31 31 33 34 34 34 35 36 36
58 58 58 57 56 55 54 53 53 50 48 45 44 46 44 42 41 40 39 36 35 34 34 35 35 36 35 36 36 36 36 36 34 32 31 31 31 32 32 32 34 34 35
58 58 58 57 55 54 53 52 49 47 48 48 47 43 43 43 43 43 39 38 36 34 33 34 35 34 33 34 37 39 35 36 37 35 32 31 31 30 28 30 32 33 34
59 58 58 54 53 53 52 49 48 48 47 45 45 43 44 44 45 44 42 39 36 31 31 32 33 33 31 33 36 34 32 36 36 35 33 33 31 29 28 28 30 31 32
57 56 55 54 53 52 48 47 47 44 44 44 44 43 43 44 43 44 41 39 37 35 32 33 32 31 31 25 32 30 30 35 35 36 36 35 34 29 27 28 28 28 30
57 55 54 53 51 47 48 45 44 43 43 43 43 42 42 43 42 42 41 38 36 35 33 33 31 30 31 32 28 32 32 29 30 35 36 36 35 31 29 29 27 28 29
56 55 52 49 47 46 44 43 43 43 43 42 42 42 42 42 41 41 40 38 36 35 34 32 32 31 31 31 30 29 29 23 25 30 34 34 34 32 32 31 29 29 29
50 49 47 46 45 45 43 43 42 41 41 41 42 42 41 41 41 41 40 39 37 35 35 33 32 33 33 31 28 29 28 28 26 31 33 33 33 33 32 32 31 31 30
46 46 46 45 44 43 42 42 41 41 41 42 42 42 41 41 40 40 39 39 37 36 36 34 33 32 31 30 29 26 25 27 25 20 26 25 30 31 33 34 32 32 33
45 43 43 43 42 42 42 41 41 42 42 42 42 42 42 41 40 39 39 37 35 33 33 33 32 32 31 29 26 27 26 25 25 25 21 21 22 23 23 27 29 30 31
43 43 43 42 42 41 40 39 41 41 41 40 40 40 40 40 40 39 38 37 33 31 32 32 32 31 30 31 29 28 28 24 24 25 19 20 22 21 22 24 28 30 29
43 43 42 42 42 42 39 39 39 40 40 40 39 38 34 30 33 33 33 34 34 34 32 33 31 31 31 31 31 29 28 27 25 24 20 19 22 22 24 20 28 29 29
43 43 43 42 42 41 39 39 38 38 33 33 33 33 33 33 33 33 32 31 31 31 33 33 32 32 31 31 29 29 29 26 23 21 21 20 22 23 24 24 28 29 29
42 42 41 40 39 39 39 36 33 33 33 32 32 32 33 31 33 34 32 31 31 30 31 34 35 35 34 33 31 28 26 25 21 22 22 22 21 23 22 22 22 28 28
40 37 34 35 31 34 34 33 32 32 31 29 29 28 30 31 31 30 29 29 29 31 33 33 32 32 34 29 29 27 26 25 27 22 23 22 21 21 19 21 22 23 25

GFSMA_sfc_dewp_057.txt.gz
Dewpoint
56 55 55 54 53 54 50 52 52 50 47 46 43 40 37 38 42 44 46 53 54 57 55 53 52 50 48 46 46 46 45 44 44 44 44 43 44 44 44 43 43 42 42
57 56 57 53 54 55 52 54 52 50 48 44 40 38 38 39 44 45 49 51 54 54 57 54 52 51 48 45 46 44 43 42 42 42 42 43 43 43 43 43 44 44 43
59 58 59 58 56 56 54 53 52 51 50 45 40 38 37 38 38 44 46 50 53 56 57 56 52 49 47 46 46 42 40 40 40 40 40 41 42 42 42 42 42 43 43
59 58 58 58 56 57 55 53 52 50 49 44 41 39 39 38 36 37 45 48 49 50 54 55 52 49 47 44 42 39 38 38 38 39 40 40 40 40 41 41 41 41 41
60 57 58 57 58 57 55 53 52 50 50 47 41 41 39 39 36 36 40 45 47 47 47 53 52 51 47 44 42 37 33 34 36 38 39 40 40 40 40 40 40 40 40
59 60 59 59 59 56 55 53 51 52 50 45 39 39 40 41 39 37 38 39 37 44 45 46 47 44 48 43 39 36 36 36 35 37 39 41 42 41 40 40 40 40 40
60 61 60 59 58 55 54 53 52 51 48 46 41 41 42 41 39 38 38 37 37 34 37 40 39 37 41 45 41 40 39 37 36 36 37 38 39 40 40 40 40 40 40
59 60 60 59 58 56 55 54 52 50 47 45 41 43 41 42 42 39 39 38 37 37 35 36 34 35 35 36 39 43 41 38 35 35 36 37 38 39 39 39 39 39 39
60 60 60 59 57 56 55 54 52 49 47 47 44 43 41 40 40 41 40 41 38 38 38 37 36 34 35 37 41 44 44 41 38 36 35 36 37 38 39 38 39 39 38
59 59 59 59 57 57 55 54 53 51 48 46 46 45 44 41 38 37 40 40 41 38 37 38 37 37 35 35 40 42 43 41 38 37 35 34 35 36 36 36 36 36 37
59 59 58 58 57 56 55 54 53 51 51 49 45 45 44 43 41 39 37 39 41 40 39 39 39 35 33 35 39 41 42 41 39 38 35 33 32 33 35 36 35 36 36
59 59 58 57 57 55 55 55 55 53 53 51 48 47 44 43 43 44 40 37 38 37 37 38 38 35 36 37 39 42 42 40 39 36 35 33 32 33 34 35 34 34 35
58 58 59 57 56 56 56 55 54 52 51 46 45 47 47 46 44 42 41 39 38 36 36 36 36 35 35 36 38 42 41 39 38 37 35 34 34 34 33 32 32 33 34
58 59 59 58 57 56 55 53 53 51 48 47 48 46 44 44 45 45 43 41 39 37 35 34 36 36 36 35 39 42 37 39 39 39 36 35 34 33 32 30 29 29 31
58 58 58 57 56 55 54 52 50 48 48 46 45 45 44 45 45 45 45 44 40 36 32 33 32 33 33 35 37 38 35 39 39 38 38 37 35 34 33 31 29 29 29
55 55 55 55 54 53 50 48 48 47 46 45 44 44 44 44 44 45 44 44 42 38 34 34 33 33 31 29 33 36 32 37 39 38 37 37 37 35 33 31 29 29 28
56 56 55 53 52 50 48 47 45 45 44 44 44 43 43 43 43 43 43 42 40 37 35 33 34 32 29 30 31 35 33 34 33 38 37 37 37 37 36 34 31 30 29
56 55 54 52 49 47 46 45 44 43 43 42 42 42 42 43 43 42 42 41 39 38 35 33 33 33 32 32 31 30 30 28 29 33 37 37 37 36 35 34 33 33 31
51 50 49 48 46 45 44 44 43 43 43 42 42 41 42 42 41 41 41 40 40 39 37 35 35 33 34 32 32 30 29 29 27 32 35 35 36 36 36 35 34 34 33
48 47 47 45 45 44 43 43 42 42 41 41 42 43 42 41 41 41 40 40 39 39 38 37 36 36 33 34 34 32 30 30 29 24 29 28 31 32 35 36 35 35 34
46 45 44 44 43 43 42 42 41 41 41 41 42 42 42 42 41 40 40 38 37 36 34 33 32 30 30 30 30 31 30 28 26 27 23 21 22 22 24 28 30 34 34
43 43 43 42 41 41 39 39 40 41 41 41 40 40 39 40 40 39 39 38 39 37 34 32 31 30 30 29 30 29 28 29 27 28 27 20 21 21 22 22 27 30 32
42 41 40 40 40 39 39 39 39 41 40 38 37 37 38 35 34 33 33 33 33 34 33 33 31 30 31 31 30 29 29 29 28 28 22 19 21 20 22 20 29 31 31
41 41 42 42 42 41 38 39 37 36 35 33 32 32 31 30 32 30 28 28 28 30 31 32 32 32 32 33 32 32 32 31 28 24 22 19 21 20 23 24 28 31 29
41 41 41 40 39 40 38 37 34 32 31 29 28 28 28 28 30 28 24 22 20 19 21 26 30 32 33 34 34 33 30 27 25 22 23 22 21 22 22 22 23 27 28
41 40 37 35 34 31 32 33 30 27 23 23 24 25 26 26 28 26 24 23 23 23 23 23 25 27 29 29 32 32 31 28 27 22 24 24 22 21 18 21 21 22 22

GFSMA_sfc_dewp_060.txt.gz
Dewpoint
56 56 55 54 52 52 50 50 52 48 46 45 41 38 39 38 37 42 47 57 58 57 54 53 53 51 49 47 47 48 45 44 44 44 44 44 44 44 45 44 44 44 44
55 55 54 53 52 53 50 52 51 48 47 41 39 38 39 41 43 41 45 51 56 58 56 54 53 51 49 47 48 45 43 42 41 41 41 42 42 43 43 43 43 43 43
54 55 55 54 53 54 52 53 52 49 47 43 39 38 38 41 45 42 46 49 52 56 58 57 54 52 51 49 48 45 41 40 39 38 39 40 41 41 41 41 42 42 42
56 57 58 57 56 55 54 53 52 50 48 44 40 39 38 38 40 43 45 49 51 52 56 57 56 52 50 49 47 43 41 38 36 37 38 39 39 39 40 41 41 41 41
59 58 58 58 57 57 55 53 52 50 49 45 41 39 39 38 37 40 44 46 49 50 50 55 54 53 51 47 44 43 38 34 35 36 38 40 40 40 41 41 41 40 41
59 58 58 57 58 57 54 52 51 51 50 48 42 40 39 39 38 38 42 45 46 48 48 49 50 48 51 47 43 41 38 38 36 36 37 39 41 41 41 41 40 41 41
59 59 58 59 58 57 54 52 51 50 50 47 41 40 41 41 39 38 39 41 39 44 46 46 46 42 43 50 44 42 42 41 38 37 36 36 38 38 39 39 39 39 40
59 59 59 58 57 56 54 53 52 50 50 46 42 42 40 42 42 40 38 38 37 38 42 41 40 37 36 43 41 44 44 43 41 38 38 38 36 36 37 39 39 39 39
57 58 59 58 57 56 54 53 52 50 48 47 43 43 40 39 41 41 40 39 38 38 36 37 37 35 36 37 41 45 48 46 41 42 40 38 36 35 36 37 38 38 38
58 58 58 59 58 57 55 54 54 51 49 47 47 45 44 42 38 38 41 41 41 38 38 39 38 36 35 37 39 43 47 45 44 42 41 39 37 35 34 35 36 37 37
59 59 58 59 58 57 56 55 54 53 51 50 49 46 46 43 42 40 38 42 43 41 40 39 39 38 36 36 38 43 45 43 43 41 41 40 38 35 34 35 36 37 37
57 58 59 59 58 57 56 56 56 54 52 52 51 50 47 44 43 44 44 42 38 41 40 40 40 39 37 36 39 43 44 42 43 42 42 40 38 37 36 36 35 35 35
56 57 58 58 58 57 57 57 56 53 52 51 51 49 48 47 46 44 42 41 39 38 36 38 37 38 36 38 40 43 44 42 42 43 41 39 38 37 36 35 35 34 33
55 57 58 58 58 57 57 56 54 53 52 51 49 48 45 46 46 46 44 42 40 40 39 38 38 38 37 37 39 44 41 42 41 41 41 41 38 37 36 35 34 33 31
57 57 58 58 57 57 57 55 53 49 49 48 48 46 45 45 46 46 45 44 41 39 39 36 35 35 35 34 37 41 39 42 41 40 40 40 40 38 37 36 35 33 31
56 56 57 57 57 56 55 53 50 48 47 46 46 45 45 45 45 45 45 44 43 41 39 36 34 34 33 31 34 39 38 39 40 39 39 39 39 39 39 37 36 33 31
56 54 56 56 55 54 51 49 47 47 46 45 44 44 44 44 44 44 44 44 43 41 39 38 35 34 31 31 30 35 37 36 36 40 39 38 38 38 38 38 37 36 33
55 54 55 53 51 49 48 46 46 45 44 43 44 44 43 43 43 43 43 42 41 41 39 37 36 34 33 34 34 34 32 31 33 35 39 38 38 37 37 37 37 36 35
54 54 53 52 49 47 45 45 44 44 44 43 43 42 42 43 42 41 41 41 41 40 40 38 38 38 37 35 34 33 33 33 32 35 36 38 38 38 38 37 36 36 35
51 50 49 48 46 45 44 44 44 43 43 42 42 42 42 42 41 41 41 40 40 38 37 37 36 36 34 35 34 34 33 32 31 31 33 33 36 37 37 37 36 36 36
48 47 46 46 44 44 43 43 43 42 41 41 41 42 42 42 41 40 40 40 35 35 35 34 34 33 31 29 30 31 31 31 30 29 28 27 28 28 30 34 34 37 36
46 45 44 44 44 43 39 40 41 41 40 41 41 41 39 39 37 34 34 33 33 32 32 34 33 31 31 30 30 31 31 28 28 29 29 29 30 26 28 25 28 30 31
44 44 43 42 42 41 38 39 39 41 41 39 37 34 32 30 32 30 29 29 29 30 30 29 29 29 30 31 33 33 32 30 30 31 30 27 28 27 23 20 29 31 32
42 41 41 40 39 39 38 38 37 36 33 32 31 29 28 28 28 25 23 21 21 21 21 20 22 23 25 26 28 29 29 31 34 33 29 30 24 22 22 23 27 30 33
40 40 41 40 39 38 37 35 34 31 28 26 26 26 25 24 26 25 24 23 23 24 25 27 28 29 29 30 30 29 25 26 26 30 26 28 24 22 24 22 23 28 31
41 41 39 37 37 35 34 33 30 26 23 22 23 22 24 24 23 24 25 25 24 24 25 26 27 27 28 27 29 28 27 26 26 26 25 25 23 25 25 22 22 22 21

GFSMA_sfc_dewp_063.txt.gz
Dewpoint
56 55 55 53 52 51 50 50 49 46 43 40 39 39 37 39 44 50 54 59 58 56 55 54 53 52 51 50 49 47 46 44 44 44 44 44 45 45 45 44 44 44 44
55 54 53 52 51 49 50 52 49 46 45 41 38 39 39 36 37 42 48 55 58 58 55 53 53 52 50 49 49 47 44 43 42 41 41 43 43 43 43 43 43 43 43
54 53 52 52 51 52 50 52 50 48 43 39 38 39 41 43 40 39 43 48 53 58 58 57 54 53 51 49 50 46 43 41 39 38 40 41 41 41 41 41 42 42 42
54 54 54 54 53 53 52 52 51 49 46 42 39 38 39 42 43 40 43 46 50 52 57 58 57 55 53 50 50 47 44 41 36 37 39 40 39 38 39 41 41 41 41
56 55 55 55 54 55 54 53 52 50 48 45 41 39 38 39 41 42 42 46 49 51 53 57 57 55 54 50 47 46 45 37 37 37 39 39 40 41 41 41 41 41 41
57 57 57 57 57 56 55 53 51 50 49 46 41 39 39 39 38 40 43 44 47 50 50 51 52 51 53 51 46 45 44 40 39 39 39 39 40 39 38 38 39 40 40
59 58 57 57 57 57 55 53 51 50 50 48 42 40 40 39 39 38 39 44 45 46 48 49 49 47 49 52 47 45 44 43 42 41 39 39 39 37 36 37 38 39 39
57 58 58 57 57 56 54 52 51 50 50 46 43 41 38 40 43 41 38 40 43 42 46 46 46 44 40 43 45 47 44 44 44 43 42 41 40 38 36 35 37 37 38
57 58 58 58 57 56 55 53 52 51 50 49 44 44 40 39 40 41 41 39 39 38 41 43 42 41 38 37 44 47 49 49 46 44 43 43 41 39 36 35 34 35 37
55 57 58 58 57 57 55 54 54 52 52 49 48 44 44 42 40 39 41 41 40 38 38 39 39 38 37 37 40 43 45 47 47 45 45 44 43 41 38 36 35 36 36
56 57 57 57 57 57 57 55 54 53 53 52 51 47 47 46 44 42 41 41 45 44 42 39 39 39 36 37 37 39 45 46 46 47 45 44 44 42 40 38 37 36 36
53 56 57 57 57 57 57 56 56 55 54 53 51 50 48 46 45 43 43 44 43 42 42 43 41 40 40 38 38 42 45 45 45 46 46 44 44 43 41 39 39 38 36
53 54 56 57 57 57 57 57 56 56 54 53 51 51 50 49 48 46 44 43 42 42 38 39 39 40 40 39 39 43 45 44 44 45 45 45 44 43 41 40 39 38 37
52 53 55 57 57 57 56 56 56 55 53 53 51 50 49 49 47 46 45 44 41 40 40 39 39 38 38 38 39 43 42 44 43 43 44 44 45 44 42 40 39 38 37
53 54 55 56 56 56 57 56 57 56 53 52 51 50 49 47 46 46 45 44 43 39 39 39 38 37 37 35 37 40 41 42 43 42 42 43 44 44 43 42 40 38 37
56 57 56 56 57 57 57 57 56 52 50 49 48 47 46 46 46 46 45 45 44 42 39 39 37 35 35 34 35 37 38 42 42 42 41 41 42 42 42 42 41 39 37
57 57 57 57 57 57 55 54 52 49 48 46 46 46 44 45 45 45 44 44 43 43 40 41 39 36 34 34 33 33 37 37 38 40 41 41 40 40 40 40 40 40 39
57 57 55 55 55 54 53 51 49 48 46 45 45 45 44 44 44 43 43 42 42 42 41 39 38 36 34 34 34 35 35 35 34 37 39 40 40 39 39 38 38 39 37
57 55 55 53 53 50 50 48 47 46 45 45 44 44 44 43 42 42 41 41 41 41 40 38 38 38 36 36 35 35 34 35 34 37 37 37 38 39 40 39 38 37 38
55 55 54 52 50 48 47 45 45 44 44 43 43 43 43 42 42 41 41 40 40 38 35 35 36 35 34 34 33 32 34 34 33 33 35 34 35 36 39 39 38 38 38
54 53 49 47 46 46 46 44 44 43 43 42 42 42 42 42 41 40 40 39 37 36 36 35 34 33 32 32 29 30 30 31 31 31 31 32 32 32 33 37 38 38 36
49 47 46 45 45 46 40 41 42 42 41 41 41 41 38 35 34 33 32 32 31 27 25 26 26 25 26 27 28 28 28 27 25 29 29 29 29 27 28 31 34 35 36
48 46 44 44 45 43 39 39 39 41 40 40 38 35 30 29 29 26 24 22 22 23 26 25 23 24 23 24 25 25 25 25 24 24 27 26 29 29 30 30 35 35 33
44 43 44 44 43 41 38 38 37 37 34 32 30 29 28 26 26 24 22 21 23 23 24 23 21 22 23 24 25 25 25 26 26 25 28 25 26 29 31 31 32 33 32
43 42 42 41 40 39 36 35 33 30 26 26 25 24 23 24 24 24 23 24 24 24 25 25 25 26 28 29 28 27 25 25 24 23 24 26 26 28 24 26 25 31 32
42 41 39 39 38 37 35 34 30 26 23 23 22 22 25 23 23 24 25 25 24 22 21 21 21 23 23 26 27 26 25 22 22 22 24 25 24 26 26 25 26 26 29

GFSMA_sfc_dewp_066.txt.gz
Dewpoint
56 55 54 52 51 50 50 48 45 43 42 42 43 46 48 50 52 54 56 58 58 56 55 54 54 53 52 51 49 48 47 46 45 46 45 46 46 46 45 45 44 44 44
55 53 52 51 50 49 51 48 45 43 42 40 40 39 40 43 48 52 54 57 58 58 56 55 53 53 51 50 49 47 45 44 43 43 44 44 44 44 43 43 43 43 42
54 53 52 51 50 50 52 49 47 46 42 40 40 40 39 38 39 45 50 53 56 58 57 57 54 53 51 51 50 47 45 43 41 41 43 43 42 42 42 41 41 41 41
54 53 53 52 52 51 52 51 49 47 43 40 39 40 41 44 41 40 43 48 51 54 57 58 57 55 53 52 51 49 45 43 39 39 41 42 40 40 40 40 41 41 40
55 53 52 52 53 54 52 52 51 49 46 44 40 39 40 42 44 40 42 43 48 52 53 57 58 57 56 54 51 50 47 44 38 39 42 41 41 42 41 40 39 39 40
56 56 55 55 55 55 53 52 51 50 49 47 41 39 40 40 40 43 43 43 46 49 52 53 56 55 56 55 51 47 46 44 41 41 42 42 42 42 39 37 37 37 38
56 56 56 56 56 55 54 53 52 50 50 48 43 42 42 41 40 39 40 43 45 47 50 51 52 50 52 55 51 46 46 46 44 43 43 42 43 41 39 37 36 36 37
58 58 57 57 57 57 56 54 52 51 50 47 45 42 41 41 42 41 40 39 44 45 47 49 49 49 47 49 50 49 47 46 45 46 45 44 43 42 40 38 36 36 36
57 58 58 57 57 56 55 53 52 51 50 49 46 47 41 40 41 42 42 40 40 43 44 47 47 47 46 43 46 49 51 50 48 46 47 45 45 43 42 39 37 36 36
55 56 57 57 57 56 56 54 53 52 51 49 48 47 45 43 40 41 42 42 40 39 40 42 43 43 42 42 41 44 46 48 49 48 46 46 46 45 43 41 39 38 37
54 54 55 56 57 57 56 55 54 52 52 51 50 47 47 47 45 45 43 42 44 42 40 40 41 41 40 39 39 41 45 46 47 49 47 46 47 46 45 43 41 39 39
51 54 55 55 56 55 55 55 55 54 54 53 52 51 48 46 45 46 45 45 44 45 44 44 44 43 42 40 39 42 43 44 46 47 49 48 47 46 46 45 43 42 41
51 52 54 54 55 55 55 55 54 54 54 54 54 52 52 50 50 48 47 45 44 44 42 42 44 43 41 41 40 42 43 43 45 46 47 48 48 47 46 45 45 43 42
49 50 52 54 55 55 55 54 54 55 55 55 54 53 53 52 50 49 48 46 42 42 41 40 41 40 38 39 41 42 42 43 44 45 45 46 47 46 46 46 45 43 42
52 51 52 52 54 54 55 56 56 55 55 55 53 53 52 51 50 49 48 46 45 41 40 42 40 39 40 38 38 39 41 42 43 44 44 44 45 46 46 45 45 44 43
53 52 53 53 54 54 54 56 56 56 56 54 52 51 50 49 48 47 47 45 44 43 40 41 38 38 38 36 38 38 37 40 42 42 42 43 43 44 44 44 44 43 43
56 55 55 56 56 56 55 55 56 54 53 52 50 49 48 47 46 45 45 44 43 43 40 41 41 39 38 38 37 37 36 37 37 40 41 41 42 42 42 42 42 42 42
55 56 56 56 57 56 56 56 54 51 51 48 47 47 46 46 45 44 44 43 42 42 41 39 40 38 37 37 36 36 37 36 36 37 39 40 40 41 41 40 40 40 40
54 56 56 56 56 55 54 53 52 51 49 48 46 46 45 45 43 43 43 42 41 41 40 39 38 38 37 37 36 35 35 36 35 37 38 38 38 39 39 39 40 40 40
57 57 57 56 54 53 52 50 49 47 46 45 45 45 44 44 43 42 41 40 40 39 36 36 35 35 36 35 34 32 31 33 32 31 33 34 36 36 37 37 38 39 39
57 57 55 52 49 49 48 47 47 45 44 43 43 43 43 43 41 41 40 39 38 36 36 34 33 31 29 29 28 30 26 25 25 25 26 31 31 32 32 34 34 36 38
56 55 52 52 48 48 45 43 45 44 43 42 41 39 38 36 35 34 33 32 31 28 26 26 26 22 21 26 26 24 24 23 21 27 26 24 26 25 26 28 32 33 35
52 49 48 48 46 44 42 42 40 43 42 41 38 34 31 31 29 25 24 23 24 25 25 24 21 22 23 22 24 24 24 24 23 24 25 24 26 25 27 26 32 34 34
48 47 47 45 44 41 40 40 39 38 36 34 33 31 28 25 25 22 20 22 23 24 25 24 23 24 25 25 26 26 25 24 24 23 26 23 24 24 26 28 31 33 34
45 44 44 43 40 39 37 36 34 31 29 27 26 25 25 24 24 24 23 23 23 24 20 20 20 21 22 24 25 26 23 22 20 18 22 24 23 24 27 26 28 30 32
42 41 40 40 37 36 35 34 31 28 25 23 23 23 24 23 25 27 25 24 20 19 18 16 16 19 19 20 22 20 20 18 18 17 22 21 19 22 23 25 26 27 29

GFSMA_sfc_dewp_069.txt.gz
Dewpoint
54 54 54 51 51 53 54 53 53 51 52 52 53 53 54 54 55 53 53 58 58 56 56 56 55 53 52 51 50 48 47 47 47 47 47 47 47 46 46 45 45 44 44
56 53 52 51 50 50 50 49 49 48 48 49 51 52 53 54 55 55 54 54 58 58 56 55 55 54 53 51 49 48 46 45 45 45 46 46 46 45 44 44 43 42 42
57 55 52 51 52 51 49 48 47 46 44 43 44 47 49 52 54 55 55 54 54 58 58 57 54 54 52 52 51 48 46 44 43 44 45 45 45 44 43 42 41 40 40
57 55 52 52 53 53 50 47 46 43 43 42 42 41 41 43 48 53 54 55 54 52 56 58 58 56 53 52 52 50 47 45 42 43 44 44 43 43 43 42 40 40 40
57 54 53 53 55 55 53 51 49 47 44 42 42 43 43 43 45 39 45 53 55 55 52 57 58 57 57 54 53 52 50 47 43 43 44 44 43 43 43 42 39 38 38
55 56 56 55 55 55 54 53 52 51 48 45 38 40 43 43 45 45 42 41 45 52 55 55 55 54 57 57 54 52 51 49 45 44 45 45 45 45 43 40 38 38 37
55 56 56 56 57 55 55 56 55 54 52 50 46 46 45 45 44 42 44 44 44 45 49 52 54 54 54 57 55 52 48 49 48 46 46 46 45 45 43 41 40 38 38
56 56 56 56 55 57 57 56 56 54 55 52 51 48 47 47 45 43 42 42 46 44 46 49 53 54 54 53 53 54 49 49 49 48 47 47 46 46 44 42 41 39 38
57 57 57 58 58 58 58 58 57 56 54 53 52 51 47 47 47 46 46 43 44 44 46 47 50 51 52 51 51 52 52 52 51 48 48 48 48 47 46 44 42 40 39
58 58 58 59 59 59 59 58 59 57 56 54 52 50 50 48 48 47 45 45 44 42 44 44 47 49 50 50 49 48 48 49 50 50 48 47 48 48 47 46 44 42 41
57 57 58 59 59 58 59 59 58 57 56 56 54 52 51 50 49 47 48 48 46 44 43 44 44 45 46 46 45 45 46 46 47 48 49 47 47 47 49 48 47 45 43
55 56 56 58 59 58 59 59 59 58 58 57 56 56 53 51 49 48 47 48 48 48 47 45 45 43 44 43 42 44 45 45 46 47 47 47 47 46 46 49 49 48 47
51 54 56 57 57 57 58 58 58 58 58 58 57 56 55 53 52 51 49 49 48 49 47 47 47 46 43 46 44 44 44 43 44 45 46 46 48 48 48 46 46 47 47
52 53 55 55 56 56 57 58 58 59 59 59 58 58 55 54 54 53 51 49 45 46 45 46 44 44 44 43 43 43 42 43 44 44 45 47 48 48 48 47 48 47 45
53 54 54 55 56 56 57 58 58 58 58 59 59 56 56 56 56 53 52 51 49 43 43 45 44 43 42 42 41 41 41 42 43 43 43 44 45 45 46 46 47 47 47
53 53 54 54 54 55 56 57 58 58 58 59 58 55 56 56 53 52 51 50 50 48 44 44 43 41 40 37 41 42 41 39 41 41 41 42 43 43 44 45 45 45 46
54 54 54 54 54 54 56 57 57 58 57 57 56 55 54 54 51 49 49 47 46 46 44 42 42 42 42 43 41 41 41 41 40 40 40 40 41 41 42 42 43 43 43
54 54 54 54 55 55 57 57 56 55 55 55 53 53 53 50 49 47 47 45 45 44 43 41 42 41 40 40 40 41 38 35 37 37 39 39 40 40 40 40 40 40 41
54 56 56 56 55 54 55 56 56 55 54 54 53 50 49 48 46 45 45 43 43 42 42 40 40 39 38 38 37 37 36 35 31 34 35 37 38 38 38 38 38 38 38
54 54 54 56 56 56 55 55 55 55 53 51 50 49 47 46 45 45 43 43 42 41 40 38 37 36 36 36 35 32 29 27 22 18 24 28 32 33 35 35 35 34 35
53 54 55 57 57 56 54 53 53 52 48 47 47 46 45 45 43 42 42 41 40 39 38 37 35 34 33 29 25 24 21 21 22 23 23 23 23 22 24 27 27 30 31
55 57 58 57 53 52 45 45 48 48 46 45 43 42 41 39 38 37 37 36 37 36 33 34 31 28 25 22 21 22 21 19 15 24 23 21 21 21 22 24 27 30 32
56 57 57 55 52 51 42 43 44 46 44 42 39 37 34 33 32 29 28 27 27 26 27 25 24 21 20 22 23 22 21 22 20 20 21 19 21 22 21 18 28 31 32
56 54 52 50 47 43 41 41 41 43 40 38 36 34 32 29 27 23 21 21 22 22 23 21 23 23 24 24 25 24 24 23 20 18 19 18 18 20 22 23 28 30 31
47 47 46 44 42 40 38 38 38 36 33 32 30 29 28 26 27 25 22 21 21 22 21 20 19 19 20 21 22 22 19 16 19 11 15 18 18 18 18 21 23 29 30
44 43 42 41 38 37 36 35 34 32 29 27 28 26 26 24 26 26 22 21 19 18 16 13 15 17 17 17 18 16 15 17 16 14 16 17 13 16 18 18 22 25 29

GFSMA_sfc_dewp_072.txt.gz
Dewpoint
57 56 58 57 56 56 56 53 52 51 51 50 51 52 52 52 53 50 53 59 59 57 56 56 55 54 53 51 50 49 49 49 49 49 49 48 47 46 46 45 45 45 44
57 53 55 55 56 56 55 52 50 49 48 48 50 50 51 52 53 53 51 54 58 58 58 56 55 54 53 51 49 48 47 48 48 48 48 47 46 45 44 43 43 42 42
55 56 53 51 52 53 53 51 51 48 46 46 48 49 50 52 51 53 52 52 54 58 58 58 57 55 53 52 51 49 47 46 46 47 47 47 46 45 44 42 41 40 40
56 55 51 50 51 52 49 49 47 46 45 44 45 45 46 49 51 52 52 52 52 51 56 58 58 57 55 54 53 50 49 46 45 46 47 46 46 45 44 43 41 40 39
56 52 50 51 54 49 48 49 48 47 45 43 42 42 42 42 47 47 50 52 53 52 51 57 58 58 57 55 54 53 51 49 46 45 46 46 45 45 45 44 42 40 39
55 52 51 55 55 51 51 50 51 49 48 45 40 42 45 45 44 43 44 46 50 52 52 52 54 53 57 57 55 55 54 52 50 46 47 47 46 46 46 45 42 40 39
53 53 51 54 56 54 54 55 54 54 50 50 47 47 46 48 47 45 45 43 44 45 50 51 51 51 53 57 58 56 54 53 52 49 48 48 47 47 47 45 43 42 40
53 55 55 56 56 55 56 57 56 54 54 56 51 51 49 49 48 47 46 45 48 44 44 47 51 52 52 52 55 57 55 52 50 51 49 49 49 48 48 46 44 43 41
55 55 56 56 57 56 55 57 57 56 55 56 55 53 50 48 52 50 50 47 48 47 45 47 49 51 53 52 54 54 55 54 53 50 51 52 50 49 49 48 46 45 43
56 55 56 56 57 58 56 58 58 57 57 57 55 54 55 53 49 49 49 50 49 47 48 45 45 48 49 53 53 52 51 51 51 51 51 50 49 51 51 50 49 47 46
58 56 57 58 57 57 59 60 59 58 57 57 57 55 54 53 53 51 48 50 48 46 47 49 47 47 48 48 50 51 49 47 48 49 49 49 49 49 49 49 51 50 48
57 58 56 58 58 59 59 59 60 60 59 58 56 57 55 53 52 52 51 52 53 51 49 50 48 46 48 47 48 47 47 47 47 48 47 47 47 48 48 48 48 52 52
55 55 57 57 56 56 57 58 57 59 57 58 57 56 57 56 56 55 53 52 52 53 51 52 51 48 46 48 46 45 46 44 45 45 45 46 46 46 46 46 46 47 48
54 56 57 56 56 55 56 58 57 56 57 58 58 58 56 57 58 56 54 51 49 49 50 49 50 49 49 48 48 45 43 43 44 44 45 46 46 46 47 47 47 47 47
54 56 57 57 56 56 56 58 56 56 56 57 58 58 57 58 59 58 56 55 52 48 46 50 47 47 46 44 44 45 45 43 42 43 42 43 43 44 44 44 45 45 45
55 56 56 56 56 55 54 55 55 55 55 57 56 57 57 59 58 58 56 55 54 51 49 49 47 46 45 40 40 44 44 39 40 40 41 41 42 42 43 43 43 43 43
56 55 54 55 53 53 53 54 54 54 54 55 57 57 58 58 56 55 55 54 52 52 48 45 44 43 43 44 42 44 43 43 43 41 40 40 40 40 41 41 41 41 41
57 56 54 52 52 52 54 55 54 54 54 55 56 58 56 56 55 54 53 50 49 50 48 44 43 43 43 44 44 43 40 38 38 39 38 38 38 39 38 39 39 40 39
55 55 54 54 54 55 54 54 55 55 55 57 58 56 55 55 53 49 49 49 48 47 44 44 43 43 43 40 39 40 39 38 33 36 35 36 36 36 37 37 36 36 37
52 53 54 54 55 54 54 54 55 55 55 54 55 55 55 54 52 49 47 46 45 44 43 43 43 39 38 39 38 34 33 32 27 15 24 27 29 30 33 34 35 33 33
53 53 54 55 55 55 54 55 55 55 54 54 53 52 52 50 47 46 47 45 44 43 42 41 38 36 36 35 33 30 26 23 22 23 21 24 22 22 24 30 29 32 33
54 54 55 54 54 54 48 47 53 56 54 52 49 47 46 45 43 40 40 40 41 40 39 38 36 35 34 31 27 25 22 20 18 22 25 22 22 21 21 22 29 30 30
55 55 54 53 55 56 44 45 44 55 52 49 45 42 39 38 37 35 33 31 30 30 32 36 34 31 27 25 24 23 22 22 21 21 22 20 23 22 21 15 29 31 31
54 55 56 56 57 56 43 43 41 48 44 43 41 39 35 33 31 30 27 26 25 23 23 20 24 24 23 23 24 22 24 24 22 20 19 19 20 20 22 20 26 28 29
56 56 55 54 53 47 41 41 41 39 36 34 34 34 32 31 31 31 28 27 25 22 22 22 23 22 22 22 21 21 20 18 22 15 17 17 20 18 17 19 22 28 31
50 45 43 43 40 40 39 38 38 35 32 31 31 31 32 31 31 29 27 25 23 19 16 15 17 18 18 20 19 17 15 17 18 16 15 17 14 13 17 18 20 23 26

GFSMA_sfc_dewp_075.txt.gz
Dewpoint
61 61 61 58 54 54 53 52 51 51 51 51 51 52 51 51 52 51 53 59 59 58 56 56 55 54 53 52 52 51 50 51 50 50 49 49 47 47 46 46 45 44 45
59 60 60 58 56 56 53 51 51 50 49 49 51 51 52 52 52 52 53 55 59 59 58 56 55 55 53 52 50 50 50 49 50 50 49 48 47 46 45 44 43 42 42
59 60 59 57 56 57 57 54 51 49 47 47 49 50 50 52 52 52 52 53 55 58 59 58 57 55 54 53 51 50 48 49 48 49 49 48 47 46 45 44 42 41 40
58 59 56 57 57 58 54 50 48 47 46 46 48 48 48 50 52 53 52 53 52 51 56 58 58 57 55 53 53 51 49 48 48 49 49 48 48 47 46 45 43 41 40
57 56 54 54 58 55 54 51 50 48 46 46 45 46 47 47 50 49 51 53 55 53 52 56 58 58 58 56 55 53 52 50 48 47 48 48 48 47 47 46 44 42 41
57 55 53 56 55 52 51 50 52 49 48 46 40 42 45 45 47 49 50 50 52 53 53 55 55 53 57 57 56 55 55 53 51 48 48 49 48 47 47 46 45 43 42
55 55 53 56 55 52 52 55 52 53 50 50 46 47 48 50 50 46 47 47 50 51 54 52 55 53 53 57 57 56 56 56 55 53 50 49 49 48 48 47 46 44 43
54 54 55 55 56 53 56 57 57 54 53 54 48 49 48 49 50 51 50 48 51 47 48 51 53 54 55 54 55 57 57 56 55 55 53 50 50 50 49 49 48 46 45
55 53 54 57 58 57 57 58 58 57 56 55 57 57 53 50 55 52 53 51 52 51 49 49 50 52 53 54 55 56 55 56 57 54 55 55 52 51 51 50 50 49 48
57 53 55 57 59 58 57 59 59 58 58 56 54 54 57 57 53 52 53 53 53 51 53 51 48 49 50 52 53 52 53 53 54 56 54 53 53 53 52 52 51 51 51
57 56 56 57 57 57 58 59 59 58 58 57 57 58 54 54 56 53 47 51 52 51 51 52 50 49 50 50 51 52 50 51 52 54 54 52 51 50 51 52 52 52 53
57 57 55 56 57 57 56 58 59 59 59 59 56 58 55 54 52 53 52 52 54 53 50 50 52 52 51 49 49 49 50 48 49 50 51 51 50 49 48 48 49 49 50
56 56 56 55 54 54 56 56 58 59 57 56 56 55 55 55 56 55 55 53 53 55 54 53 54 54 52 52 49 49 48 46 47 48 49 49 48 48 47 47 47 48 48
55 57 56 55 53 54 56 56 56 57 57 58 58 58 54 56 57 56 54 54 53 52 53 53 53 53 53 51 51 47 46 44 45 45 45 46 47 47 47 46 46 46 47
55 57 57 55 55 54 55 57 55 55 56 56 57 59 57 57 57 57 57 56 55 51 49 51 51 52 52 52 48 48 47 45 44 44 43 44 45 44 44 44 44 44 44
57 57 57 56 55 55 55 57 56 55 55 56 57 58 58 58 57 59 58 58 56 53 51 51 51 51 50 46 45 47 47 44 43 41 41 41 42 42 43 43 43 42 42
58 57 57 56 55 55 55 56 55 56 55 56 57 57 57 57 58 58 59 57 57 54 51 51 49 51 47 46 42 45 46 45 45 41 41 41 40 39 40 40 40 40 39
58 57 56 56 55 55 56 56 55 54 55 54 55 56 55 56 57 59 57 55 54 53 52 50 46 47 45 45 44 44 44 42 43 42 42 39 38 37 37 37 37 38 38
57 56 56 56 55 55 55 55 55 55 55 55 55 56 55 56 57 57 55 54 53 52 51 49 45 45 45 45 45 42 42 43 40 42 38 37 36 36 35 36 36 36 35
57 57 57 56 56 55 54 54 53 55 55 54 55 56 56 57 56 55 53 52 51 49 47 46 45 43 43 43 40 40 39 40 36 30 28 25 31 34 34 34 34 35 35
56 56 57 57 57 56 54 55 54 54 53 54 55 56 56 54 50 52 53 51 49 48 45 45 42 42 41 39 39 38 36 35 35 29 24 25 25 27 29 33 33 35 36
56 56 56 55 56 54 48 45 50 54 54 54 54 54 54 49 48 44 44 44 46 46 44 43 41 39 39 38 37 35 31 29 25 28 27 25 26 25 25 26 30 31 30
57 56 55 55 55 56 45 45 44 54 54 54 55 53 47 45 44 41 37 35 35 35 36 40 38 37 37 35 33 31 29 29 24 25 24 26 28 26 26 19 31 31 31
56 56 57 57 56 55 43 45 43 54 55 55 51 46 42 39 39 37 34 32 31 31 32 31 34 33 32 29 27 27 28 25 25 23 24 24 27 26 27 25 30 30 30
57 56 56 56 55 55 42 43 45 44 39 37 37 38 37 35 35 35 32 32 32 30 31 30 29 27 26 24 22 23 24 22 26 19 23 23 23 24 26 25 24 29 29
55 54 48 47 43 45 40 41 42 38 34 33 34 34 34 33 33 33 31 30 27 24 21 21 20 17 17 19 17 18 17 19 19 18 21 19 18 18 17 23 25 26 27

GFSMA_sfc_dewp_078.txt.gz
Dewpoint
61 61 61 54 53 53 53 52 52 52 53 51 54 53 53 52 53 54 56 59 59 58 57 57 56 55 55 53 52 53 52 52 52 51 50 49 48 48 47 47 46 46 46
62 61 60 53 54 53 52 51 54 53 52 52 53 53 53 52 53 53 55 57 59 59 58 56 56 55 54 53 52 52 52 52 51 51 50 49 48 47 46 45 44 44 43
61 60 59 55 55 53 52 55 53 53 52 51 52 53 54 54 53 53 53 55 57 58 58 58 57 55 54 53 52 51 51 50 51 50 50 49 48 47 46 45 43 42 41
60 59 58 57 57 55 54 54 53 51 51 51 51 51 52 53 54 53 53 53 54 54 58 59 58 57 56 53 52 51 50 50 50 50 50 50 49 48 46 46 44 43 42
58 58 59 59 61 55 57 52 53 51 51 50 50 51 51 51 53 52 52 52 53 53 54 58 59 58 57 56 54 53 52 50 50 50 51 50 50 49 48 47 46 45 43
58 58 59 60 59 58 56 53 52 52 50 50 44 47 49 51 52 53 52 53 53 52 53 53 55 56 57 58 57 55 55 54 52 50 50 51 50 49 49 48 48 46 44
57 57 55 57 56 55 52 53 54 51 51 51 49 49 48 49 49 48 52 52 52 54 54 53 53 54 55 58 58 57 57 56 55 53 52 50 51 50 50 49 49 48 46
55 55 55 54 54 53 53 55 54 53 53 53 49 49 48 49 50 51 49 49 50 52 53 54 53 53 52 53 54 58 57 57 56 57 55 53 53 51 51 50 50 50 48
55 54 56 55 55 54 55 55 56 54 53 53 54 54 51 49 51 51 51 51 49 51 49 51 52 54 54 53 54 55 55 56 58 59 58 57 55 53 52 52 51 51 51
57 53 56 57 57 57 56 56 57 57 57 55 54 55 56 55 51 50 54 53 52 51 51 51 49 50 51 52 55 54 53 53 55 58 58 57 57 55 54 53 52 52 52
57 57 55 58 57 58 58 58 58 58 58 57 54 56 55 55 54 52 50 53 53 52 52 52 51 50 49 49 51 52 52 52 52 55 57 57 56 55 55 55 54 54 54
56 57 56 57 58 58 58 59 59 59 58 56 56 55 54 53 53 52 51 52 52 52 52 52 52 51 50 50 50 50 50 49 51 53 55 56 56 55 53 52 51 50 50
55 55 56 56 56 56 56 57 57 57 57 55 55 54 55 55 54 54 53 52 52 54 53 52 52 52 51 51 50 49 49 47 49 51 52 53 53 53 52 51 51 50 49
55 54 55 55 55 54 54 55 55 56 56 56 55 55 55 55 55 56 54 53 50 52 52 52 53 53 52 53 52 50 49 47 47 48 48 49 49 49 49 48 48 48 48
53 53 54 55 55 53 53 53 54 55 55 55 55 55 55 55 55 55 55 55 52 48 49 50 52 53 54 54 52 51 49 46 45 46 45 46 47 47 47 47 46 45 44
55 52 53 55 55 53 53 53 52 53 54 55 55 55 55 55 55 56 57 56 55 53 50 51 52 52 53 52 50 49 48 46 44 43 43 44 44 44 44 44 44 44 43
56 55 55 54 54 54 53 52 52 53 53 53 53 53 54 54 55 57 57 56 55 55 52 52 52 52 49 50 46 47 46 44 42 42 42 42 42 42 41 41 41 41 41
57 55 55 55 55 54 53 53 52 52 53 53 53 53 53 54 56 56 56 55 56 56 54 52 50 49 49 49 46 44 46 45 45 43 42 42 41 40 39 38 38 38 37
57 57 56 55 55 54 53 53 52 52 52 53 53 53 53 54 54 55 55 55 56 54 54 53 51 48 48 47 45 45 44 44 42 44 43 41 40 39 39 35 35 36 36
57 57 56 56 56 55 54 53 52 52 53 53 53 53 53 53 54 54 55 56 54 53 53 52 51 47 45 45 46 44 42 42 42 39 40 37 38 38 36 35 35 35 35
57 56 56 55 55 55 54 54 53 53 53 53 54 53 54 52 49 52 55 54 54 52 52 50 49 44 43 41 42 42 41 40 41 40 32 28 28 27 29 36 34 36 36
56 56 56 55 55 54 48 45 51 53 53 53 53 53 53 49 48 46 46 47 51 51 50 49 47 44 43 43 42 39 38 35 32 35 30 27 27 27 27 27 31 34 34
55 55 55 55 55 55 46 44 44 52 53 53 52 53 51 50 47 50 37 38 36 35 34 46 45 39 36 38 37 34 32 32 32 33 29 25 28 25 27 23 31 33 29
55 55 55 55 55 55 45 43 42 52 53 53 52 52 52 46 42 39 35 33 33 33 34 35 34 33 34 35 35 34 33 33 33 30 28 25 25 26 28 28 31 33 32
55 55 55 54 54 54 44 42 43 51 48 39 39 39 39 37 37 37 34 32 29 29 33 34 33 33 32 31 32 33 30 29 30 25 26 25 24 25 26 25 24 28 31
55 55 54 51 48 52 40 41 45 43 35 33 33 34 34 34 34 35 34 31 28 26 26 25 26 27 27 24 24 27 25 27 27 24 22 25 21 21 22 23 24 23 25

GFSMA_sfc_dewp_081.txt.gz
Dewpoint
62 62 61 59 57 57 55 53 53 50 50 50 51 52 53 54 54 55 56 59 59 59 57 57 57 56 55 55 54 54 53 53 52 51 50 50 50 49 48 48 48 48 48
63 61 57 54 54 54 51 52 53 51 50 51 52 52 53 54 54 55 56 57 59 59 58 57 56 56 55 54 54 53 53 53 52 52 50 49 48 48 47 46 46 46 45
62 59 53 53 52 53 49 51 53 53 52 52 51 53 53 53 54 55 55 56 57 58 59 58 57 56 55 55 53 53 53 52 52 51 50 49 48 48 47 46 44 43 42
61 59 52 54 52 54 50 53 53 51 51 51 51 52 52 53 53 54 54 55 56 55 57 59 58 58 56 54 53 53 53 52 52 52 51 50 49 48 47 46 45 44 42
61 60 55 56 55 55 52 53 52 50 50 50 50 50 51 53 53 53 53 54 55 55 55 58 58 58 57 56 54 53 53 52 52 52 52 51 51 50 48 48 47 46 44
59 59 59 60 58 57 55 52 50 51 50 50 48 49 50 52 53 53 53 53 54 54 55 55 56 55 57 58 57 55 55 54 52 52 52 52 52 51 50 49 49 48 46
58 57 59 59 59 57 53 51 51 50 48 49 48 47 46 48 50 51 53 52 53 53 54 54 55 55 55 58 58 57 57 57 55 53 52 52 53 52 51 51 50 49 49
56 55 57 58 56 54 53 52 51 52 49 51 47 47 44 46 48 48 48 52 52 52 52 53 53 54 54 55 55 58 58 58 57 56 55 55 55 54 52 52 51 51 50
56 55 55 56 54 54 52 52 52 51 51 52 48 51 49 46 48 49 49 48 48 51 52 53 53 53 53 53 55 56 56 56 58 59 59 58 56 55 54 53 52 52 52
56 54 55 54 54 54 52 53 53 51 54 51 53 55 54 53 49 49 52 51 50 48 49 50 53 53 53 53 54 53 53 53 55 58 59 59 59 57 56 55 54 53 53
56 54 55 56 54 56 56 55 55 56 56 53 51 53 53 53 53 50 49 52 53 52 51 50 50 51 53 54 54 53 52 51 52 55 57 59 59 58 58 56 56 56 55
55 55 55 56 55 57 57 56 57 57 57 55 54 54 52 52 52 51 49 49 51 52 52 52 51 51 50 50 51 52 51 50 51 53 55 56 58 58 57 57 57 55 55
54 55 56 57 56 57 58 58 58 57 57 56 55 54 55 54 54 53 52 50 50 52 52 52 52 53 50 50 49 50 50 48 49 52 53 54 55 57 57 56 55 53 53
54 52 55 56 56 57 57 57 57 57 56 56 55 55 54 55 55 55 53 51 49 51 52 51 52 51 51 51 50 49 48 47 46 48 50 52 53 54 53 53 53 53 52
55 55 53 55 56 55 55 55 55 55 55 55 54 54 54 54 55 55 55 55 52 48 47 50 52 53 52 52 51 52 51 49 47 46 47 49 50 50 50 49 49 50 49
54 55 54 54 55 55 54 54 53 53 54 55 55 54 54 54 54 55 55 55 55 52 49 50 51 52 53 53 52 52 52 50 46 45 46 46 46 47 47 47 47 47 46
55 53 53 53 54 54 53 52 52 51 53 53 54 54 54 54 54 55 55 55 54 54 52 52 52 52 50 53 53 52 51 49 46 44 43 44 44 44 44 44 44 44 44
57 55 53 52 52 53 54 52 52 51 51 52 53 53 54 54 54 55 55 54 54 54 53 52 53 48 50 50 51 48 48 46 45 44 43 43 43 42 42 41 41 40 40
56 56 55 54 52 52 53 53 52 51 51 51 52 52 52 52 52 52 53 54 54 54 55 53 52 50 51 47 47 46 47 47 46 45 42 42 42 42 41 40 39 37 36
56 56 55 55 55 53 53 52 52 52 51 51 52 52 52 52 52 52 53 54 55 54 55 54 53 52 48 46 48 47 44 46 45 44 44 42 42 41 41 39 37 35 36
56 56 56 55 55 55 54 54 53 53 52 51 51 52 53 52 49 51 53 54 54 54 54 53 52 51 44 42 44 46 45 44 42 43 42 40 39 38 37 37 34 37 37
56 57 56 56 55 55 49 46 51 53 52 51 51 51 52 48 48 44 45 46 51 54 52 52 52 50 48 46 46 44 41 37 36 40 37 36 34 34 33 32 35 35 36
56 56 57 56 56 55 46 45 44 53 53 52 52 52 52 52 48 51 41 39 37 37 36 49 51 50 43 41 38 35 34 34 33 36 35 32 34 33 31 26 31 33 35
55 55 55 56 56 55 46 43 42 52 53 53 53 53 52 49 47 43 37 35 33 34 35 37 38 36 36 37 37 36 35 34 34 35 35 30 30 28 29 31 33 34 34
55 55 55 55 55 55 45 44 43 50 52 52 43 43 49 45 39 39 36 32 31 31 34 35 34 34 34 35 35 34 32 31 29 30 31 30 29 27 27 27 27 30 28
55 55 55 55 51 55 44 43 44 52 45 36 35 35 36 38 36 36 34 32 29 29 29 29 28 29 31 31 31 32 32 29 29 26 25 26 23 23 22 25 23 23 25

GFSMA_sfc_dewp_084.txt.gz
Dewpoint
63 62 62 60 59 58 56 53 51 50 50 52 53 53 54 54 55 55 56 59 59 59 58 58 58 57 56 56 56 55 54 54 54 52 52 52 51 50 50 50 50 50 49
62 61 60 58 58 56 54 52 51 49 49 51 52 53 54 54 55 55 56 57 59 59 59 58 57 57 57 56 55 55 54 53 53 51 51 51 50 49 48 48 48 48 46
61 59 57 56 56 53 51 52 51 51 49 51 52 53 54 54 55 55 55 56 57 58 59 58 58 56 56 55 55 54 54 53 53 52 51 49 49 48 47 47 46 46 45
61 56 54 54 54 51 51 52 51 51 51 51 52 53 53 54 54 55 55 55 55 55 58 59 58 58 57 55 55 55 55 54 53 53 51 50 49 49 48 46 46 45 44
60 55 52 54 54 49 52 53 52 51 51 51 52 53 53 53 54 54 54 55 55 55 55 58 58 58 58 57 55 55 55 54 54 54 53 52 51 50 49 48 47 46 45
60 56 54 56 55 49 52 53 51 51 51 51 49 51 53 53 53 54 54 54 54 55 55 55 56 56 57 58 57 55 55 55 55 54 54 53 53 52 51 50 49 48 47
60 58 56 57 56 51 51 52 51 50 50 51 49 48 48 52 53 53 53 53 53 54 54 55 55 55 55 58 58 57 57 56 55 55 54 54 54 53 53 52 51 50 50
59 59 56 57 55 56 53 52 50 50 49 49 48 46 44 45 49 51 53 53 53 53 54 54 54 55 54 54 56 58 58 58 57 57 55 56 56 56 53 53 53 52 51
57 59 57 57 58 56 53 51 50 49 48 50 48 50 47 44 46 48 49 52 52 53 53 53 53 54 55 54 55 56 56 56 59 60 59 58 57 56 56 54 53 53 53
56 55 57 56 57 56 54 52 50 49 51 49 50 53 52 51 46 46 50 49 49 52 53 53 52 53 53 54 55 54 53 53 55 58 60 60 59 58 57 57 56 55 54
56 55 55 55 55 57 55 53 52 53 52 51 49 53 53 53 51 49 48 50 51 50 49 51 53 53 53 53 53 53 52 52 53 56 58 59 60 59 59 58 57 57 57
56 55 55 55 54 57 57 55 55 54 55 52 52 52 52 52 51 50 48 48 49 51 51 51 50 51 53 54 54 52 51 50 51 53 55 57 58 59 59 59 58 58 58
54 55 55 55 55 55 55 55 56 55 55 54 52 51 52 53 53 52 50 48 49 51 52 52 52 52 51 51 51 52 52 49 50 51 53 54 55 56 57 58 58 59 58
54 54 55 56 56 55 56 56 56 56 56 55 54 53 53 53 54 53 51 50 48 50 51 51 52 53 52 51 50 49 50 48 48 49 51 52 53 54 55 55 57 57 57
53 53 54 56 56 57 57 57 56 56 57 56 55 55 54 54 55 55 55 53 50 47 47 48 51 53 52 52 51 50 49 48 46 46 47 49 51 52 53 54 55 55 54
54 53 53 55 56 56 56 56 56 56 56 56 55 55 54 54 54 55 55 55 54 51 49 49 50 53 53 52 51 51 51 49 47 45 45 45 47 49 50 52 52 51 50
55 54 54 53 54 55 55 55 55 55 55 55 55 54 54 53 53 54 55 54 54 53 51 51 53 53 52 53 53 53 53 52 52 47 45 45 45 46 47 47 47 48 48
56 55 54 54 53 53 54 54 53 53 53 53 53 53 53 53 53 53 53 53 53 54 52 51 51 51 50 52 53 54 53 53 52 49 45 45 45 45 44 44 44 44 44
56 56 54 54 53 53 53 53 53 52 51 51 51 52 52 53 53 53 53 53 53 53 53 53 51 52 53 49 49 48 48 50 49 47 44 43 43 44 43 43 43 42 42
57 56 56 54 53 53 53 53 53 52 51 51 51 51 51 51 52 52 53 53 53 53 53 53 52 52 53 50 50 49 47 47 48 48 45 43 43 43 43 42 42 41 40
56 56 56 56 55 54 52 52 52 52 52 51 51 51 51 50 48 50 51 51 51 51 51 51 52 53 50 44 47 49 50 49 45 44 44 44 42 42 42 41 40 38 37
55 56 56 55 55 55 49 45 49 52 52 51 50 50 51 47 47 44 44 45 49 51 51 51 51 51 52 49 50 49 47 39 38 41 39 37 39 39 39 39 38 38 38
56 56 55 56 55 55 47 46 44 53 53 52 52 51 51 51 47 51 44 42 40 39 40 51 52 52 51 52 50 45 43 40 35 37 36 33 35 35 37 37 37 37 38
56 56 56 56 56 56 47 44 43 53 54 54 53 52 52 51 50 49 46 43 41 37 37 38 42 43 39 40 43 41 38 33 34 34 35 31 32 32 34 35 35 36 34
56 55 56 56 56 56 46 44 44 52 53 54 54 53 53 51 48 44 44 39 32 32 35 36 35 35 35 35 37 36 33 33 30 30 30 31 31 31 31 31 32 30 27
56 56 55 56 53 56 48 45 46 53 51 52 52 41 37 45 44 40 47 39 34 31 31 31 30 30 31 31 31 33 33 30 28 26 25 28 25 26 24 27 26 25 24

GFSMA_sfc_dewp_087.txt.gz
Dewpoint
63 64 63 62 60 59 57 55 51 51 52 53 54 54 54 55 55 56 57 60 60 60 59 59 58 58 57 57 56 55 55 55 55 54 54 53 52 52 52 52 52 51 50
63 62 61 60 59 58 56 53 50 51 52 53 54 54 54 55 55 55 56 58 59 60 60 58 58 57 57 56 56 55 55 55 54 53 53 52 51 51 51 51 51 49 47
63 61 60 58 57 56 54 53 50 50 52 53 53 54 54 55 55 55 56 56 58 58 59 59 58 57 57 56 55 55 54 54 53 52 52 52 51 50 49 49 49 47 47
62 60 58 57 56 54 53 52 50 50 52 53 53 54 54 54 54 55 55 55 56 56 58 59 58 58 57 56 56 56 55 54 53 52 52 51 50 49 48 48 47 46 46
60 58 56 55 53 52 52 51 51 50 52 52 53 53 54 54 54 54 54 55 55 55 55 58 58 58 58 57 56 56 56 55 54 54 52 51 51 50 49 48 47 47 46
59 56 56 55 53 51 52 52 50 51 51 52 52 52 53 54 54 54 54 54 55 55 55 56 56 56 58 58 56 56 57 56 56 55 54 53 52 51 51 50 49 49 48
58 56 56 55 52 49 51 52 51 50 51 51 50 49 50 53 53 53 54 54 54 54 54 54 56 55 56 58 59 57 57 57 57 56 56 55 54 54 53 52 51 51 50
58 56 56 54 51 48 52 52 50 50 50 51 50 47 47 49 51 52 53 53 53 54 54 54 54 55 54 55 56 58 57 58 57 57 56 57 57 56 54 54 53 52 52
60 58 58 55 54 49 52 52 51 50 49 50 50 50 46 46 48 50 51 53 52 53 53 54 54 54 55 54 55 56 56 56 59 60 59 58 57 57 57 56 55 54 54
60 59 57 58 56 56 53 52 51 50 51 49 49 51 50 49 47 46 50 51 52 52 52 53 53 54 54 54 55 54 53 53 55 58 60 60 60 58 58 58 57 57 56
58 58 58 58 57 56 54 53 52 51 52 51 48 52 52 52 51 48 46 49 50 51 52 53 53 53 53 54 54 54 52 51 53 56 58 59 60 60 59 58 58 58 58
57 56 57 56 56 56 55 54 54 52 52 52 51 51 51 51 51 50 48 49 48 49 50 51 52 53 53 53 53 52 52 51 51 54 56 57 58 59 60 60 60 59 59
55 55 55 56 55 57 57 56 55 54 54 52 51 50 52 53 53 52 50 48 49 51 51 51 50 50 51 54 53 52 51 49 50 52 53 55 56 57 57 58 60 60 60
55 55 54 55 55 55 56 56 55 55 55 54 52 51 51 52 53 53 52 50 48 48 50 50 52 52 51 51 51 50 53 49 49 49 51 52 53 54 55 56 56 57 58
54 55 55 55 55 55 55 56 56 54 54 55 54 53 51 52 54 54 53 52 50 47 46 48 50 52 53 53 52 52 50 49 48 48 48 49 51 52 53 53 54 55 56
53 53 54 55 56 56 55 55 55 55 55 55 54 54 53 52 54 54 54 54 53 51 48 48 49 51 53 52 52 52 51 49 47 45 46 47 48 50 51 51 52 53 54
54 53 53 54 54 55 56 55 55 54 55 54 54 54 54 54 54 54 55 54 54 53 51 51 51 52 52 52 53 52 52 52 52 46 45 45 45 45 47 48 49 49 50
56 54 53 53 53 54 55 55 55 55 54 54 54 54 54 54 54 54 54 53 52 51 51 50 51 52 52 52 53 53 53 53 53 50 47 46 45 45 44 45 46 47 47
56 56 55 54 53 53 53 54 54 54 53 54 54 54 53 53 53 53 53 52 52 52 53 52 50 51 52 52 51 51 52 53 53 51 47 45 45 45 45 45 45 45 45
56 56 56 55 54 54 52 52 53 53 53 53 53 52 52 53 52 52 52 52 52 52 52 52 52 51 52 52 50 50 49 49 51 51 47 45 44 44 44 44 43 43 43
56 56 56 55 55 54 54 53 52 52 52 52 52 52 52 51 48 50 51 51 52 51 51 51 51 51 51 49 49 51 50 51 51 50 48 46 45 44 44 43 43 43 41
56 56 56 56 55 54 48 45 50 53 52 52 51 51 51 47 47 43 44 44 48 51 50 50 50 49 49 50 51 51 51 49 46 44 45 41 42 41 43 43 41 39 37
56 56 56 56 55 55 48 45 44 52 52 52 52 52 52 51 47 50 44 42 42 42 44 50 49 49 50 50 51 50 50 50 48 39 37 33 35 36 38 38 38 38 38
56 56 56 56 56 56 48 47 45 51 52 52 52 52 52 52 51 49 48 48 46 48 46 46 48 50 51 47 48 49 51 40 34 33 35 32 33 32 35 37 37 37 37
47 49 56 56 56 56 48 45 45 52 52 52 53 53 53 52 49 45 49 48 47 34 36 36 35 35 35 36 39 39 35 36 31 29 29 31 31 31 32 32 34 35 34
43 45 47 45 39 41 36 37 42 53 52 52 52 53 47 51 46 42 48 49 46 36 32 30 29 29 29 30 30 32 35 36 28 25 26 27 27 28 26 28 28 26 24

GFSMA_sfc_dewp_090.txt.gz
Dewpoint
62 63 63 64 63 61 58 53 54 56 54 55 55 55 55 56 56 57 57 60 60 60 59 59 59 59 58 57 56 55 56 55 55 55 55 54 54 53 54 53 53 52 51
62 63 63 62 61 60 57 53 53 54 54 54 54 55 55 55 55 56 57 58 59 60 59 58 59 58 57 57 56 56 56 55 55 54 54 54 53 53 53 53 52 50 49
62 62 63 61 60 58 54 51 52 53 54 54 54 54 55 55 55 56 56 57 58 58 59 59 58 57 57 57 56 56 55 55 54 54 54 53 52 52 52 52 51 49 48
63 62 61 60 59 57 54 51 51 52 53 53 54 54 54 55 55 56 56 56 57 57 58 59 59 57 57 57 56 56 55 55 54 54 53 52 52 51 50 50 50 48 47
62 61 59 58 57 56 54 51 51 53 53 53 53 54 54 54 55 55 55 55 56 56 56 58 58 58 58 57 56 57 56 55 54 53 53 52 51 50 50 49 49 48 47
60 59 58 56 55 54 53 51 50 53 53 53 52 53 53 54 54 55 55 55 55 55 55 56 57 56 57 58 57 57 57 57 56 55 54 53 52 52 51 50 50 49 49
59 57 56 55 53 52 52 51 51 52 52 53 51 50 51 53 54 54 54 54 55 55 55 55 56 55 56 58 59 57 57 58 57 56 56 55 54 53 53 52 51 51 50
58 57 56 54 51 51 52 50 51 51 51 53 51 49 48 50 52 53 54 54 54 55 54 55 55 55 55 56 57 59 58 58 58 58 57 58 58 57 55 54 53 53 52
58 58 57 55 52 51 52 52 50 50 50 51 52 50 47 48 50 51 52 53 53 54 54 54 54 55 55 55 56 56 56 57 59 60 59 59 59 58 58 57 56 55 54
58 58 56 55 53 52 53 52 51 51 52 50 50 51 50 50 49 47 50 52 53 53 54 54 54 54 55 55 55 54 53 53 55 58 60 60 60 59 59 59 58 58 57
58 58 57 55 54 53 53 53 52 52 52 51 50 52 52 52 50 48 46 49 52 52 53 53 54 54 54 54 55 54 52 52 53 55 57 59 60 61 60 59 59 59 58
58 58 58 56 54 54 54 54 54 52 52 52 51 52 51 50 50 50 48 49 49 50 52 53 53 53 54 54 54 53 52 51 51 53 55 57 58 59 60 61 60 59 59
56 58 57 57 55 51 49 54 54 53 52 52 52 50 52 51 53 52 50 49 49 50 50 51 53 53 53 54 54 52 52 50 50 52 53 54 56 57 57 58 59 61 61
56 56 57 57 55 55 54 55 54 53 53 52 52 52 51 52 53 53 51 50 48 49 50 50 52 51 51 52 53 51 53 49 48 49 51 52 53 54 55 56 57 57 58
56 55 55 56 56 55 56 55 54 55 55 54 53 52 51 52 54 54 54 52 49 47 47 49 50 53 52 51 51 51 52 50 48 48 48 49 51 52 52 53 54 55 56
54 54 54 54 55 54 55 56 55 55 55 55 55 54 54 53 53 54 54 53 52 49 47 49 49 51 53 53 53 52 52 50 48 46 46 47 48 50 50 51 52 52 54
53 54 54 54 54 55 55 54 55 55 54 54 54 54 53 53 52 53 54 53 53 52 49 49 52 52 52 52 52 53 53 53 52 46 45 45 45 46 47 48 49 50 51
54 53 53 54 54 54 55 54 54 54 54 54 54 54 53 53 53 53 53 52 52 53 52 50 52 52 52 53 52 53 52 52 52 50 47 46 45 45 44 45 45 46 47
56 55 53 53 53 53 54 55 55 54 54 54 54 53 53 54 53 53 54 53 53 53 53 52 50 52 52 52 52 52 53 53 53 51 48 46 46 45 45 44 44 45 45
56 56 56 55 54 53 53 53 54 54 54 54 54 54 54 54 53 53 53 53 53 52 52 52 51 51 52 52 52 51 51 51 52 52 51 49 48 46 45 45 44 45 45
56 56 56 55 55 54 54 53 53 53 53 53 53 53 54 52 49 51 53 52 52 51 51 50 50 51 51 51 50 51 50 51 52 51 52 51 49 48 47 44 46 45 44
56 56 56 55 55 55 48 45 50 52 52 52 52 52 52 48 48 44 44 45 49 51 51 50 50 49 49 50 51 51 51 50 49 51 50 50 46 47 46 45 43 43 42
56 57 56 56 56 55 47 46 44 52 53 52 52 52 52 52 48 51 45 42 42 41 43 50 50 49 49 49 50 50 50 50 49 50 46 42 37 37 39 41 41 39 38
46 49 50 54 56 56 42 43 43 51 53 53 53 53 52 52 52 51 50 50 47 48 47 46 48 50 51 51 51 50 50 49 38 34 36 36 34 32 36 38 39 39 38
42 44 43 39 37 39 35 36 38 50 52 53 53 53 53 53 49 46 50 49 48 47 36 38 36 34 34 34 35 44 41 37 33 30 28 32 31 31 30 31 32 34 34
39 39 35 34 32 33 33 35 36 41 48 51 52 52 43 37 35 39 48 50 48 47 33 30 29 29 29 30 29 30 33 41 33 27 27 28 27 29 25 28 26 27 28

GFSMA_sfc_dewp_093.txt.gz
Dewpoint
64 64 64 65 64 62 61 62 60 60 59 58 58 57 57 57 57 55 55 60 61 60 59 60 60 60 59 59 58 57 56 56 56 56 55 55 55 55 55 54 53 53 52
64 65 64 64 64 61 60 61 59 59 58 57 57 57 57 57 57 57 55 56 60 61 61 60 60 59 59 58 57 56 56 56 56 56 55 55 54 54 54 54 53 52 51
64 64 63 63 63 62 59 60 59 58 57 56 56 57 56 56 56 57 57 56 57 59 60 61 61 60 59 58 56 56 56 56 55 55 55 54 54 54 54 53 52 50 50
63 62 62 62 61 58 57 57 56 56 56 56 55 55 54 55 56 57 57 56 55 55 58 59 60 59 58 57 56 57 56 56 55 55 55 54 53 53 53 53 52 50 49
62 62 62 61 60 58 57 56 56 56 55 55 54 55 55 54 56 55 57 57 57 55 56 58 58 58 59 58 57 57 57 56 55 55 55 54 53 52 52 52 52 50 49
62 62 61 60 60 58 56 56 56 56 55 55 52 53 55 55 55 56 56 55 56 57 56 56 55 55 58 59 58 57 57 57 56 55 55 54 53 52 51 51 51 50 50
60 59 59 59 60 58 55 56 55 56 55 55 54 54 55 56 56 55 56 55 56 56 57 56 55 54 55 58 59 57 57 58 57 56 56 55 54 53 53 52 52 51 51
59 59 58 57 57 56 54 54 55 54 54 55 53 52 51 52 54 55 55 55 56 55 55 56 56 56 55 55 56 59 58 59 59 58 57 58 57 55 55 54 53 53 53
59 58 58 57 56 55 53 54 55 55 53 54 55 52 51 49 52 53 55 55 55 55 55 55 56 56 56 55 56 57 57 57 59 60 60 59 59 59 58 58 57 55 55
59 58 56 54 54 55 54 53 53 55 55 53 54 52 54 53 50 50 53 54 54 54 55 55 55 56 56 56 56 54 53 53 55 59 60 61 60 60 60 59 59 59 58
59 58 57 55 54 54 54 53 53 55 55 54 53 53 53 53 54 52 50 51 53 53 54 55 55 55 55 55 55 55 53 52 53 56 58 59 60 61 60 60 60 59 59
58 58 57 56 54 54 55 55 54 54 55 55 54 54 52 51 51 51 50 51 51 52 54 54 55 55 55 55 55 53 52 51 51 53 55 57 58 59 60 61 61 60 60
57 57 57 56 55 54 53 53 54 53 55 54 55 54 53 52 52 52 51 49 50 53 52 54 55 55 54 56 55 53 52 50 50 52 53 55 56 57 58 58 59 60 61
57 58 57 56 55 53 52 52 54 53 54 55 54 53 53 54 53 53 50 51 50 51 51 51 53 54 55 55 55 51 54 49 49 50 51 52 53 54 55 56 57 58 59
58 58 58 56 55 53 52 51 53 53 54 55 54 54 53 54 55 53 55 53 51 49 47 50 51 54 53 54 53 55 55 52 49 48 48 50 51 52 53 53 54 55 56
57 57 57 57 57 54 51 51 52 52 53 54 54 53 54 53 54 55 55 54 54 51 49 48 49 53 54 52 52 52 52 50 48 47 47 47 48 50 50 51 51 52 53
57 58 57 57 56 56 56 55 55 53 54 54 55 54 53 53 53 53 54 54 53 53 51 50 50 54 54 55 54 55 53 53 52 47 46 46 46 46 47 48 48 49 50
57 57 57 57 56 57 57 57 56 55 55 53 53 56 55 54 54 54 53 53 54 54 51 50 51 52 55 55 53 52 52 52 52 50 47 46 46 45 45 45 46 46 47
56 56 56 56 56 56 56 56 55 55 55 56 55 55 55 56 56 55 55 54 54 53 53 53 52 53 53 55 54 54 53 53 53 50 47 46 46 46 45 45 44 45 45
57 56 55 55 55 55 55 55 55 55 55 55 56 57 56 56 56 57 56 56 55 55 55 53 53 53 53 54 55 54 54 55 55 53 51 49 48 47 46 46 44 44 45
57 57 57 56 56 55 54 55 55 55 55 55 56 55 56 55 50 53 54 56 56 55 54 53 53 53 53 53 53 53 53 53 54 56 55 56 56 55 55 47 48 45 45
57 57 57 56 57 55 48 45 51 55 54 54 55 55 56 50 51 45 46 46 52 55 54 52 51 50 50 50 51 52 52 51 50 54 54 54 55 55 55 54 46 44 43
49 51 52 54 56 48 36 39 42 53 53 53 53 53 53 53 50 54 47 43 44 43 44 52 51 51 51 51 51 51 51 51 50 52 52 51 43 41 39 40 41 41 41
45 46 41 39 42 35 35 35 35 44 52 54 54 53 53 53 53 52 52 52 51 51 49 48 50 52 50 44 46 50 51 51 50 39 38 45 35 32 33 33 37 38 37
41 38 36 34 35 33 34 34 35 42 48 51 53 46 38 41 36 39 48 51 50 49 36 39 34 33 33 32 33 38 41 39 45 33 29 33 32 28 27 27 31 32 32
35 33 31 31 31 31 33 33 35 40 42 38 34 32 32 34 34 35 41 43 45 44 33 31 29 29 29 29 29 29 31 34 35 31 28 29 28 30 24 26 27 28 29

GFSMA_sfc_dewp_096.txt.gz
Dewpoint
66 64 64 65 65 65 66 65 64 64 63 61 59 59 58 56 55 52 55 60 61 61 60 60 59 60 60 59 58 57 56 56 56 56 56 56 56 56 55 55 54 54 53
65 65 64 65 66 64 65 64 64 64 62 59 59 58 57 56 55 54 53 58 60 60 61 60 60 60 59 59 58 57 57 56 56 56 56 56 56 56 55 54 54 53 53
65 65 66 65 64 63 64 63 63 63 61 57 58 57 56 54 53 53 53 55 57 60 60 61 61 60 59 59 58 56 56 56 56 56 56 55 55 55 55 54 53 53 52
64 65 64 65 64 62 62 61 62 60 58 57 57 56 54 53 54 54 53 54 55 55 59 60 61 61 60 59 57 57 56 56 55 56 56 55 55 55 55 54 53 52 51
64 64 64 63 62 61 61 61 61 60 58 57 55 55 53 53 55 53 54 54 55 55 55 59 60 59 60 59 56 57 57 56 56 56 56 55 54 54 54 54 53 52 51
63 63 63 62 60 59 59 60 60 61 59 56 52 53 54 54 55 55 55 53 53 55 55 56 56 55 58 59 58 57 57 58 57 56 56 55 55 54 53 54 53 53 52
62 62 62 61 60 58 58 59 60 59 59 57 53 55 55 55 55 54 55 53 52 53 55 55 53 52 54 58 59 58 58 58 58 57 56 56 55 55 54 53 53 53 52
60 61 61 60 59 58 58 59 59 58 57 57 54 53 53 54 55 55 55 53 53 52 52 53 54 53 53 54 55 59 59 59 59 58 57 58 57 57 55 54 54 53 53
60 59 60 60 59 59 58 59 59 58 55 56 57 52 51 49 52 54 55 54 54 52 52 53 54 54 55 53 55 56 57 57 60 61 60 59 59 59 58 57 57 56 55
59 59 59 59 59 59 59 57 58 58 57 55 55 53 53 50 49 51 53 55 55 54 55 52 53 55 55 55 55 54 53 53 55 59 60 61 60 60 60 59 59 59 58
60 59 59 59 59 59 58 59 59 59 57 56 55 55 55 55 53 49 49 52 53 53 53 54 53 54 55 55 55 54 52 52 53 56 58 60 61 61 61 60 60 60 60
59 58 57 57 58 58 58 57 57 57 56 57 55 55 53 52 52 50 44 50 51 52 53 54 56 56 56 56 55 53 52 51 51 54 56 57 58 59 60 61 61 61 61
58 57 57 56 56 57 56 55 56 55 56 56 56 55 54 53 51 50 47 44 48 49 53 55 55 55 54 55 55 53 52 50 50 52 53 55 56 57 57 58 59 60 61
58 58 57 57 56 56 56 56 55 55 56 57 56 57 55 55 53 51 49 45 44 45 48 50 54 55 55 55 55 52 55 49 49 50 51 52 53 54 55 56 57 57 58
58 58 57 57 56 55 54 53 52 54 54 55 56 57 55 55 56 53 52 49 47 48 44 49 50 54 54 55 54 56 56 52 49 48 48 50 51 52 53 53 54 55 56
59 58 58 56 55 55 55 54 52 52 52 54 53 54 55 53 54 55 54 54 55 52 50 48 50 51 54 51 53 56 55 51 49 48 47 47 48 50 50 51 51 52 53
58 58 58 57 55 54 53 53 52 52 52 53 53 54 54 54 53 55 57 57 55 54 51 51 51 51 53 53 53 54 54 54 52 47 46 46 46 46 47 48 48 50 50
57 58 58 57 56 55 54 51 51 51 51 50 51 53 53 53 54 54 54 54 53 54 53 51 52 52 53 54 55 54 52 51 54 49 47 46 46 45 45 45 46 46 47
58 58 58 57 57 57 56 55 54 53 53 53 53 51 51 53 53 54 54 53 53 53 54 54 54 53 53 53 53 55 56 56 53 50 47 46 46 46 46 45 45 45 45
57 57 57 58 58 57 57 57 57 57 57 56 56 55 54 53 54 56 56 56 56 57 56 55 54 53 54 54 55 54 55 55 55 52 49 48 48 47 46 46 45 45 45
57 56 56 56 57 57 55 57 56 56 56 56 56 56 57 55 51 52 55 56 56 57 56 56 54 54 54 53 53 54 54 55 56 56 54 55 55 56 55 47 48 46 45
56 57 57 57 56 44 36 38 46 56 56 55 55 56 56 51 51 45 44 45 51 55 54 54 53 53 54 54 55 55 55 53 51 55 54 54 55 55 48 41 40 41 43
48 46 45 41 38 36 35 36 36 48 55 56 56 55 55 54 51 55 49 44 44 43 42 52 53 54 53 53 53 53 53 53 53 54 52 52 42 34 34 35 38 39 40
41 39 38 39 36 33 34 34 34 44 48 51 49 42 43 46 42 40 49 53 52 51 50 50 51 46 37 35 38 42 43 44 46 35 37 38 33 28 30 32 35 35 34
36 34 34 34 33 32 33 33 37 43 41 37 33 33 34 34 34 35 41 46 48 43 34 33 33 32 30 30 31 38 38 36 41 35 33 34 32 28 28 28 30 33 33
33 32 31 32 32 31 31 32 37 40 36 33 30 30 30 31 31 32 37 39 39 33 33 31 28 27 26 26 26 27 28 33 35 34 27 31 31 29 24 28 29 31 31

GFSMA_sfc_dewp_099.txt.gz
Dewpoint
66 66 65 66 67 65 66 66 64 64 63 63 63 60 57 55 54 57 58 61 62 62 60 61 60 61 60 60 59 58 56 57 57 57 56 57 57 57 56 56 55 55 54
67 65 65 65 66 64 65 64 63 63 63 63 62 59 56 54 53 54 56 57 61 61 61 61 61 61 60 59 58 58 57 57 57 56 56 56 57 56 56 55 55 54 53
66 65 66 66 65 66 64 64 63 63 62 63 59 57 55 55 53 52 54 55 57 60 61 61 61 61 60 59 59 57 57 57 57 56 56 56 56 56 55 55 54 54 53
66 64 65 65 66 65 65 63 63 62 62 62 58 54 53 52 52 52 53 55 56 55 59 61 61 61 61 59 57 56 57 57 56 57 55 56 56 56 56 55 54 54 53
65 66 65 66 66 64 63 63 62 62 61 60 55 55 53 50 51 48 52 53 56 56 56 60 60 60 61 60 57 58 58 57 56 57 56 56 56 55 55 55 55 54 53
64 64 65 64 64 63 62 62 61 61 61 58 52 54 54 56 55 53 52 50 53 55 55 57 58 57 59 60 59 57 57 58 56 56 57 56 56 55 55 55 55 55 54
64 64 63 62 61 60 60 61 61 59 59 61 56 56 57 57 57 55 56 54 53 53 54 56 55 53 55 59 59 58 58 58 58 57 57 57 56 57 56 55 55 55 54
64 63 62 61 60 60 59 60 60 59 60 59 55 54 53 54 56 56 56 53 55 50 52 53 53 53 53 54 55 59 58 58 59 58 58 58 58 58 56 55 55 55 54
64 62 62 61 60 60 59 59 60 59 58 59 57 54 51 49 53 55 57 54 53 51 50 51 53 53 54 55 56 56 57 57 60 61 60 59 59 59 58 57 57 56 55
60 60 60 61 60 59 59 59 61 59 59 56 57 55 55 52 50 52 55 55 56 51 54 51 52 53 54 55 56 54 54 53 56 59 61 61 60 60 59 59 59 58 58
60 59 59 60 59 59 59 59 59 60 59 57 56 55 55 53 53 51 49 52 55 53 52 54 53 54 54 55 56 55 52 52 53 56 58 60 62 61 61 60 60 60 60
59 59 60 59 59 59 59 60 61 60 59 58 57 56 54 53 52 52 50 51 51 52 52 53 55 55 56 56 55 52 51 50 51 53 55 57 59 60 61 61 62 61 61
59 58 59 59 59 60 59 59 59 59 60 59 58 57 56 55 54 52 49 46 49 49 52 55 56 57 55 57 56 53 52 49 50 52 54 55 56 57 57 58 59 60 61
59 58 58 57 57 58 59 58 58 57 58 58 57 58 57 57 55 53 51 49 47 46 51 54 55 57 57 57 56 52 55 49 49 49 51 52 53 54 55 56 57 57 58
59 59 58 56 57 57 57 57 57 57 57 57 58 58 56 55 56 55 55 52 50 47 44 51 52 57 57 57 56 58 58 53 49 48 48 50 52 52 53 53 54 54 55
59 59 58 57 56 56 57 57 56 56 56 57 56 56 56 55 55 56 56 56 54 52 48 47 52 53 55 51 54 57 58 53 49 48 47 48 49 50 51 51 52 52 53
59 58 57 57 56 55 55 54 55 53 54 54 54 54 53 55 55 55 56 55 54 54 52 51 50 53 53 54 54 55 55 56 55 48 46 46 46 47 48 48 49 50 50
59 59 58 57 56 55 55 54 54 52 51 52 52 52 52 50 53 55 54 56 56 55 53 53 52 51 53 52 53 53 51 50 54 49 47 46 47 46 46 46 46 46 47
57 58 58 57 56 55 55 55 54 54 53 53 53 53 52 53 53 53 53 53 53 51 53 52 51 51 52 54 55 56 55 56 54 50 46 45 45 45 45 45 45 45 45
57 57 58 57 57 57 55 54 53 53 54 54 55 54 54 53 51 52 51 52 53 54 53 53 52 52 53 55 56 55 55 55 55 53 51 48 47 46 45 45 45 45 45
58 58 58 58 58 57 48 50 55 55 56 55 56 55 55 53 48 49 51 52 54 54 55 54 54 55 55 55 55 56 55 55 56 57 56 57 57 57 44 41 40 41 42
55 54 50 54 44 37 36 37 40 56 57 56 56 57 56 51 51 46 45 45 50 55 55 54 54 54 55 56 56 56 55 54 53 56 55 53 52 36 36 36 38 39 41
43 44 41 38 36 35 34 35 35 48 56 55 49 50 52 45 41 43 45 43 43 42 39 50 52 52 52 43 43 50 52 53 52 43 45 47 36 33 34 35 36 36 36
37 38 37 36 34 33 34 35 35 46 42 37 36 37 38 37 34 36 41 46 46 35 37 37 35 32 31 31 34 39 40 41 43 37 37 38 33 30 31 32 34 34 34
34 34 35 35 33 32 33 35 42 40 35 33 32 32 33 32 32 35 42 45 37 32 32 31 30 29 29 29 29 36 33 35 37 34 29 33 33 30 29 28 31 32 32
34 34 33 32 33 31 31 33 38 37 33 31 30 30 30 30 30 32 35 38 30 29 28 28 27 27 27 27 28 28 28 32 32 33 28 29 31 30 26 29 30 32 32

GFSMA_sfc_dewp_102.txt.gz
Dewpoint
66 66 66 66 65 65 64 64 63 64 63 63 64 62 61 61 58 59 61 62 62 62 60 60 60 61 61 61 60 59 58 57 56 58 58 57 58 59 58 57 57 56 55
66 65 65 65 66 65 65 64 63 63 62 63 63 63 59 60 59 58 60 61 61 62 61 60 61 61 60 60 59 58 57 57 57 57 57 58 59 58 58 56 55 55 54
67 65 65 65 66 65 65 64 63 63 62 63 62 62 58 55 56 57 57 59 60 60 61 62 62 62 60 59 58 58 57 58 57 56 56 57 57 57 57 56 55 54 54
66 66 65 65 65 65 64 63 62 62 62 62 62 62 56 55 53 55 56 56 57 57 60 61 62 62 61 60 59 57 56 57 56 56 55 57 57 57 56 56 55 55 54
66 65 64 64 64 64 64 63 62 60 60 61 61 61 55 53 54 53 55 55 56 57 58 60 60 60 61 61 58 56 57 57 56 56 56 57 56 57 57 56 55 55 54
65 65 64 64 64 64 63 63 61 61 61 60 61 60 52 53 53 54 54 56 56 56 56 58 59 59 59 61 59 57 57 57 56 57 57 57 57 57 56 56 56 55 55
64 64 64 63 63 62 62 62 61 60 60 60 59 57 57 57 56 55 55 55 55 56 57 57 57 57 58 59 60 58 57 59 58 57 57 57 58 58 58 56 56 56 56
64 64 63 63 63 62 61 61 60 59 59 60 57 53 52 54 55 55 55 55 55 53 56 56 56 56 56 57 57 59 57 59 58 58 59 59 59 59 58 56 56 56 56
63 63 63 62 61 61 60 60 60 58 57 59 59 53 52 50 53 55 55 55 54 55 52 54 54 54 54 55 55 56 57 57 59 61 60 59 59 59 59 58 57 56 56
63 63 62 62 61 60 60 60 61 59 58 57 58 55 53 53 50 51 55 55 55 55 54 53 53 53 54 55 55 54 54 53 56 59 61 61 60 60 60 59 59 59 58
61 60 60 61 60 60 60 60 60 60 59 57 55 55 54 54 53 51 51 53 54 55 53 54 54 53 53 55 56 55 53 52 53 56 59 61 62 61 60 60 60 60 60
60 59 59 60 60 60 59 59 59 59 59 59 57 56 54 53 52 52 51 52 51 52 54 53 54 55 54 55 55 53 51 51 51 53 56 58 59 61 62 62 61 61 61
58 58 59 59 59 59 59 60 60 60 59 59 58 56 56 55 55 53 51 52 52 53 54 55 54 54 54 56 55 52 52 49 50 52 53 55 56 57 59 60 61 62 62
58 58 59 59 59 59 60 60 60 60 59 59 58 57 57 56 56 54 53 49 48 49 53 53 55 55 55 55 55 52 54 49 48 49 51 53 53 54 55 56 57 58 59
59 58 58 58 58 59 59 58 57 57 58 58 58 57 57 57 56 55 55 55 51 48 48 53 54 55 55 56 55 55 55 52 49 48 48 50 51 52 53 54 54 55 56
58 58 57 57 57 57 57 58 57 57 57 57 58 58 57 55 55 55 55 56 55 53 48 49 52 54 56 56 56 56 56 53 49 47 47 47 48 50 51 51 52 53 53
59 58 57 57 56 57 57 57 57 57 56 56 56 56 56 55 53 54 55 55 54 54 52 51 51 53 54 54 54 54 56 56 56 48 47 47 47 47 48 48 49 50 51
58 57 58 56 56 56 56 56 55 56 55 55 56 55 55 54 54 55 55 55 54 53 52 50 52 52 51 51 52 53 52 52 53 51 48 47 47 46 46 46 46 47 47
58 58 57 57 56 55 55 55 55 54 54 54 54 54 53 52 51 51 52 53 54 54 53 52 51 51 52 51 51 51 52 52 51 49 46 46 46 46 46 46 46 46 45
58 58 58 57 56 55 55 55 55 54 53 53 53 53 53 53 52 51 51 51 51 53 52 52 52 51 51 51 52 51 51 53 54 54 51 48 47 45 44 43 42 42 42
57 58 58 57 55 53 43 49 54 54 54 53 54 54 53 52 49 51 51 52 52 50 51 51 51 51 52 53 53 55 55 55 55 57 57 58 52 43 39 39 39 40 41
49 47 47 43 40 36 36 37 41 54 54 54 55 55 55 49 48 43 42 42 47 51 51 52 52 54 54 54 52 52 52 52 51 45 48 50 41 36 35 36 37 37 37
42 40 38 37 35 35 35 37 36 49 45 43 42 44 45 40 38 41 42 41 37 37 36 47 50 48 43 36 38 44 48 47 46 40 43 43 36 32 33 34 35 35 35
37 36 35 34 34 33 35 37 39 39 36 34 35 35 35 34 34 36 40 38 34 32 33 33 33 32 31 31 33 37 39 40 41 32 32 35 33 30 30 32 33 34 34
33 33 33 32 32 32 35 37 36 35 33 32 32 33 32 32 33 36 42 35 31 30 32 32 31 30 30 30 30 36 32 34 34 30 29 30 32 29 29 29 31 32 32
33 32 31 31 32 31 34 36 35 34 32 31 31 31 31 31 32 34 34 32 28 28 28 28 28 28 29 29 29 29 29 30 29 29 28 29 30 30 26 29 30 31 32

GFSMA_sfc_dewp_105.txt.gz
Dewpoint
65 64 64 65 64 64 64 63 63 62 62 62 63 64 62 63 61 62 61 62 63 63 61 60 59 61 60 61 60 59 58 58 57 57 57 58 59 59 58 58 57 56 56
65 64 64 64 65 64 64 63 63 62 62 62 62 63 63 62 61 60 61 61 62 62 61 60 59 61 60 61 60 59 58 57 57 58 58 58 59 59 58 57 56 56 56
64 64 64 63 64 64 63 63 63 62 61 62 62 63 62 62 60 60 60 60 60 60 60 61 62 61 60 61 60 58 58 57 56 58 58 58 58 58 57 57 56 56 55
64 64 63 63 64 63 63 62 63 62 61 61 61 62 62 61 59 59 59 59 59 58 59 61 62 62 62 60 59 58 57 58 58 57 56 58 58 57 57 57 56 55 55
64 64 64 64 64 63 63 62 61 61 60 60 61 62 62 60 57 57 58 58 58 58 58 60 60 61 61 61 59 58 58 58 57 56 56 57 58 58 57 56 56 56 55
64 64 62 62 62 62 62 62 61 61 60 60 61 61 61 59 55 56 56 56 57 57 58 58 60 59 60 60 60 58 57 57 57 56 56 56 57 57 57 57 56 56 55
64 64 63 62 61 61 62 62 61 59 59 60 59 59 58 57 54 55 55 56 55 56 57 58 58 58 58 60 60 58 58 58 58 57 57 57 58 58 58 57 57 57 56
64 63 62 62 62 62 61 61 61 60 59 60 58 56 53 54 55 54 55 55 55 56 56 57 58 57 57 58 57 59 58 58 58 58 59 59 59 59 59 57 57 57 57
62 62 61 62 62 62 62 62 61 60 58 60 58 54 51 49 52 55 54 55 55 56 56 57 56 56 56 56 57 57 57 57 60 61 60 60 60 60 60 59 58 57 57
61 62 61 61 61 62 61 61 61 60 59 58 59 59 54 54 50 50 54 54 55 55 55 56 56 56 55 56 56 55 54 53 55 60 61 61 60 60 60 60 60 59 59
61 61 62 61 61 60 61 61 61 60 60 58 58 57 54 53 53 52 50 52 54 55 55 54 54 54 54 55 55 54 52 52 53 56 59 61 62 61 60 60 60 60 60
60 60 60 60 61 60 60 60 61 60 59 59 58 57 55 52 51 51 51 51 50 52 54 53 53 53 54 55 55 53 51 51 51 54 56 58 60 61 62 61 61 61 61
59 59 59 58 58 60 60 60 60 60 60 59 58 57 57 56 55 53 53 52 51 52 52 54 53 53 54 54 54 53 52 49 50 52 53 55 56 57 59 60 62 62 62
58 58 58 58 59 60 59 60 60 60 60 59 58 58 58 57 56 54 53 51 50 51 53 52 55 54 54 55 54 51 53 48 49 49 51 52 53 54 55 56 57 59 60
58 58 58 58 59 59 59 59 59 59 59 59 59 58 58 57 56 53 53 54 49 47 50 52 53 55 54 54 54 55 54 51 48 48 48 50 51 52 53 54 54 55 56
58 58 58 58 58 58 59 58 58 59 59 59 58 58 57 56 55 54 54 55 55 53 50 50 53 54 55 55 55 55 55 52 49 47 47 47 48 50 51 51 52 53 53
58 58 57 57 57 57 57 58 57 58 58 58 58 57 57 56 56 55 54 55 54 54 52 52 52 53 54 55 56 56 56 56 55 49 48 48 46 47 48 48 49 50 51
58 58 57 57 56 56 57 57 56 57 56 56 57 57 56 56 54 54 55 54 54 55 53 51 51 51 52 53 54 54 53 55 56 52 48 47 47 46 46 46 46 46 47
58 58 57 56 56 56 56 56 56 56 56 56 56 56 56 56 55 54 54 54 54 54 53 52 51 52 52 52 52 51 52 52 51 49 47 47 46 45 44 43 43 43 44
57 57 57 56 56 56 56 56 56 56 55 56 56 56 55 55 55 54 53 52 52 53 52 51 51 51 51 51 51 50 50 52 52 52 49 43 42 41 40 40 41 41 42
58 58 57 56 55 54 49 55 55 55 54 54 55 54 55 53 49 50 53 52 51 51 50 50 50 51 51 51 51 52 54 55 53 50 55 48 42 39 38 38 38 39 39
46 44 44 42 40 38 36 38 47 55 55 54 53 54 54 47 46 41 41 40 44 52 50 50 49 49 50 53 48 51 51 50 48 41 46 42 38 35 35 36 36 36 36
38 37 37 36 36 37 37 38 38 48 46 44 43 46 43 39 39 43 37 36 35 35 33 44 50 46 41 36 37 42 45 46 44 35 40 39 34 31 33 35 35 35 35
35 34 34 35 36 37 37 37 36 36 35 34 35 35 35 35 35 40 37 34 33 33 33 33 32 32 32 32 33 37 39 40 35 31 32 34 32 29 31 32 33 33 33
32 31 32 32 33 35 36 35 34 33 31 31 32 33 33 33 35 39 35 31 30 30 33 33 33 33 32 31 32 36 32 34 33 29 29 31 31 28 29 29 32 31 31
31 31 30 31 32 32 35 35 34 33 31 30 31 31 32 32 33 34 34 32 29 28 29 29 29 30 30 29 28 29 28 27 30 27 28 29 30 29 26 29 30 30 30

GFSMA_sfc_dewp_108.txt.gz
Dewpoint
64 64 65 65 65 64 63 62 61 61 61 61 61 62 61 63 63 64 64 63 64 64 63 62 61 60 60 61 61 59 58 58 58 57 56 56 56 56 56 58 57 57 57
64 64 64 64 64 64 63 62 62 61 60 61 61 62 62 63 63 63 63 62 62 63 62 61 60 60 60 60 60 59 58 58 58 57 57 58 58 56 58 58 57 57 56
64 63 63 63 63 64 63 62 61 61 60 61 60 62 62 62 62 62 62 61 61 60 61 61 61 62 60 60 60 60 59 58 58 58 58 58 58 58 58 57 57 56 56
64 64 63 63 63 63 63 62 62 62 61 61 60 60 61 62 61 62 62 60 60 59 59 60 61 62 61 61 59 60 59 56 57 59 58 58 58 58 58 57 56 56 55
64 64 63 63 63 62 62 62 62 62 61 61 60 60 61 61 61 62 61 59 59 58 57 60 60 60 61 61 59 59 58 58 57 58 58 58 58 58 58 57 56 56 55
64 63 63 62 62 62 62 62 62 62 60 60 60 61 60 60 60 61 60 59 58 57 58 58 60 59 59 61 61 59 57 59 58 58 56 57 58 58 58 57 57 56 56
64 63 63 62 62 61 62 62 61 60 59 60 60 59 59 58 58 59 59 58 57 57 57 58 59 59 59 60 60 58 58 58 58 56 56 57 58 59 59 58 58 57 56
64 64 63 62 61 60 61 61 60 60 59 60 58 58 55 55 56 58 57 56 56 56 56 57 57 58 58 58 58 59 59 57 58 59 59 58 59 59 59 58 58 58 57
63 63 63 62 61 61 61 61 61 59 58 60 59 56 52 51 54 55 56 56 55 55 56 56 57 57 57 57 58 57 56 57 59 60 60 60 60 60 60 59 58 58 57
63 62 62 61 61 62 62 62 62 61 58 57 58 58 54 53 51 51 55 55 55 55 55 56 56 57 56 56 56 55 54 53 56 60 60 60 60 60 60 60 60 59 58
62 62 61 61 61 62 62 61 61 61 60 58 58 57 55 53 53 52 51 53 54 55 55 56 56 56 56 56 56 55 53 52 53 56 59 61 61 61 61 60 60 60 60
61 62 61 61 61 61 60 60 61 60 60 59 59 58 55 52 51 51 50 51 51 53 54 56 56 55 55 55 56 54 52 51 52 54 56 58 60 61 61 61 61 61 61
60 61 61 61 61 61 60 60 60 61 60 60 59 58 56 54 53 53 53 51 50 52 53 54 54 55 54 55 55 53 52 49 50 52 53 55 56 58 59 60 62 62 62
60 59 59 59 59 59 60 60 60 60 60 60 59 58 57 56 55 55 52 52 51 51 52 51 54 53 54 54 54 51 54 49 49 49 51 52 53 54 55 56 58 59 60
58 58 58 58 57 58 58 59 59 59 59 59 59 58 57 57 57 56 55 53 51 49 49 52 52 54 53 54 53 53 54 51 48 48 48 50 51 53 53 54 54 55 56
58 57 57 57 57 58 58 59 58 59 59 59 59 58 57 57 57 56 55 56 54 51 49 52 53 54 55 54 53 54 54 51 48 47 47 47 48 50 51 51 52 53 53
58 57 57 58 58 58 58 58 58 59 58 58 59 58 57 57 56 55 55 55 55 54 51 52 52 53 55 55 56 55 56 56 54 47 46 46 46 47 47 48 49 50 50
57 57 57 57 56 57 57 57 57 58 58 58 58 58 57 57 56 56 55 54 54 54 52 51 52 52 52 55 55 55 56 56 56 52 49 48 48 47 46 45 45 45 45
57 57 57 57 56 56 57 57 57 57 57 57 57 57 57 57 56 56 56 55 54 54 54 52 51 53 53 53 52 53 52 53 53 51 47 42 43 42 41 41 42 42 43
57 57 57 57 57 57 57 56 56 56 56 56 56 57 57 57 56 55 55 54 54 54 53 53 52 52 52 52 51 51 50 51 51 47 42 40 40 40 40 40 41 41 41
58 58 57 56 56 55 48 54 56 56 56 56 56 56 56 55 51 53 55 55 53 53 53 52 51 49 49 50 49 51 51 52 49 49 47 43 40 38 38 38 38 38 38
44 44 43 42 42 40 37 38 43 55 55 55 54 55 55 49 44 42 40 38 47 53 52 51 50 48 48 50 48 51 52 52 49 40 46 37 37 35 36 36 36 36 36
40 38 38 39 39 38 38 39 41 47 44 43 43 48 43 40 42 39 36 35 35 34 34 47 49 45 44 38 39 42 45 46 43 34 38 33 33 31 34 35 35 35 34
34 34 35 36 36 35 36 36 36 36 35 35 35 36 37 37 37 39 36 34 33 33 33 33 34 32 33 33 35 38 40 37 34 32 33 32 31 29 31 33 33 32 31
31 32 32 33 33 34 35 35 34 33 32 32 33 34 34 35 37 37 35 32 31 31 33 33 33 32 31 32 34 36 33 34 32 29 30 32 30 28 29 30 32 32 31
31 31 31 31 33 32 34 34 33 32 31 31 31 32 33 34 35 34 32 31 28 29 29 30 30 29 28 29 29 30 31 32 30 28 28 30 30 28 25 29 30 30 26

GFSMA_sfc_dewp_111.txt.gz
Dewpoint
65 65 65 65 65 64 62 61 60 60 60 60 60 61 62 63 63 64 64 63 64 65 65 63 62 61 60 61 61 59 58 59 57 57 56 58 58 56 56 57 58 58 57
64 65 64 64 64 63 62 61 61 60 59 60 61 61 61 62 63 63 64 64 63 64 64 63 61 61 60 60 61 59 58 58 58 57 56 56 56 56 58 58 57 57 56
64 64 64 63 63 63 61 60 60 60 59 60 59 61 61 61 62 63 63 63 63 62 62 63 61 61 60 61 60 59 58 58 58 58 58 57 56 56 57 58 57 57 57
63 63 63 63 62 63 62 61 61 60 61 60 58 59 60 61 61 63 63 63 62 60 60 61 61 62 61 61 59 59 58 57 58 59 59 58 57 57 58 58 57 56 56
63 63 63 62 62 62 62 61 61 60 60 60 60 60 60 60 61 62 62 62 61 59 58 60 60 60 61 61 60 59 60 58 58 59 59 58 57 58 58 58 57 57 56
63 63 62 62 62 62 61 61 61 61 61 59 61 61 61 59 60 61 61 62 61 58 57 58 59 59 59 60 61 60 59 59 58 58 58 59 58 58 58 58 57 57 56
63 63 62 61 61 61 61 61 61 61 61 60 59 59 59 59 60 61 61 61 60 57 57 58 59 59 59 60 60 60 59 58 59 58 58 57 59 60 59 58 58 57 57
63 63 62 61 61 61 61 61 61 60 60 60 58 58 54 56 58 59 59 59 58 57 57 57 58 58 58 57 57 60 59 59 60 59 58 56 59 59 59 59 58 58 58
64 63 62 62 61 62 61 61 60 60 59 59 59 56 53 52 55 57 57 58 58 57 56 57 57 58 57 58 58 58 56 57 59 59 56 59 59 59 59 59 58 58 58
63 64 63 62 62 62 62 62 61 61 60 58 59 59 56 54 53 51 56 56 57 56 56 56 57 57 57 57 57 56 54 53 55 59 60 60 60 60 60 60 60 59 58
63 63 63 63 62 63 62 62 62 61 60 59 59 58 56 55 55 53 52 54 56 56 56 56 56 57 57 57 56 56 53 52 53 56 59 60 60 61 61 61 61 60 60
62 63 63 62 62 62 61 61 61 61 61 60 59 59 57 54 53 52 52 53 53 55 56 55 56 56 56 56 56 54 52 51 52 54 56 58 60 61 61 61 61 61 61
60 61 62 61 61 61 62 61 60 60 60 59 59 59 58 56 55 53 52 53 52 53 54 55 56 56 56 56 56 53 52 50 50 52 54 55 57 58 60 61 61 61 61
59 60 61 61 61 61 60 60 60 60 60 60 59 59 59 57 56 55 53 52 50 51 52 52 54 55 55 55 55 52 54 49 49 50 51 52 54 55 56 57 59 60 61
59 60 61 60 60 60 60 60 59 59 60 60 60 60 58 57 57 56 55 53 51 49 50 52 52 54 54 55 54 54 54 51 49 48 48 49 51 52 53 54 55 56 57
59 59 59 59 58 58 58 58 58 59 59 59 59 58 58 57 57 56 56 55 54 52 49 52 52 54 54 53 54 54 54 51 48 47 47 47 48 50 51 51 52 52 53
59 58 58 57 57 57 57 57 57 58 58 58 59 58 57 57 56 56 56 56 55 54 50 52 52 54 55 54 54 54 54 54 53 47 46 46 46 47 47 47 47 49 50
59 58 58 57 57 57 57 57 57 58 58 58 58 58 57 57 56 56 56 55 55 55 53 51 52 52 53 55 56 56 56 55 56 52 47 47 47 47 45 43 44 45 45
58 58 58 57 57 57 57 57 57 57 58 58 58 58 57 57 56 56 55 54 54 55 54 52 52 53 53 53 53 54 54 55 54 44 42 41 42 42 42 42 42 43 43
58 57 57 57 56 56 56 56 57 57 57 57 58 58 57 57 56 56 56 55 55 54 54 54 53 53 53 53 53 52 52 51 50 41 40 40 40 40 40 41 41 41 41
58 57 57 57 57 56 54 56 56 56 56 56 56 56 57 55 51 53 56 56 55 54 54 53 52 51 51 51 51 52 51 52 48 47 43 41 39 38 38 38 39 39 38
41 47 47 47 45 41 38 39 46 56 56 56 55 56 56 49 48 45 45 47 52 54 53 53 52 51 51 51 51 52 51 50 47 40 40 35 36 36 36 37 37 37 36
34 35 37 39 38 38 38 40 41 49 48 46 47 52 46 43 44 41 36 36 35 35 36 51 52 51 49 45 45 45 47 48 44 36 40 32 33 32 35 36 35 34 33
33 32 33 34 35 35 35 36 36 37 36 35 36 38 40 40 40 40 37 34 33 33 34 34 35 33 33 35 38 40 42 36 33 32 34 30 31 29 32 33 34 33 32
32 32 32 32 33 33 35 34 34 34 32 32 33 35 36 37 37 38 34 32 31 31 33 32 32 32 32 33 35 37 34 35 32 30 31 32 29 28 29 30 32 31 30
31 31 30 31 32 32 34 34 33 32 31 31 31 32 34 34 34 34 32 31 29 29 30 29 28 28 29 29 29 29 32 33 30 30 30 31 29 28 25 29 29 29 27

GFSMA_sfc_dewp_114.txt.gz
Dewpoint
65 66 66 64 64 64 63 61 61 60 60 60 61 61 62 63 63 64 65 64 64 66 66 65 63 62 60 61 62 61 60 59 59 58 58 58 58 58 58 57 56 56 57
65 65 65 65 64 64 61 61 61 60 59 60 60 61 61 62 63 63 64 64 63 64 65 64 63 61 60 61 62 60 59 58 59 58 58 58 59 56 57 58 58 57 55
64 64 64 64 64 63 61 60 59 59 59 60 59 60 61 61 62 63 63 64 63 62 63 64 63 62 61 60 60 59 59 59 59 58 58 57 57 55 57 57 58 57 57
64 64 64 63 64 63 61 60 60 60 59 60 59 59 60 61 62 63 63 63 63 63 62 62 62 62 61 61 60 59 59 59 59 59 58 57 56 56 57 58 57 57 57
63 63 64 63 63 63 62 61 61 59 59 60 60 59 59 60 61 63 62 63 62 62 61 61 61 60 61 61 61 59 59 59 59 59 58 58 56 56 57 58 57 57 57
63 63 62 62 63 62 62 61 61 61 59 60 60 60 61 60 61 61 62 62 62 61 60 59 60 59 59 61 61 59 59 60 59 58 58 58 55 58 59 58 58 57 57
63 63 62 61 62 62 61 61 60 60 60 60 59 59 60 60 60 61 62 62 61 61 60 58 59 59 59 59 61 61 61 60 59 58 59 58 58 59 60 59 58 57 57
63 63 63 62 62 62 61 61 61 60 60 61 58 57 55 56 59 61 61 61 61 60 59 58 58 59 59 59 58 61 61 61 60 59 59 60 59 59 60 59 59 58 57
63 63 63 62 62 62 61 61 61 60 59 59 59 57 54 53 55 57 59 60 59 59 59 58 57 58 59 58 58 58 57 57 60 61 60 60 59 58 59 59 58 59 58
64 63 63 62 62 62 62 62 62 61 60 58 59 59 57 55 54 51 56 58 59 58 58 58 57 57 58 57 57 56 54 53 56 60 61 60 59 59 59 59 59 59 59
64 64 63 63 62 62 62 62 61 61 61 60 59 58 58 56 56 53 52 54 57 58 57 57 57 57 57 57 57 56 53 52 53 57 59 59 60 60 59 60 60 60 60
63 63 63 63 63 62 62 62 62 61 61 61 60 59 58 56 54 54 53 54 54 56 57 57 56 56 57 57 57 54 53 51 52 54 56 58 60 60 60 60 61 61 61
62 62 63 62 63 63 62 62 61 61 61 61 60 59 59 58 57 55 54 54 54 54 56 57 57 56 56 57 57 54 53 50 51 52 54 55 57 59 60 61 61 61 61
61 62 62 62 61 62 62 62 61 61 61 61 60 60 59 59 59 57 55 54 52 52 54 54 56 56 56 56 55 52 55 50 50 50 51 53 54 55 56 57 59 60 61
60 59 61 61 61 61 61 61 61 60 60 60 60 60 59 59 59 58 57 55 53 51 51 53 53 56 56 56 55 55 55 52 49 49 49 50 52 53 53 54 55 56 57
59 59 60 61 61 61 61 60 60 60 59 59 59 59 59 59 58 58 57 56 55 53 50 54 54 54 55 55 55 55 55 52 48 47 47 48 49 50 51 51 52 53 53
59 59 60 60 60 59 59 59 59 58 58 58 58 58 57 58 57 57 56 56 55 54 51 52 54 55 54 55 54 54 55 55 54 47 46 46 46 46 47 48 48 49 50
60 59 59 59 59 58 58 58 57 57 57 56 56 58 58 57 56 56 56 55 54 54 53 51 53 53 54 55 55 54 54 54 55 49 46 46 45 45 45 45 45 45 45
59 59 59 58 58 57 57 57 56 56 57 57 57 58 58 57 56 56 56 55 55 54 54 53 53 54 54 54 55 55 55 54 46 43 42 42 42 43 43 43 43 43 43
52 58 58 58 58 57 57 57 56 56 57 57 57 58 58 57 56 56 55 55 55 55 54 53 53 52 53 54 54 53 52 52 44 41 41 40 41 41 41 41 41 41 41
39 41 52 57 57 57 54 56 56 56 56 56 57 57 57 56 51 53 55 55 55 54 54 53 52 52 52 51 52 53 53 51 46 42 41 40 39 39 39 39 39 39 39
36 36 37 39 40 40 38 40 51 56 56 55 55 56 56 50 48 45 46 47 52 54 54 53 53 52 52 53 52 53 52 49 45 44 39 36 37 36 37 37 37 37 37
35 35 35 35 35 35 36 37 40 52 52 47 48 52 49 46 46 43 37 37 36 36 37 53 53 53 52 52 52 49 50 50 45 38 37 32 34 33 36 36 35 34 34
33 33 33 34 34 34 35 35 35 37 36 36 36 38 42 42 41 41 38 35 34 33 34 36 37 35 34 37 44 46 46 35 34 33 36 30 32 30 32 34 34 33 32
30 31 31 32 32 32 34 34 33 33 32 32 34 36 37 38 37 38 36 33 32 31 33 34 34 34 34 34 36 40 37 38 32 31 32 31 30 29 30 31 32 32 30
30 30 29 30 31 31 33 34 33 32 31 31 32 32 34 34 34 34 33 32 29 29 29 29 29 29 29 30 29 31 35 35 31 30 30 30 28 28 25 29 28 28 29

GFSMA_sfc_dewp_117.txt.gz
Dewpoint
67 68 67 66 65 66 66 65 63 63 64 65 66 65 64 65 66 66 66 64 65 66 66 65 64 62 61 61 62 61 60 60 59 59 59 59 59 59 58 59 59 58 58
67 66 66 66 66 66 65 64 63 63 63 64 64 64 63 64 65 65 66 66 63 64 66 65 64 63 61 60 62 61 61 60 59 59 58 60 60 59 59 59 55 57 57
66 66 66 66 66 66 65 65 64 64 63 63 62 63 62 63 64 65 65 65 64 62 63 65 64 64 62 61 61 61 61 61 60 59 58 59 59 58 58 59 58 57 55
67 66 65 66 67 65 64 65 64 63 62 62 62 62 62 62 63 64 65 65 66 64 63 63 64 63 63 62 61 59 59 59 60 59 59 58 58 58 58 58 59 57 57
67 66 65 65 66 65 64 64 62 63 62 62 61 62 62 62 62 62 63 64 64 65 64 63 62 62 62 62 62 59 58 59 60 59 59 57 57 57 58 58 58 58 58
66 66 65 65 65 64 63 63 62 62 62 62 60 61 62 62 63 62 62 63 64 64 64 62 63 61 59 61 62 61 59 59 59 59 59 58 57 57 58 59 58 57 57
66 66 65 64 64 63 62 63 62 62 62 63 61 60 61 62 62 62 62 62 62 63 63 62 62 61 58 60 62 62 60 60 60 59 59 59 59 58 59 59 59 58 58
65 65 65 63 63 63 62 62 62 61 61 62 59 58 56 58 60 61 62 62 62 63 62 61 61 60 59 58 59 61 61 61 61 59 60 60 59 58 59 59 59 58 58
65 65 65 64 63 63 62 62 62 62 60 61 61 59 55 54 56 59 61 61 62 62 62 61 60 60 59 58 59 59 57 59 61 61 60 61 61 59 59 59 59 59 59
64 65 64 64 64 63 63 62 62 62 62 60 61 60 59 57 54 54 57 60 61 60 61 61 59 59 59 58 58 56 55 54 57 60 61 60 61 60 59 59 59 59 59
64 65 64 64 64 63 63 63 63 62 63 62 60 60 60 59 58 55 53 56 59 60 61 60 60 59 59 59 58 57 53 53 53 57 60 61 61 60 59 59 59 58 59
64 65 64 64 64 64 64 64 64 63 63 62 61 60 59 58 56 55 54 55 56 58 60 59 59 59 59 59 57 54 53 51 52 54 57 59 60 60 59 59 59 59 60
63 64 64 64 64 64 64 64 64 63 63 62 61 60 60 59 59 57 56 55 55 56 57 58 58 58 58 58 57 54 53 50 51 52 54 56 57 58 59 59 59 60 60
63 64 63 64 63 63 63 63 63 63 63 63 62 61 61 61 61 59 56 56 53 54 55 57 58 59 58 58 57 52 56 50 50 50 52 53 54 55 56 57 59 60 60
63 63 63 63 62 63 62 62 62 62 62 62 62 61 61 61 61 60 59 57 55 52 52 56 56 57 58 58 56 58 57 52 50 49 50 51 52 53 53 54 55 57 58
63 63 63 62 62 62 62 62 62 62 61 61 61 61 60 61 61 60 59 58 57 55 52 54 55 56 57 57 56 57 57 53 49 48 48 48 49 51 51 52 52 53 54
61 61 62 62 62 61 61 61 61 61 61 60 60 60 59 60 59 59 59 59 57 57 54 54 55 56 57 57 56 57 57 57 55 47 47 47 46 47 48 49 49 50 51
61 61 60 60 61 61 61 60 59 60 60 59 59 59 59 58 59 58 58 57 57 56 55 52 54 55 55 56 56 56 56 55 57 47 46 46 46 45 45 45 46 46 47
48 57 60 60 60 60 59 59 59 59 59 58 58 57 57 57 58 58 57 56 56 55 55 53 53 55 55 55 55 56 55 56 48 45 43 43 43 44 44 44 44 44 43
41 43 45 56 59 58 58 58 59 58 57 57 58 57 57 58 58 57 56 57 55 55 54 53 53 53 54 55 55 54 55 52 48 43 42 42 42 42 42 42 42 42 41
39 39 39 39 40 39 38 40 50 57 57 57 57 57 58 57 52 54 57 56 55 54 54 53 53 53 53 53 53 54 54 51 46 44 41 41 41 41 41 41 41 41 40
36 36 37 37 36 36 36 37 39 50 57 56 56 57 57 51 51 45 45 47 54 55 54 53 53 52 52 53 53 53 53 48 45 43 40 37 39 38 39 39 39 39 38
33 33 34 34 34 34 35 36 38 39 43 48 49 52 54 50 49 46 38 37 36 36 38 54 53 53 53 53 53 53 53 51 49 42 37 33 36 34 36 36 36 36 35
32 31 31 32 32 33 35 35 35 35 34 34 35 37 41 43 42 43 41 36 34 34 35 36 39 38 37 41 51 53 53 45 36 35 37 31 33 32 34 35 35 35 34
31 30 30 30 31 31 33 34 35 34 33 32 32 34 35 35 36 39 37 34 32 31 34 34 34 34 34 34 35 42 39 40 33 33 34 31 31 30 31 31 34 32 30
32 32 31 30 30 30 32 32 32 33 32 32 32 31 32 33 34 34 34 34 30 31 30 30 30 29 29 30 30 32 35 39 33 32 32 30 29 29 26 29 29 30 29

GFSMA_sfc_dewp_120.txt.gz
Dewpoint
68 67 66 65 66 64 64 64 63 63 63 64 63 63 63 64 64 67 64 64 65 66 66 67 65 63 62 62 64 62 62 61 60 60 59 60 61 60 59 59 59 59 59
68 66 65 65 65 64 64 64 63 62 61 62 63 63 62 63 64 64 65 66 63 65 66 66 65 64 62 61 62 62 62 62 60 59 60 60 60 59 59 59 59 58 58
68 68 67 65 64 65 66 66 64 62 62 61 61 62 62 63 63 64 65 64 65 62 64 64 65 64 63 61 61 61 62 62 61 59 60 60 60 59 59 58 57 58 58
68 68 66 66 67 67 66 64 63 62 62 61 60 60 60 60 61 62 64 65 65 62 63 63 65 64 64 63 61 60 60 61 61 60 60 60 60 59 58 58 58 58 56
68 67 66 66 69 67 66 65 64 63 61 61 60 60 60 59 60 59 61 63 64 65 63 63 63 63 63 63 62 60 60 59 60 60 59 59 59 59 58 58 58 58 57
67 67 67 67 67 66 66 65 64 63 62 61 58 59 61 60 60 61 61 61 63 64 64 64 64 63 61 62 63 62 60 59 59 59 59 59 59 59 59 59 58 58 58
67 67 66 66 66 65 64 65 64 63 63 63 62 61 62 62 62 62 62 62 62 63 64 64 65 63 62 61 62 63 61 59 59 60 60 60 59 59 59 58 59 59 58
67 66 66 66 65 65 65 64 63 63 63 64 61 60 58 59 61 62 62 61 62 62 62 63 63 63 62 61 60 62 62 61 60 60 61 60 60 60 59 58 58 59 58
66 66 66 65 65 65 64 64 63 63 62 63 62 59 57 52 53 58 60 60 62 63 62 62 62 62 61 59 58 59 58 59 61 61 61 61 61 60 59 59 59 59 59
65 65 65 66 65 64 64 64 63 63 63 61 62 61 60 56 52 54 59 61 60 61 62 62 62 62 61 60 58 56 55 55 57 61 61 61 61 61 59 59 59 59 59
65 65 65 65 64 65 65 65 63 63 64 62 61 61 60 59 58 55 54 57 60 60 61 62 62 62 61 61 60 57 54 53 54 59 60 60 61 61 60 59 59 60 60
65 65 65 65 65 64 64 64 64 64 64 63 62 61 60 59 58 57 55 54 56 59 61 62 62 62 62 60 59 54 53 52 52 55 58 59 60 60 60 60 59 59 59
64 64 65 65 65 65 64 65 64 64 64 64 64 63 62 60 59 58 57 55 56 57 60 61 61 61 61 60 59 55 53 50 51 53 55 57 58 59 59 59 59 59 59
64 65 65 65 65 65 65 66 66 65 65 65 64 64 62 61 61 59 58 57 56 55 57 57 60 60 60 60 59 53 57 50 50 50 52 53 55 56 57 57 58 58 59
64 65 65 64 64 65 64 65 65 64 64 65 65 65 63 62 62 62 61 59 57 53 53 56 57 59 59 60 58 58 58 52 50 49 49 51 52 53 54 55 56 57 58
62 64 64 64 64 64 64 63 63 63 63 63 63 63 63 62 62 62 62 61 60 57 54 55 57 58 59 59 57 58 58 53 49 48 48 48 50 51 52 52 53 53 54
54 63 63 63 63 63 62 62 62 62 62 62 62 62 62 62 61 62 61 61 60 58 55 56 57 58 58 58 58 58 57 57 55 48 47 47 48 48 49 49 50 51 52
50 56 62 62 62 62 62 61 61 61 61 61 62 61 61 61 60 61 60 60 59 59 57 55 55 56 56 58 57 57 57 55 57 50 47 47 46 46 46 46 47 48 48
44 46 47 51 59 61 61 61 61 60 60 60 61 61 61 60 59 60 59 58 59 58 57 56 54 56 56 57 57 57 57 57 52 46 44 45 45 45 45 45 45 46 46
40 41 41 41 42 41 41 43 49 59 60 60 60 61 60 59 59 59 58 58 58 57 56 55 54 54 55 55 56 55 55 52 49 45 43 44 44 45 44 43 43 43 43
37 37 38 37 38 37 36 38 41 47 56 59 59 59 59 57 52 54 59 58 57 56 55 54 53 53 53 53 53 54 53 51 49 47 44 44 45 44 43 42 43 42 42
34 35 35 34 34 35 35 36 39 47 45 52 56 58 58 52 53 45 45 46 53 56 55 54 53 52 53 53 54 53 52 48 45 46 45 42 43 42 41 42 40 40 40
33 33 33 33 33 33 34 35 36 38 37 37 38 40 43 49 47 55 40 38 37 37 39 54 53 54 53 54 54 53 53 51 50 44 40 34 37 36 38 38 38 38 38
33 32 32 32 32 32 33 33 35 37 35 34 34 35 36 37 37 42 44 39 36 35 35 37 39 38 39 43 53 53 53 47 38 39 39 32 34 32 34 36 36 36 36
34 33 33 32 32 31 32 32 33 34 33 33 32 34 34 34 34 37 39 34 32 32 33 33 33 33 33 33 35 47 42 42 35 35 34 32 31 31 32 32 34 34 34
33 34 33 32 31 32 31 31 31 30 30 28 30 31 32 32 33 34 35 34 30 30 31 30 30 29 29 29 29 31 36 47 34 33 33 31 30 30 26 29 30 30 30